<?xml version="1.0" encoding="UTF-8" standalone="no" ?>
<gpx xmlns="http://www.topografix.com/GPX/1/1" xmlns:xsi="http://www.w3.org/2001/XMLSchema-instance" xsi:schemaLocation="http://www.topografix.com/GPX/1/1 http://www.topografix.com/GPX/1/1/gpx.xsd" version="1.1" creator="VisuGPX - https://www.visugpx.com">
  <metadata>
    <name>Mont Puget</name>
    <desc><![CDATA[Départ de Luminy, Aiguille Guillemin et Grande Candelle.
Deux passages un peu délicats :
km 4.3 à 4.6( montée)
km 8.3 à 8.5 (descente)]]></desc>
  </metadata>
  <trk>
    <name><![CDATA[Mont Puget_1]]></name>
    <trkseg>
      <trkpt lat="43.23069" lon="5.43643">
        <ele>138</ele>
        <time>2022-03-23T08:36:30Z</time>
      </trkpt>
      <trkpt lat="43.23065" lon="5.43642">
        <ele>138.4</ele>
        <time>2022-03-23T08:36:56Z</time>
      </trkpt>
      <trkpt lat="43.23058" lon="5.43645">
        <ele>138.8</ele>
        <time>2022-03-23T08:40:24Z</time>
      </trkpt>
      <trkpt lat="43.23055" lon="5.43653">
        <ele>139</ele>
        <time>2022-03-23T08:40:30Z</time>
      </trkpt>
      <trkpt lat="43.23053" lon="5.4366">
        <ele>139.2</ele>
        <time>2022-03-23T08:40:34Z</time>
      </trkpt>
      <trkpt lat="43.23048" lon="5.43665">
        <ele>139.5</ele>
        <time>2022-03-23T08:40:40Z</time>
      </trkpt>
      <trkpt lat="43.23045" lon="5.43669">
        <ele>139.8</ele>
        <time>2022-03-23T08:40:44Z</time>
      </trkpt>
      <trkpt lat="43.23041" lon="5.43673">
        <ele>140.1</ele>
        <time>2022-03-23T08:40:48Z</time>
      </trkpt>
      <trkpt lat="43.23036" lon="5.43678">
        <ele>140.4</ele>
        <time>2022-03-23T08:40:52Z</time>
      </trkpt>
      <trkpt lat="43.23032" lon="5.43682">
        <ele>140.7</ele>
        <time>2022-03-23T08:41:00Z</time>
      </trkpt>
      <trkpt lat="43.23028" lon="5.43684">
        <ele>141</ele>
        <time>2022-03-23T08:41:16Z</time>
      </trkpt>
      <trkpt lat="43.23023" lon="5.43684">
        <ele>141.5</ele>
        <time>2022-03-23T08:41:22Z</time>
      </trkpt>
      <trkpt lat="43.23017" lon="5.43686">
        <ele>142</ele>
        <time>2022-03-23T08:41:28Z</time>
      </trkpt>
      <trkpt lat="43.23011" lon="5.43687">
        <ele>142.5</ele>
        <time>2022-03-23T08:41:34Z</time>
      </trkpt>
      <trkpt lat="43.23006" lon="5.4369">
        <ele>142.9</ele>
        <time>2022-03-23T08:41:38Z</time>
      </trkpt>
      <trkpt lat="43.23" lon="5.43693">
        <ele>143.1</ele>
        <time>2022-03-23T08:41:44Z</time>
      </trkpt>
      <trkpt lat="43.22995" lon="5.43696">
        <ele>143.4</ele>
        <time>2022-03-23T08:41:48Z</time>
      </trkpt>
      <trkpt lat="43.22989" lon="5.43699">
        <ele>143.8</ele>
        <time>2022-03-23T08:41:54Z</time>
      </trkpt>
      <trkpt lat="43.22983" lon="5.43701">
        <ele>144.2</ele>
        <time>2022-03-23T08:42:00Z</time>
      </trkpt>
      <trkpt lat="43.22978" lon="5.43704">
        <ele>144.6</ele>
        <time>2022-03-23T08:42:06Z</time>
      </trkpt>
      <trkpt lat="43.22973" lon="5.43706">
        <ele>144.9</ele>
        <time>2022-03-23T08:42:10Z</time>
      </trkpt>
      <trkpt lat="43.22969" lon="5.43706">
        <ele>145.5</ele>
        <time>2022-03-23T08:42:16Z</time>
      </trkpt>
      <trkpt lat="43.22964" lon="5.43705">
        <ele>146.1</ele>
        <time>2022-03-23T08:42:26Z</time>
      </trkpt>
      <trkpt lat="43.22959" lon="5.43706">
        <ele>146.8</ele>
        <time>2022-03-23T08:42:30Z</time>
      </trkpt>
      <trkpt lat="43.22954" lon="5.43705">
        <ele>147.6</ele>
        <time>2022-03-23T08:42:36Z</time>
      </trkpt>
      <trkpt lat="43.22948" lon="5.43705">
        <ele>148.3</ele>
        <time>2022-03-23T08:42:40Z</time>
      </trkpt>
      <trkpt lat="43.22943" lon="5.43706">
        <ele>148.8</ele>
        <time>2022-03-23T08:42:46Z</time>
      </trkpt>
      <trkpt lat="43.22938" lon="5.43706">
        <ele>149.1</ele>
        <time>2022-03-23T08:42:54Z</time>
      </trkpt>
      <trkpt lat="43.22933" lon="5.43706">
        <ele>149.4</ele>
        <time>2022-03-23T08:43:00Z</time>
      </trkpt>
      <trkpt lat="43.22927" lon="5.43707">
        <ele>149.6</ele>
        <time>2022-03-23T08:43:04Z</time>
      </trkpt>
      <trkpt lat="43.22922" lon="5.43706">
        <ele>150</ele>
        <time>2022-03-23T08:43:10Z</time>
      </trkpt>
      <trkpt lat="43.22916" lon="5.43707">
        <ele>150.3</ele>
        <time>2022-03-23T08:43:16Z</time>
      </trkpt>
      <trkpt lat="43.22909" lon="5.43708">
        <ele>150.5</ele>
        <time>2022-03-23T08:43:22Z</time>
      </trkpt>
      <trkpt lat="43.22903" lon="5.4371">
        <ele>150.7</ele>
        <time>2022-03-23T08:43:26Z</time>
      </trkpt>
      <trkpt lat="43.22897" lon="5.43711">
        <ele>151</ele>
        <time>2022-03-23T08:43:32Z</time>
      </trkpt>
      <trkpt lat="43.22891" lon="5.43712">
        <ele>151.3</ele>
        <time>2022-03-23T08:43:38Z</time>
      </trkpt>
      <trkpt lat="43.22886" lon="5.43712">
        <ele>151.6</ele>
        <time>2022-03-23T08:43:44Z</time>
      </trkpt>
      <trkpt lat="43.22881" lon="5.43714">
        <ele>151.8</ele>
        <time>2022-03-23T08:43:50Z</time>
      </trkpt>
      <trkpt lat="43.22875" lon="5.43715">
        <ele>152.1</ele>
        <time>2022-03-23T08:43:56Z</time>
      </trkpt>
      <trkpt lat="43.22869" lon="5.43715">
        <ele>152.4</ele>
        <time>2022-03-23T08:44:02Z</time>
      </trkpt>
      <trkpt lat="43.22864" lon="5.43716">
        <ele>152.7</ele>
        <time>2022-03-23T08:44:06Z</time>
      </trkpt>
      <trkpt lat="43.2286" lon="5.43716">
        <ele>153</ele>
        <time>2022-03-23T08:44:10Z</time>
      </trkpt>
      <trkpt lat="43.22854" lon="5.43716">
        <ele>153.3</ele>
        <time>2022-03-23T08:44:16Z</time>
      </trkpt>
      <trkpt lat="43.22848" lon="5.43717">
        <ele>153.7</ele>
        <time>2022-03-23T08:44:22Z</time>
      </trkpt>
      <trkpt lat="43.22842" lon="5.43718">
        <ele>154</ele>
        <time>2022-03-23T08:44:28Z</time>
      </trkpt>
      <trkpt lat="43.22837" lon="5.43719">
        <ele>154.2</ele>
        <time>2022-03-23T08:44:32Z</time>
      </trkpt>
      <trkpt lat="43.22833" lon="5.4372">
        <ele>154.4</ele>
        <time>2022-03-23T08:44:36Z</time>
      </trkpt>
      <trkpt lat="43.22828" lon="5.4372">
        <ele>154.4</ele>
        <time>2022-03-23T08:44:40Z</time>
      </trkpt>
      <trkpt lat="43.22822" lon="5.43722">
        <ele>154.5</ele>
        <time>2022-03-23T08:44:46Z</time>
      </trkpt>
      <trkpt lat="43.22815" lon="5.43723">
        <ele>154.5</ele>
        <time>2022-03-23T08:44:52Z</time>
      </trkpt>
      <trkpt lat="43.22809" lon="5.43724">
        <ele>154.6</ele>
        <time>2022-03-23T08:44:58Z</time>
      </trkpt>
      <trkpt lat="43.22805" lon="5.43724">
        <ele>154.7</ele>
        <time>2022-03-23T08:45:04Z</time>
      </trkpt>
      <trkpt lat="43.22798" lon="5.43725">
        <ele>155</ele>
        <time>2022-03-23T08:45:10Z</time>
      </trkpt>
      <trkpt lat="43.22792" lon="5.43723">
        <ele>155.8</ele>
        <time>2022-03-23T08:45:16Z</time>
      </trkpt>
      <trkpt lat="43.22785" lon="5.43721">
        <ele>156.6</ele>
        <time>2022-03-23T08:45:22Z</time>
      </trkpt>
      <trkpt lat="43.22778" lon="5.43719">
        <ele>157.5</ele>
        <time>2022-03-23T08:45:28Z</time>
      </trkpt>
      <trkpt lat="43.22773" lon="5.43718">
        <ele>158</ele>
        <time>2022-03-23T08:45:34Z</time>
      </trkpt>
      <trkpt lat="43.22766" lon="5.43718">
        <ele>158.5</ele>
        <time>2022-03-23T08:45:40Z</time>
      </trkpt>
      <trkpt lat="43.22761" lon="5.43719">
        <ele>158.7</ele>
        <time>2022-03-23T08:45:44Z</time>
      </trkpt>
      <trkpt lat="43.22755" lon="5.4372">
        <ele>158.9</ele>
        <time>2022-03-23T08:45:50Z</time>
      </trkpt>
      <trkpt lat="43.2275" lon="5.43722">
        <ele>159</ele>
        <time>2022-03-23T08:45:54Z</time>
      </trkpt>
      <trkpt lat="43.22744" lon="5.43725">
        <ele>158.8</ele>
        <time>2022-03-23T08:46:00Z</time>
      </trkpt>
      <trkpt lat="43.22739" lon="5.43727">
        <ele>158.8</ele>
        <time>2022-03-23T08:46:06Z</time>
      </trkpt>
      <trkpt lat="43.22733" lon="5.43728">
        <ele>159</ele>
        <time>2022-03-23T08:46:12Z</time>
      </trkpt>
      <trkpt lat="43.22728" lon="5.4373">
        <ele>159.3</ele>
        <time>2022-03-23T08:46:18Z</time>
      </trkpt>
      <trkpt lat="43.22722" lon="5.43731">
        <ele>159.7</ele>
        <time>2022-03-23T08:46:24Z</time>
      </trkpt>
      <trkpt lat="43.22716" lon="5.43733">
        <ele>159.6</ele>
        <time>2022-03-23T08:46:30Z</time>
      </trkpt>
      <trkpt lat="43.2271" lon="5.43736">
        <ele>159.7</ele>
        <time>2022-03-23T08:46:36Z</time>
      </trkpt>
      <trkpt lat="43.22706" lon="5.43739">
        <ele>160</ele>
        <time>2022-03-23T08:46:40Z</time>
      </trkpt>
      <trkpt lat="43.22702" lon="5.43743">
        <ele>160.5</ele>
        <time>2022-03-23T08:46:46Z</time>
      </trkpt>
      <trkpt lat="43.22696" lon="5.43747">
        <ele>161.4</ele>
        <time>2022-03-23T08:46:52Z</time>
      </trkpt>
      <trkpt lat="43.22691" lon="5.43751">
        <ele>162.2</ele>
        <time>2022-03-23T08:46:58Z</time>
      </trkpt>
      <trkpt lat="43.22686" lon="5.43753">
        <ele>162.5</ele>
        <time>2022-03-23T08:47:06Z</time>
      </trkpt>
      <trkpt lat="43.22682" lon="5.43756">
        <ele>162.7</ele>
        <time>2022-03-23T08:47:12Z</time>
      </trkpt>
      <trkpt lat="43.22678" lon="5.4376">
        <ele>163.1</ele>
        <time>2022-03-23T08:47:18Z</time>
      </trkpt>
      <trkpt lat="43.22672" lon="5.43764">
        <ele>163.5</ele>
        <time>2022-03-23T08:47:24Z</time>
      </trkpt>
      <trkpt lat="43.22666" lon="5.4377">
        <ele>164</ele>
        <time>2022-03-23T08:47:30Z</time>
      </trkpt>
      <trkpt lat="43.22663" lon="5.43773">
        <ele>164.3</ele>
        <time>2022-03-23T08:47:34Z</time>
      </trkpt>
      <trkpt lat="43.22659" lon="5.43777">
        <ele>164.6</ele>
        <time>2022-03-23T08:47:38Z</time>
      </trkpt>
      <trkpt lat="43.22653" lon="5.43781">
        <ele>164.8</ele>
        <time>2022-03-23T08:47:44Z</time>
      </trkpt>
      <trkpt lat="43.22649" lon="5.43785">
        <ele>164.8</ele>
        <time>2022-03-23T08:47:50Z</time>
      </trkpt>
      <trkpt lat="43.22644" lon="5.43789">
        <ele>164.9</ele>
        <time>2022-03-23T08:47:56Z</time>
      </trkpt>
      <trkpt lat="43.2264" lon="5.43791">
        <ele>165</ele>
        <time>2022-03-23T08:48:00Z</time>
      </trkpt>
      <trkpt lat="43.22635" lon="5.43793">
        <ele>165</ele>
        <time>2022-03-23T08:48:04Z</time>
      </trkpt>
      <trkpt lat="43.22629" lon="5.43796">
        <ele>165.1</ele>
        <time>2022-03-23T08:48:10Z</time>
      </trkpt>
      <trkpt lat="43.22625" lon="5.43797">
        <ele>165.1</ele>
        <time>2022-03-23T08:48:14Z</time>
      </trkpt>
      <trkpt lat="43.2262" lon="5.43799">
        <ele>165.1</ele>
        <time>2022-03-23T08:48:18Z</time>
      </trkpt>
      <trkpt lat="43.22614" lon="5.43801">
        <ele>165.2</ele>
        <time>2022-03-23T08:48:24Z</time>
      </trkpt>
      <trkpt lat="43.22608" lon="5.43803">
        <ele>165.2</ele>
        <time>2022-03-23T08:48:30Z</time>
      </trkpt>
      <trkpt lat="43.22602" lon="5.43804">
        <ele>165.1</ele>
        <time>2022-03-23T08:48:36Z</time>
      </trkpt>
      <trkpt lat="43.22596" lon="5.43805">
        <ele>165.1</ele>
        <time>2022-03-23T08:48:42Z</time>
      </trkpt>
      <trkpt lat="43.2259" lon="5.43806">
        <ele>165</ele>
        <time>2022-03-23T08:48:50Z</time>
      </trkpt>
      <trkpt lat="43.22585" lon="5.43806">
        <ele>164.9</ele>
        <time>2022-03-23T08:48:54Z</time>
      </trkpt>
      <trkpt lat="43.2258" lon="5.43808">
        <ele>164.7</ele>
        <time>2022-03-23T08:49:00Z</time>
      </trkpt>
      <trkpt lat="43.22575" lon="5.43807">
        <ele>164.8</ele>
        <time>2022-03-23T08:49:06Z</time>
      </trkpt>
      <trkpt lat="43.22568" lon="5.43808">
        <ele>164.6</ele>
        <time>2022-03-23T08:49:10Z</time>
      </trkpt>
      <trkpt lat="43.22564" lon="5.43808">
        <ele>164.5</ele>
        <time>2022-03-23T08:49:14Z</time>
      </trkpt>
      <trkpt lat="43.22559" lon="5.43809">
        <ele>164.5</ele>
        <time>2022-03-23T08:49:18Z</time>
      </trkpt>
      <trkpt lat="43.22555" lon="5.43807">
        <ele>164.8</ele>
        <time>2022-03-23T08:49:36Z</time>
      </trkpt>
      <trkpt lat="43.2255" lon="5.43808">
        <ele>164.6</ele>
        <time>2022-03-23T08:49:54Z</time>
      </trkpt>
      <trkpt lat="43.22545" lon="5.43809">
        <ele>164.4</ele>
        <time>2022-03-23T08:50:04Z</time>
      </trkpt>
      <trkpt lat="43.2254" lon="5.4381">
        <ele>164.3</ele>
        <time>2022-03-23T08:50:10Z</time>
      </trkpt>
      <trkpt lat="43.22535" lon="5.4381">
        <ele>164.2</ele>
        <time>2022-03-23T08:50:16Z</time>
      </trkpt>
      <trkpt lat="43.2253" lon="5.43811">
        <ele>164.1</ele>
        <time>2022-03-23T08:50:22Z</time>
      </trkpt>
      <trkpt lat="43.22525" lon="5.43813">
        <ele>163.9</ele>
        <time>2022-03-23T08:50:28Z</time>
      </trkpt>
      <trkpt lat="43.22519" lon="5.43814">
        <ele>163.7</ele>
        <time>2022-03-23T08:50:34Z</time>
      </trkpt>
      <trkpt lat="43.22513" lon="5.43815">
        <ele>163.5</ele>
        <time>2022-03-23T08:50:40Z</time>
      </trkpt>
      <trkpt lat="43.22507" lon="5.43814">
        <ele>163.5</ele>
        <time>2022-03-23T08:50:46Z</time>
      </trkpt>
      <trkpt lat="43.22503" lon="5.43813">
        <ele>163.7</ele>
        <time>2022-03-23T08:50:52Z</time>
      </trkpt>
      <trkpt lat="43.22497" lon="5.43812">
        <ele>163.9</ele>
        <time>2022-03-23T08:50:58Z</time>
      </trkpt>
      <trkpt lat="43.22492" lon="5.43812">
        <ele>164</ele>
        <time>2022-03-23T08:51:04Z</time>
      </trkpt>
      <trkpt lat="43.22487" lon="5.43812">
        <ele>164</ele>
        <time>2022-03-23T08:51:08Z</time>
      </trkpt>
      <trkpt lat="43.22481" lon="5.43812">
        <ele>164</ele>
        <time>2022-03-23T08:51:14Z</time>
      </trkpt>
      <trkpt lat="43.22476" lon="5.43813">
        <ele>163.9</ele>
        <time>2022-03-23T08:51:20Z</time>
      </trkpt>
      <trkpt lat="43.22471" lon="5.43811">
        <ele>164.2</ele>
        <time>2022-03-23T08:51:28Z</time>
      </trkpt>
      <trkpt lat="43.22466" lon="5.4381">
        <ele>164.4</ele>
        <time>2022-03-23T08:51:34Z</time>
      </trkpt>
      <trkpt lat="43.22461" lon="5.4381">
        <ele>164.5</ele>
        <time>2022-03-23T08:51:40Z</time>
      </trkpt>
      <trkpt lat="43.22455" lon="5.43811">
        <ele>164.5</ele>
        <time>2022-03-23T08:51:46Z</time>
      </trkpt>
      <trkpt lat="43.22451" lon="5.43815">
        <ele>164.2</ele>
        <time>2022-03-23T08:51:52Z</time>
      </trkpt>
      <trkpt lat="43.22447" lon="5.43819">
        <ele>164</ele>
        <time>2022-03-23T08:51:58Z</time>
      </trkpt>
      <trkpt lat="43.22443" lon="5.43825">
        <ele>163.7</ele>
        <time>2022-03-23T08:52:04Z</time>
      </trkpt>
      <trkpt lat="43.22439" lon="5.43828">
        <ele>163.7</ele>
        <time>2022-03-23T08:52:08Z</time>
      </trkpt>
      <trkpt lat="43.22435" lon="5.43832">
        <ele>163.5</ele>
        <time>2022-03-23T08:52:12Z</time>
      </trkpt>
      <trkpt lat="43.22431" lon="5.43836">
        <ele>163.6</ele>
        <time>2022-03-23T08:52:18Z</time>
      </trkpt>
      <trkpt lat="43.22425" lon="5.4384">
        <ele>163.8</ele>
        <time>2022-03-23T08:52:24Z</time>
      </trkpt>
      <trkpt lat="43.22421" lon="5.43843">
        <ele>163.9</ele>
        <time>2022-03-23T08:52:28Z</time>
      </trkpt>
      <trkpt lat="43.22417" lon="5.43846">
        <ele>164</ele>
        <time>2022-03-23T08:52:32Z</time>
      </trkpt>
      <trkpt lat="43.22413" lon="5.43848">
        <ele>164.1</ele>
        <time>2022-03-23T08:52:36Z</time>
      </trkpt>
      <trkpt lat="43.22407" lon="5.4385">
        <ele>164.3</ele>
        <time>2022-03-23T08:52:42Z</time>
      </trkpt>
      <trkpt lat="43.22403" lon="5.43853">
        <ele>164.3</ele>
        <time>2022-03-23T08:52:46Z</time>
      </trkpt>
      <trkpt lat="43.22397" lon="5.43856">
        <ele>164.3</ele>
        <time>2022-03-23T08:52:52Z</time>
      </trkpt>
      <trkpt lat="43.22391" lon="5.4386">
        <ele>164.1</ele>
        <time>2022-03-23T08:53:00Z</time>
      </trkpt>
      <trkpt lat="43.22387" lon="5.43863">
        <ele>164.5</ele>
        <time>2022-03-23T08:53:06Z</time>
      </trkpt>
      <trkpt lat="43.22382" lon="5.43865">
        <ele>164.9</ele>
        <time>2022-03-23T08:53:12Z</time>
      </trkpt>
      <trkpt lat="43.22377" lon="5.43869">
        <ele>165.5</ele>
        <time>2022-03-23T08:53:18Z</time>
      </trkpt>
      <trkpt lat="43.22373" lon="5.43873">
        <ele>165.9</ele>
        <time>2022-03-23T08:53:24Z</time>
      </trkpt>
      <trkpt lat="43.22369" lon="5.43876">
        <ele>166</ele>
        <time>2022-03-23T08:53:28Z</time>
      </trkpt>
      <trkpt lat="43.22363" lon="5.43881">
        <ele>166.1</ele>
        <time>2022-03-23T08:53:34Z</time>
      </trkpt>
      <trkpt lat="43.22359" lon="5.43884">
        <ele>166.1</ele>
        <time>2022-03-23T08:53:38Z</time>
      </trkpt>
      <trkpt lat="43.22354" lon="5.43889">
        <ele>166.3</ele>
        <time>2022-03-23T08:53:44Z</time>
      </trkpt>
      <trkpt lat="43.22349" lon="5.43893">
        <ele>166.6</ele>
        <time>2022-03-23T08:53:50Z</time>
      </trkpt>
      <trkpt lat="43.22345" lon="5.43896">
        <ele>166.8</ele>
        <time>2022-03-23T08:53:56Z</time>
      </trkpt>
      <trkpt lat="43.22342" lon="5.43903">
        <ele>166.8</ele>
        <time>2022-03-23T08:54:04Z</time>
      </trkpt>
      <trkpt lat="43.22339" lon="5.43908">
        <ele>166.6</ele>
        <time>2022-03-23T08:54:10Z</time>
      </trkpt>
      <trkpt lat="43.22334" lon="5.43913">
        <ele>166.2</ele>
        <time>2022-03-23T08:54:16Z</time>
      </trkpt>
      <trkpt lat="43.2233" lon="5.43918">
        <ele>166.6</ele>
        <time>2022-03-23T08:54:22Z</time>
      </trkpt>
      <trkpt lat="43.22326" lon="5.43923">
        <ele>167.6</ele>
        <time>2022-03-23T08:54:30Z</time>
      </trkpt>
      <trkpt lat="43.22321" lon="5.43927">
        <ele>168.3</ele>
        <time>2022-03-23T08:54:36Z</time>
      </trkpt>
      <trkpt lat="43.22316" lon="5.43931">
        <ele>168.6</ele>
        <time>2022-03-23T08:54:44Z</time>
      </trkpt>
      <trkpt lat="43.22312" lon="5.43937">
        <ele>168.6</ele>
        <time>2022-03-23T08:54:50Z</time>
      </trkpt>
      <trkpt lat="43.22309" lon="5.43942">
        <ele>168.4</ele>
        <time>2022-03-23T08:54:54Z</time>
      </trkpt>
      <trkpt lat="43.22307" lon="5.43948">
        <ele>168.3</ele>
        <time>2022-03-23T08:54:58Z</time>
      </trkpt>
      <trkpt lat="43.22303" lon="5.43952">
        <ele>168.7</ele>
        <time>2022-03-23T08:55:02Z</time>
      </trkpt>
      <trkpt lat="43.223" lon="5.43956">
        <ele>169.2</ele>
        <time>2022-03-23T08:55:06Z</time>
      </trkpt>
      <trkpt lat="43.22296" lon="5.4396">
        <ele>169.6</ele>
        <time>2022-03-23T08:55:10Z</time>
      </trkpt>
      <trkpt lat="43.2229" lon="5.43965">
        <ele>169.9</ele>
        <time>2022-03-23T08:55:16Z</time>
      </trkpt>
      <trkpt lat="43.22287" lon="5.43969">
        <ele>170</ele>
        <time>2022-03-23T08:55:20Z</time>
      </trkpt>
      <trkpt lat="43.22283" lon="5.43972">
        <ele>170</ele>
        <time>2022-03-23T08:55:24Z</time>
      </trkpt>
      <trkpt lat="43.22278" lon="5.43976">
        <ele>170.3</ele>
        <time>2022-03-23T08:55:28Z</time>
      </trkpt>
      <trkpt lat="43.22274" lon="5.4398">
        <ele>170.7</ele>
        <time>2022-03-23T08:55:32Z</time>
      </trkpt>
      <trkpt lat="43.2227" lon="5.43982">
        <ele>171</ele>
        <time>2022-03-23T08:55:36Z</time>
      </trkpt>
      <trkpt lat="43.22264" lon="5.43985">
        <ele>171.2</ele>
        <time>2022-03-23T08:55:40Z</time>
      </trkpt>
      <trkpt lat="43.22259" lon="5.43987">
        <ele>171.3</ele>
        <time>2022-03-23T08:55:44Z</time>
      </trkpt>
      <trkpt lat="43.22254" lon="5.43989">
        <ele>171.4</ele>
        <time>2022-03-23T08:55:48Z</time>
      </trkpt>
      <trkpt lat="43.22247" lon="5.43991">
        <ele>171.4</ele>
        <time>2022-03-23T08:55:54Z</time>
      </trkpt>
      <trkpt lat="43.22243" lon="5.43993">
        <ele>171.6</ele>
        <time>2022-03-23T08:55:58Z</time>
      </trkpt>
      <trkpt lat="43.22237" lon="5.43995">
        <ele>171.7</ele>
        <time>2022-03-23T08:56:04Z</time>
      </trkpt>
      <trkpt lat="43.22232" lon="5.43997">
        <ele>171.8</ele>
        <time>2022-03-23T08:56:10Z</time>
      </trkpt>
      <trkpt lat="43.22227" lon="5.43998">
        <ele>171.9</ele>
        <time>2022-03-23T08:56:16Z</time>
      </trkpt>
      <trkpt lat="43.22221" lon="5.44">
        <ele>172.1</ele>
        <time>2022-03-23T08:56:22Z</time>
      </trkpt>
      <trkpt lat="43.22215" lon="5.44002">
        <ele>172.5</ele>
        <time>2022-03-23T08:56:28Z</time>
      </trkpt>
      <trkpt lat="43.2221" lon="5.44004">
        <ele>172.8</ele>
        <time>2022-03-23T08:56:34Z</time>
      </trkpt>
      <trkpt lat="43.22204" lon="5.44005">
        <ele>173.1</ele>
        <time>2022-03-23T08:56:38Z</time>
      </trkpt>
      <trkpt lat="43.222" lon="5.44007">
        <ele>173.4</ele>
        <time>2022-03-23T08:56:42Z</time>
      </trkpt>
      <trkpt lat="43.22194" lon="5.44009">
        <ele>173.7</ele>
        <time>2022-03-23T08:56:46Z</time>
      </trkpt>
      <trkpt lat="43.22188" lon="5.44013">
        <ele>174.2</ele>
        <time>2022-03-23T08:56:52Z</time>
      </trkpt>
      <trkpt lat="43.22182" lon="5.44016">
        <ele>174.5</ele>
        <time>2022-03-23T08:56:58Z</time>
      </trkpt>
      <trkpt lat="43.22177" lon="5.44019">
        <ele>174.8</ele>
        <time>2022-03-23T08:57:04Z</time>
      </trkpt>
      <trkpt lat="43.22172" lon="5.44022">
        <ele>174.9</ele>
        <time>2022-03-23T08:57:10Z</time>
      </trkpt>
      <trkpt lat="43.22166" lon="5.44024">
        <ele>175</ele>
        <time>2022-03-23T08:57:16Z</time>
      </trkpt>
      <trkpt lat="43.22161" lon="5.44027">
        <ele>175.2</ele>
        <time>2022-03-23T08:57:22Z</time>
      </trkpt>
      <trkpt lat="43.22157" lon="5.4403">
        <ele>175.5</ele>
        <time>2022-03-23T08:57:28Z</time>
      </trkpt>
      <trkpt lat="43.22152" lon="5.44034">
        <ele>176</ele>
        <time>2022-03-23T08:57:34Z</time>
      </trkpt>
      <trkpt lat="43.22148" lon="5.44039">
        <ele>176.3</ele>
        <time>2022-03-23T08:57:40Z</time>
      </trkpt>
      <trkpt lat="43.22143" lon="5.44042">
        <ele>176.5</ele>
        <time>2022-03-23T08:57:44Z</time>
      </trkpt>
      <trkpt lat="43.22138" lon="5.44047">
        <ele>176.7</ele>
        <time>2022-03-23T08:57:50Z</time>
      </trkpt>
      <trkpt lat="43.22134" lon="5.44051">
        <ele>176.9</ele>
        <time>2022-03-23T08:57:56Z</time>
      </trkpt>
      <trkpt lat="43.22128" lon="5.44054">
        <ele>177</ele>
        <time>2022-03-23T08:58:02Z</time>
      </trkpt>
      <trkpt lat="43.22123" lon="5.44057">
        <ele>177.1</ele>
        <time>2022-03-23T08:58:08Z</time>
      </trkpt>
      <trkpt lat="43.22119" lon="5.44063">
        <ele>177.6</ele>
        <time>2022-03-23T08:58:16Z</time>
      </trkpt>
      <trkpt lat="43.22115" lon="5.44067">
        <ele>177.9</ele>
        <time>2022-03-23T08:58:22Z</time>
      </trkpt>
      <trkpt lat="43.22109" lon="5.44071">
        <ele>178.2</ele>
        <time>2022-03-23T08:58:28Z</time>
      </trkpt>
      <trkpt lat="43.22104" lon="5.44077">
        <ele>178.7</ele>
        <time>2022-03-23T08:58:34Z</time>
      </trkpt>
      <trkpt lat="43.221" lon="5.4408">
        <ele>178.9</ele>
        <time>2022-03-23T08:58:38Z</time>
      </trkpt>
      <trkpt lat="43.22095" lon="5.44084">
        <ele>179.1</ele>
        <time>2022-03-23T08:58:42Z</time>
      </trkpt>
      <trkpt lat="43.22091" lon="5.44089">
        <ele>179.5</ele>
        <time>2022-03-23T08:58:46Z</time>
      </trkpt>
      <trkpt lat="43.22086" lon="5.44095">
        <ele>179.9</ele>
        <time>2022-03-23T08:58:52Z</time>
      </trkpt>
      <trkpt lat="43.22082" lon="5.441">
        <ele>180.2</ele>
        <time>2022-03-23T08:58:56Z</time>
      </trkpt>
      <trkpt lat="43.22079" lon="5.44104">
        <ele>180.7</ele>
        <time>2022-03-23T08:59:00Z</time>
      </trkpt>
      <trkpt lat="43.22074" lon="5.44111">
        <ele>181.3</ele>
        <time>2022-03-23T08:59:06Z</time>
      </trkpt>
      <trkpt lat="43.22071" lon="5.44117">
        <ele>181.8</ele>
        <time>2022-03-23T08:59:12Z</time>
      </trkpt>
      <trkpt lat="43.22068" lon="5.44122">
        <ele>182.1</ele>
        <time>2022-03-23T08:59:16Z</time>
      </trkpt>
      <trkpt lat="43.22066" lon="5.44127">
        <ele>182.3</ele>
        <time>2022-03-23T08:59:20Z</time>
      </trkpt>
      <trkpt lat="43.22062" lon="5.44133">
        <ele>182.3</ele>
        <time>2022-03-23T08:59:26Z</time>
      </trkpt>
      <trkpt lat="43.22059" lon="5.44141">
        <ele>182.4</ele>
        <time>2022-03-23T08:59:32Z</time>
      </trkpt>
      <trkpt lat="43.22057" lon="5.44147">
        <ele>182.5</ele>
        <time>2022-03-23T08:59:40Z</time>
      </trkpt>
      <trkpt lat="43.22055" lon="5.44155">
        <ele>182.6</ele>
        <time>2022-03-23T08:59:48Z</time>
      </trkpt>
      <trkpt lat="43.22054" lon="5.44162">
        <ele>182.9</ele>
        <time>2022-03-23T08:59:56Z</time>
      </trkpt>
      <trkpt lat="43.22052" lon="5.44168">
        <ele>183.3</ele>
        <time>2022-03-23T09:00:40Z</time>
      </trkpt>
      <trkpt lat="43.2205" lon="5.44175">
        <ele>183.9</ele>
        <time>2022-03-23T09:00:50Z</time>
      </trkpt>
      <trkpt lat="43.2205" lon="5.44182">
        <ele>184.4</ele>
        <time>2022-03-23T09:00:54Z</time>
      </trkpt>
      <trkpt lat="43.2205" lon="5.44188">
        <ele>184.8</ele>
        <time>2022-03-23T09:00:58Z</time>
      </trkpt>
      <trkpt lat="43.22049" lon="5.44195">
        <ele>185.2</ele>
        <time>2022-03-23T09:01:04Z</time>
      </trkpt>
      <trkpt lat="43.22046" lon="5.44201">
        <ele>185.7</ele>
        <time>2022-03-23T09:01:12Z</time>
      </trkpt>
      <trkpt lat="43.22044" lon="5.44207">
        <ele>186.1</ele>
        <time>2022-03-23T09:01:18Z</time>
      </trkpt>
      <trkpt lat="43.22042" lon="5.44213">
        <ele>186.5</ele>
        <time>2022-03-23T09:01:24Z</time>
      </trkpt>
      <trkpt lat="43.2204" lon="5.44222">
        <ele>187</ele>
        <time>2022-03-23T09:01:30Z</time>
      </trkpt>
      <trkpt lat="43.22038" lon="5.44229">
        <ele>187.3</ele>
        <time>2022-03-23T09:01:36Z</time>
      </trkpt>
      <trkpt lat="43.22037" lon="5.44237">
        <ele>187.5</ele>
        <time>2022-03-23T09:01:40Z</time>
      </trkpt>
      <trkpt lat="43.22035" lon="5.44244">
        <ele>187.6</ele>
        <time>2022-03-23T09:01:46Z</time>
      </trkpt>
      <trkpt lat="43.22034" lon="5.44251">
        <ele>187.8</ele>
        <time>2022-03-23T09:01:52Z</time>
      </trkpt>
      <trkpt lat="43.22031" lon="5.44258">
        <ele>188</ele>
        <time>2022-03-23T09:01:58Z</time>
      </trkpt>
      <trkpt lat="43.22028" lon="5.44264">
        <ele>188</ele>
        <time>2022-03-23T09:02:04Z</time>
      </trkpt>
      <trkpt lat="43.22024" lon="5.44269">
        <ele>188.6</ele>
        <time>2022-03-23T09:02:10Z</time>
      </trkpt>
      <trkpt lat="43.22022" lon="5.44275">
        <ele>189</ele>
        <time>2022-03-23T09:02:14Z</time>
      </trkpt>
      <trkpt lat="43.22019" lon="5.44281">
        <ele>189.6</ele>
        <time>2022-03-23T09:02:20Z</time>
      </trkpt>
      <trkpt lat="43.22015" lon="5.44285">
        <ele>189.9</ele>
        <time>2022-03-23T09:02:26Z</time>
      </trkpt>
      <trkpt lat="43.22011" lon="5.4429">
        <ele>190.1</ele>
        <time>2022-03-23T09:02:34Z</time>
      </trkpt>
      <trkpt lat="43.22008" lon="5.44296">
        <ele>190.3</ele>
        <time>2022-03-23T09:02:42Z</time>
      </trkpt>
      <trkpt lat="43.22005" lon="5.44302">
        <ele>190.3</ele>
        <time>2022-03-23T09:02:50Z</time>
      </trkpt>
      <trkpt lat="43.22003" lon="5.44308">
        <ele>190.4</ele>
        <time>2022-03-23T09:02:56Z</time>
      </trkpt>
      <trkpt lat="43.21999" lon="5.44314">
        <ele>190.8</ele>
        <time>2022-03-23T09:03:06Z</time>
      </trkpt>
      <trkpt lat="43.21994" lon="5.4432">
        <ele>191.7</ele>
        <time>2022-03-23T09:03:14Z</time>
      </trkpt>
      <trkpt lat="43.21991" lon="5.44325">
        <ele>192.2</ele>
        <time>2022-03-23T09:03:18Z</time>
      </trkpt>
      <trkpt lat="43.21988" lon="5.44333">
        <ele>192.9</ele>
        <time>2022-03-23T09:03:22Z</time>
      </trkpt>
      <trkpt lat="43.21986" lon="5.4434">
        <ele>193.1</ele>
        <time>2022-03-23T09:03:26Z</time>
      </trkpt>
      <trkpt lat="43.21984" lon="5.44345">
        <ele>193.3</ele>
        <time>2022-03-23T09:03:30Z</time>
      </trkpt>
      <trkpt lat="43.21982" lon="5.44352">
        <ele>193.3</ele>
        <time>2022-03-23T09:03:34Z</time>
      </trkpt>
      <trkpt lat="43.2198" lon="5.44358">
        <ele>193.3</ele>
        <time>2022-03-23T09:03:40Z</time>
      </trkpt>
      <trkpt lat="43.21976" lon="5.44365">
        <ele>193.3</ele>
        <time>2022-03-23T09:03:46Z</time>
      </trkpt>
      <trkpt lat="43.21973" lon="5.4437">
        <ele>193.4</ele>
        <time>2022-03-23T09:03:50Z</time>
      </trkpt>
      <trkpt lat="43.21969" lon="5.44375">
        <ele>193.9</ele>
        <time>2022-03-23T09:03:56Z</time>
      </trkpt>
      <trkpt lat="43.21964" lon="5.44381">
        <ele>194.5</ele>
        <time>2022-03-23T09:04:02Z</time>
      </trkpt>
      <trkpt lat="43.2196" lon="5.44387">
        <ele>194.9</ele>
        <time>2022-03-23T09:04:06Z</time>
      </trkpt>
      <trkpt lat="43.21955" lon="5.44394">
        <ele>195.5</ele>
        <time>2022-03-23T09:04:10Z</time>
      </trkpt>
      <trkpt lat="43.21952" lon="5.44399">
        <ele>195.9</ele>
        <time>2022-03-23T09:04:14Z</time>
      </trkpt>
      <trkpt lat="43.21948" lon="5.44405">
        <ele>196.1</ele>
        <time>2022-03-23T09:04:20Z</time>
      </trkpt>
      <trkpt lat="43.21945" lon="5.44411">
        <ele>196</ele>
        <time>2022-03-23T09:04:26Z</time>
      </trkpt>
      <trkpt lat="43.21941" lon="5.44418">
        <ele>196.6</ele>
        <time>2022-03-23T09:04:32Z</time>
      </trkpt>
      <trkpt lat="43.21938" lon="5.44425">
        <ele>197.5</ele>
        <time>2022-03-23T09:04:38Z</time>
      </trkpt>
      <trkpt lat="43.21935" lon="5.4443">
        <ele>198.1</ele>
        <time>2022-03-23T09:04:44Z</time>
      </trkpt>
      <trkpt lat="43.21933" lon="5.44436">
        <ele>198.6</ele>
        <time>2022-03-23T09:04:50Z</time>
      </trkpt>
      <trkpt lat="43.2193" lon="5.44441">
        <ele>198.9</ele>
        <time>2022-03-23T09:04:56Z</time>
      </trkpt>
      <trkpt lat="43.21929" lon="5.44448">
        <ele>199.2</ele>
        <time>2022-03-23T09:05:02Z</time>
      </trkpt>
      <trkpt lat="43.21928" lon="5.44456">
        <ele>199.6</ele>
        <time>2022-03-23T09:05:12Z</time>
      </trkpt>
      <trkpt lat="43.21928" lon="5.44462">
        <ele>199.9</ele>
        <time>2022-03-23T09:05:18Z</time>
      </trkpt>
      <trkpt lat="43.21928" lon="5.44471">
        <ele>200.3</ele>
        <time>2022-03-23T09:05:26Z</time>
      </trkpt>
      <trkpt lat="43.21928" lon="5.44478">
        <ele>200.9</ele>
        <time>2022-03-23T09:05:32Z</time>
      </trkpt>
      <trkpt lat="43.21929" lon="5.44485">
        <ele>201.4</ele>
        <time>2022-03-23T09:05:36Z</time>
      </trkpt>
      <trkpt lat="43.21929" lon="5.44494">
        <ele>202</ele>
        <time>2022-03-23T09:05:40Z</time>
      </trkpt>
      <trkpt lat="43.2193" lon="5.44501">
        <ele>202.6</ele>
        <time>2022-03-23T09:05:44Z</time>
      </trkpt>
      <trkpt lat="43.2193" lon="5.44509">
        <ele>203.1</ele>
        <time>2022-03-23T09:05:48Z</time>
      </trkpt>
      <trkpt lat="43.21929" lon="5.44517">
        <ele>203.7</ele>
        <time>2022-03-23T09:05:52Z</time>
      </trkpt>
      <trkpt lat="43.2193" lon="5.44524">
        <ele>204.2</ele>
        <time>2022-03-23T09:05:56Z</time>
      </trkpt>
      <trkpt lat="43.21931" lon="5.44533">
        <ele>204.9</ele>
        <time>2022-03-23T09:06:02Z</time>
      </trkpt>
      <trkpt lat="43.21931" lon="5.4454">
        <ele>205.4</ele>
        <time>2022-03-23T09:06:08Z</time>
      </trkpt>
      <trkpt lat="43.21929" lon="5.44547">
        <ele>205.8</ele>
        <time>2022-03-23T09:06:18Z</time>
      </trkpt>
      <trkpt lat="43.21927" lon="5.44553">
        <ele>206.2</ele>
        <time>2022-03-23T09:06:24Z</time>
      </trkpt>
      <trkpt lat="43.21924" lon="5.44559">
        <ele>206.4</ele>
        <time>2022-03-23T09:06:28Z</time>
      </trkpt>
      <trkpt lat="43.21922" lon="5.44566">
        <ele>206.6</ele>
        <time>2022-03-23T09:06:32Z</time>
      </trkpt>
      <trkpt lat="43.21918" lon="5.44572">
        <ele>206.7</ele>
        <time>2022-03-23T09:06:36Z</time>
      </trkpt>
      <trkpt lat="43.21916" lon="5.44579">
        <ele>206.9</ele>
        <time>2022-03-23T09:06:40Z</time>
      </trkpt>
      <trkpt lat="43.21912" lon="5.44587">
        <ele>207.6</ele>
        <time>2022-03-23T09:06:46Z</time>
      </trkpt>
      <trkpt lat="43.21908" lon="5.44594">
        <ele>208.3</ele>
        <time>2022-03-23T09:06:52Z</time>
      </trkpt>
      <trkpt lat="43.21905" lon="5.446">
        <ele>209</ele>
        <time>2022-03-23T09:06:56Z</time>
      </trkpt>
      <trkpt lat="43.21901" lon="5.44606">
        <ele>209.6</ele>
        <time>2022-03-23T09:07:02Z</time>
      </trkpt>
      <trkpt lat="43.21898" lon="5.44611">
        <ele>210</ele>
        <time>2022-03-23T09:07:06Z</time>
      </trkpt>
      <trkpt lat="43.21895" lon="5.44616">
        <ele>210.1</ele>
        <time>2022-03-23T09:07:10Z</time>
      </trkpt>
      <trkpt lat="43.21892" lon="5.44622">
        <ele>210.1</ele>
        <time>2022-03-23T09:07:16Z</time>
      </trkpt>
      <trkpt lat="43.2189" lon="5.44628">
        <ele>210</ele>
        <time>2022-03-23T09:07:20Z</time>
      </trkpt>
      <trkpt lat="43.21888" lon="5.44637">
        <ele>210.1</ele>
        <time>2022-03-23T09:07:26Z</time>
      </trkpt>
      <trkpt lat="43.21887" lon="5.44643">
        <ele>210.7</ele>
        <time>2022-03-23T09:07:30Z</time>
      </trkpt>
      <trkpt lat="43.21885" lon="5.44649">
        <ele>211.4</ele>
        <time>2022-03-23T09:07:34Z</time>
      </trkpt>
      <trkpt lat="43.21883" lon="5.44657">
        <ele>212.3</ele>
        <time>2022-03-23T09:07:40Z</time>
      </trkpt>
      <trkpt lat="43.2188" lon="5.44664">
        <ele>212.8</ele>
        <time>2022-03-23T09:07:46Z</time>
      </trkpt>
      <trkpt lat="43.2188" lon="5.44671">
        <ele>213.3</ele>
        <time>2022-03-23T09:07:52Z</time>
      </trkpt>
      <trkpt lat="43.21878" lon="5.44678">
        <ele>213.6</ele>
        <time>2022-03-23T09:07:58Z</time>
      </trkpt>
      <trkpt lat="43.21878" lon="5.44686">
        <ele>214.1</ele>
        <time>2022-03-23T09:08:04Z</time>
      </trkpt>
      <trkpt lat="43.21878" lon="5.44693">
        <ele>214.5</ele>
        <time>2022-03-23T09:08:10Z</time>
      </trkpt>
      <trkpt lat="43.21879" lon="5.44701">
        <ele>215</ele>
        <time>2022-03-23T09:08:40Z</time>
      </trkpt>
      <trkpt lat="43.21879" lon="5.44708">
        <ele>215.3</ele>
        <time>2022-03-23T09:08:44Z</time>
      </trkpt>
      <trkpt lat="43.21881" lon="5.44715">
        <ele>215.6</ele>
        <time>2022-03-23T09:08:50Z</time>
      </trkpt>
      <trkpt lat="43.21884" lon="5.44721">
        <ele>215.9</ele>
        <time>2022-03-23T09:08:58Z</time>
      </trkpt>
      <trkpt lat="43.21888" lon="5.44724">
        <ele>215.9</ele>
        <time>2022-03-23T09:09:38Z</time>
      </trkpt>
      <trkpt lat="43.21894" lon="5.44724">
        <ele>216.4</ele>
        <time>2022-03-23T09:09:46Z</time>
      </trkpt>
      <trkpt lat="43.21899" lon="5.44726">
        <ele>217</ele>
        <time>2022-03-23T09:09:52Z</time>
      </trkpt>
      <trkpt lat="43.21904" lon="5.44728">
        <ele>217.5</ele>
        <time>2022-03-23T09:09:58Z</time>
      </trkpt>
      <trkpt lat="43.21908" lon="5.4473">
        <ele>218</ele>
        <time>2022-03-23T09:10:04Z</time>
      </trkpt>
      <trkpt lat="43.21914" lon="5.44731">
        <ele>218.6</ele>
        <time>2022-03-23T09:10:10Z</time>
      </trkpt>
      <trkpt lat="43.21918" lon="5.44733">
        <ele>219.1</ele>
        <time>2022-03-23T09:10:16Z</time>
      </trkpt>
      <trkpt lat="43.21923" lon="5.44735">
        <ele>219.6</ele>
        <time>2022-03-23T09:10:22Z</time>
      </trkpt>
      <trkpt lat="43.21928" lon="5.44736">
        <ele>220</ele>
        <time>2022-03-23T09:10:28Z</time>
      </trkpt>
      <trkpt lat="43.21932" lon="5.44739">
        <ele>220.5</ele>
        <time>2022-03-23T09:10:34Z</time>
      </trkpt>
      <trkpt lat="43.21937" lon="5.44741">
        <ele>221</ele>
        <time>2022-03-23T09:10:40Z</time>
      </trkpt>
      <trkpt lat="43.21942" lon="5.44743">
        <ele>221.5</ele>
        <time>2022-03-23T09:10:46Z</time>
      </trkpt>
      <trkpt lat="43.21947" lon="5.44745">
        <ele>222</ele>
        <time>2022-03-23T09:10:52Z</time>
      </trkpt>
      <trkpt lat="43.21953" lon="5.44749">
        <ele>222.5</ele>
        <time>2022-03-23T09:11:00Z</time>
      </trkpt>
      <trkpt lat="43.21958" lon="5.44752">
        <ele>223.3</ele>
        <time>2022-03-23T09:11:06Z</time>
      </trkpt>
      <trkpt lat="43.21963" lon="5.44755">
        <ele>224.3</ele>
        <time>2022-03-23T09:11:12Z</time>
      </trkpt>
      <trkpt lat="43.21968" lon="5.44759">
        <ele>225.3</ele>
        <time>2022-03-23T09:11:18Z</time>
      </trkpt>
      <trkpt lat="43.21972" lon="5.44763">
        <ele>226.3</ele>
        <time>2022-03-23T09:11:24Z</time>
      </trkpt>
      <trkpt lat="43.21976" lon="5.44767">
        <ele>226.9</ele>
        <time>2022-03-23T09:11:30Z</time>
      </trkpt>
      <trkpt lat="43.2198" lon="5.44771">
        <ele>227.5</ele>
        <time>2022-03-23T09:11:36Z</time>
      </trkpt>
      <trkpt lat="43.21984" lon="5.44776">
        <ele>228.2</ele>
        <time>2022-03-23T09:11:42Z</time>
      </trkpt>
      <trkpt lat="43.21989" lon="5.4478">
        <ele>228.9</ele>
        <time>2022-03-23T09:11:48Z</time>
      </trkpt>
      <trkpt lat="43.21993" lon="5.44783">
        <ele>229.6</ele>
        <time>2022-03-23T09:11:54Z</time>
      </trkpt>
      <trkpt lat="43.21998" lon="5.44785">
        <ele>230</ele>
        <time>2022-03-23T09:12:00Z</time>
      </trkpt>
      <trkpt lat="43.22004" lon="5.44787">
        <ele>230.4</ele>
        <time>2022-03-23T09:12:06Z</time>
      </trkpt>
      <trkpt lat="43.2201" lon="5.4479">
        <ele>230.7</ele>
        <time>2022-03-23T09:12:12Z</time>
      </trkpt>
      <trkpt lat="43.22014" lon="5.44793">
        <ele>231</ele>
        <time>2022-03-23T09:12:16Z</time>
      </trkpt>
      <trkpt lat="43.2202" lon="5.44796">
        <ele>231.5</ele>
        <time>2022-03-23T09:12:22Z</time>
      </trkpt>
      <trkpt lat="43.22024" lon="5.44801">
        <ele>232.2</ele>
        <time>2022-03-23T09:12:28Z</time>
      </trkpt>
      <trkpt lat="43.22029" lon="5.44805">
        <ele>233.1</ele>
        <time>2022-03-23T09:12:34Z</time>
      </trkpt>
      <trkpt lat="43.22033" lon="5.44809">
        <ele>234.4</ele>
        <time>2022-03-23T09:12:40Z</time>
      </trkpt>
      <trkpt lat="43.22039" lon="5.44811">
        <ele>235.3</ele>
        <time>2022-03-23T09:12:46Z</time>
      </trkpt>
      <trkpt lat="43.22044" lon="5.4481">
        <ele>235.2</ele>
        <time>2022-03-23T09:12:52Z</time>
      </trkpt>
      <trkpt lat="43.2205" lon="5.44806">
        <ele>234.6</ele>
        <time>2022-03-23T09:12:58Z</time>
      </trkpt>
      <trkpt lat="43.22055" lon="5.44801">
        <ele>234</ele>
        <time>2022-03-23T09:13:04Z</time>
      </trkpt>
      <trkpt lat="43.22059" lon="5.44795">
        <ele>233.8</ele>
        <time>2022-03-23T09:13:10Z</time>
      </trkpt>
      <trkpt lat="43.22064" lon="5.44789">
        <ele>233.7</ele>
        <time>2022-03-23T09:13:16Z</time>
      </trkpt>
      <trkpt lat="43.22069" lon="5.44785">
        <ele>233.7</ele>
        <time>2022-03-23T09:13:22Z</time>
      </trkpt>
      <trkpt lat="43.22074" lon="5.44781">
        <ele>234</ele>
        <time>2022-03-23T09:13:28Z</time>
      </trkpt>
      <trkpt lat="43.2208" lon="5.4478">
        <ele>234.9</ele>
        <time>2022-03-23T09:13:34Z</time>
      </trkpt>
      <trkpt lat="43.22086" lon="5.44779">
        <ele>235.5</ele>
        <time>2022-03-23T09:13:40Z</time>
      </trkpt>
      <trkpt lat="43.22092" lon="5.44777">
        <ele>235.5</ele>
        <time>2022-03-23T09:13:46Z</time>
      </trkpt>
      <trkpt lat="43.22098" lon="5.44776">
        <ele>235.9</ele>
        <time>2022-03-23T09:13:52Z</time>
      </trkpt>
      <trkpt lat="43.22104" lon="5.44776">
        <ele>236.3</ele>
        <time>2022-03-23T09:13:58Z</time>
      </trkpt>
      <trkpt lat="43.2211" lon="5.44776">
        <ele>236.7</ele>
        <time>2022-03-23T09:14:04Z</time>
      </trkpt>
      <trkpt lat="43.22116" lon="5.44777">
        <ele>237.5</ele>
        <time>2022-03-23T09:14:10Z</time>
      </trkpt>
      <trkpt lat="43.22122" lon="5.44777">
        <ele>238.1</ele>
        <time>2022-03-23T09:14:16Z</time>
      </trkpt>
      <trkpt lat="43.22126" lon="5.44773">
        <ele>238.2</ele>
        <time>2022-03-23T09:14:20Z</time>
      </trkpt>
      <trkpt lat="43.22129" lon="5.44769">
        <ele>238.2</ele>
        <time>2022-03-23T09:14:24Z</time>
      </trkpt>
      <trkpt lat="43.22132" lon="5.44763">
        <ele>238.1</ele>
        <time>2022-03-23T09:14:28Z</time>
      </trkpt>
      <trkpt lat="43.22135" lon="5.44757">
        <ele>237.9</ele>
        <time>2022-03-23T09:14:32Z</time>
      </trkpt>
      <trkpt lat="43.22139" lon="5.44751">
        <ele>238.1</ele>
        <time>2022-03-23T09:14:38Z</time>
      </trkpt>
      <trkpt lat="43.22144" lon="5.44746">
        <ele>238.4</ele>
        <time>2022-03-23T09:14:44Z</time>
      </trkpt>
      <trkpt lat="43.2215" lon="5.44741">
        <ele>238.8</ele>
        <time>2022-03-23T09:14:50Z</time>
      </trkpt>
      <trkpt lat="43.22155" lon="5.44735">
        <ele>239.2</ele>
        <time>2022-03-23T09:14:56Z</time>
      </trkpt>
      <trkpt lat="43.2216" lon="5.4473">
        <ele>239.6</ele>
        <time>2022-03-23T09:15:02Z</time>
      </trkpt>
      <trkpt lat="43.22166" lon="5.4473">
        <ele>240.2</ele>
        <time>2022-03-23T09:15:08Z</time>
      </trkpt>
      <trkpt lat="43.22172" lon="5.44734">
        <ele>240.7</ele>
        <time>2022-03-23T09:15:14Z</time>
      </trkpt>
      <trkpt lat="43.22177" lon="5.44739">
        <ele>241.2</ele>
        <time>2022-03-23T09:15:20Z</time>
      </trkpt>
      <trkpt lat="43.22182" lon="5.44744">
        <ele>241.8</ele>
        <time>2022-03-23T09:15:26Z</time>
      </trkpt>
      <trkpt lat="43.22187" lon="5.44748">
        <ele>242.3</ele>
        <time>2022-03-23T09:15:32Z</time>
      </trkpt>
      <trkpt lat="43.22191" lon="5.4475">
        <ele>242.8</ele>
        <time>2022-03-23T09:15:36Z</time>
      </trkpt>
      <trkpt lat="43.22196" lon="5.44753">
        <ele>243.1</ele>
        <time>2022-03-23T09:15:40Z</time>
      </trkpt>
      <trkpt lat="43.222" lon="5.44755">
        <ele>243.2</ele>
        <time>2022-03-23T09:15:46Z</time>
      </trkpt>
      <trkpt lat="43.22206" lon="5.44757">
        <ele>243.2</ele>
        <time>2022-03-23T09:15:52Z</time>
      </trkpt>
      <trkpt lat="43.22211" lon="5.4476">
        <ele>243.3</ele>
        <time>2022-03-23T09:15:56Z</time>
      </trkpt>
      <trkpt lat="43.22216" lon="5.44763">
        <ele>243.6</ele>
        <time>2022-03-23T09:16:00Z</time>
      </trkpt>
      <trkpt lat="43.22221" lon="5.44767">
        <ele>243.9</ele>
        <time>2022-03-23T09:16:04Z</time>
      </trkpt>
      <trkpt lat="43.22226" lon="5.4477">
        <ele>244</ele>
        <time>2022-03-23T09:16:08Z</time>
      </trkpt>
      <trkpt lat="43.22231" lon="5.44772">
        <ele>244.1</ele>
        <time>2022-03-23T09:16:12Z</time>
      </trkpt>
      <trkpt lat="43.22236" lon="5.44775">
        <ele>244.2</ele>
        <time>2022-03-23T09:16:18Z</time>
      </trkpt>
      <trkpt lat="43.22238" lon="5.4478">
        <ele>244.9</ele>
        <time>2022-03-23T09:16:26Z</time>
      </trkpt>
      <trkpt lat="43.22234" lon="5.44785">
        <ele>245.8</ele>
        <time>2022-03-23T09:16:34Z</time>
      </trkpt>
      <trkpt lat="43.22228" lon="5.44786">
        <ele>246.4</ele>
        <time>2022-03-23T09:16:42Z</time>
      </trkpt>
      <trkpt lat="43.22223" lon="5.44787">
        <ele>246.6</ele>
        <time>2022-03-23T09:16:48Z</time>
      </trkpt>
      <trkpt lat="43.22217" lon="5.44789">
        <ele>246.9</ele>
        <time>2022-03-23T09:16:54Z</time>
      </trkpt>
      <trkpt lat="43.22211" lon="5.44793">
        <ele>247.5</ele>
        <time>2022-03-23T09:17:00Z</time>
      </trkpt>
      <trkpt lat="43.22207" lon="5.44796">
        <ele>248</ele>
        <time>2022-03-23T09:17:06Z</time>
      </trkpt>
      <trkpt lat="43.22202" lon="5.44802">
        <ele>248.7</ele>
        <time>2022-03-23T09:17:12Z</time>
      </trkpt>
      <trkpt lat="43.22198" lon="5.44806">
        <ele>249.3</ele>
        <time>2022-03-23T09:17:16Z</time>
      </trkpt>
      <trkpt lat="43.22194" lon="5.44812">
        <ele>250.6</ele>
        <time>2022-03-23T09:17:22Z</time>
      </trkpt>
      <trkpt lat="43.22189" lon="5.44819">
        <ele>251.7</ele>
        <time>2022-03-23T09:17:28Z</time>
      </trkpt>
      <trkpt lat="43.22186" lon="5.44824">
        <ele>252.3</ele>
        <time>2022-03-23T09:17:32Z</time>
      </trkpt>
      <trkpt lat="43.22182" lon="5.44829">
        <ele>252.9</ele>
        <time>2022-03-23T09:17:38Z</time>
      </trkpt>
      <trkpt lat="43.2218" lon="5.44836">
        <ele>253.7</ele>
        <time>2022-03-23T09:17:44Z</time>
      </trkpt>
      <trkpt lat="43.22179" lon="5.44842">
        <ele>254.7</ele>
        <time>2022-03-23T09:17:50Z</time>
      </trkpt>
      <trkpt lat="43.22177" lon="5.44848">
        <ele>255.4</ele>
        <time>2022-03-23T09:17:58Z</time>
      </trkpt>
      <trkpt lat="43.22176" lon="5.44855">
        <ele>256.3</ele>
        <time>2022-03-23T09:18:06Z</time>
      </trkpt>
      <trkpt lat="43.22175" lon="5.44862">
        <ele>257.2</ele>
        <time>2022-03-23T09:18:12Z</time>
      </trkpt>
      <trkpt lat="43.22173" lon="5.44869">
        <ele>257.9</ele>
        <time>2022-03-23T09:18:20Z</time>
      </trkpt>
      <trkpt lat="43.22171" lon="5.44876">
        <ele>258.6</ele>
        <time>2022-03-23T09:18:26Z</time>
      </trkpt>
      <trkpt lat="43.22167" lon="5.44883">
        <ele>259</ele>
        <time>2022-03-23T09:18:32Z</time>
      </trkpt>
      <trkpt lat="43.22163" lon="5.44886">
        <ele>260.2</ele>
        <time>2022-03-23T09:18:38Z</time>
      </trkpt>
      <trkpt lat="43.22158" lon="5.44888">
        <ele>261.6</ele>
        <time>2022-03-23T09:18:44Z</time>
      </trkpt>
      <trkpt lat="43.22153" lon="5.44888">
        <ele>262.6</ele>
        <time>2022-03-23T09:18:50Z</time>
      </trkpt>
      <trkpt lat="43.22149" lon="5.44884">
        <ele>262.7</ele>
        <time>2022-03-23T09:18:56Z</time>
      </trkpt>
      <trkpt lat="43.22143" lon="5.44881">
        <ele>262.9</ele>
        <time>2022-03-23T09:19:02Z</time>
      </trkpt>
      <trkpt lat="43.22138" lon="5.44879">
        <ele>263.1</ele>
        <time>2022-03-23T09:19:08Z</time>
      </trkpt>
      <trkpt lat="43.22132" lon="5.44877">
        <ele>263.3</ele>
        <time>2022-03-23T09:19:14Z</time>
      </trkpt>
      <trkpt lat="43.22126" lon="5.44876">
        <ele>263.5</ele>
        <time>2022-03-23T09:19:20Z</time>
      </trkpt>
      <trkpt lat="43.22121" lon="5.44876">
        <ele>264</ele>
        <time>2022-03-23T09:19:26Z</time>
      </trkpt>
      <trkpt lat="43.22116" lon="5.44877">
        <ele>264.8</ele>
        <time>2022-03-23T09:19:32Z</time>
      </trkpt>
      <trkpt lat="43.2211" lon="5.44878">
        <ele>265.7</ele>
        <time>2022-03-23T09:19:38Z</time>
      </trkpt>
      <trkpt lat="43.22106" lon="5.4488">
        <ele>265.6</ele>
        <time>2022-03-23T09:19:44Z</time>
      </trkpt>
      <trkpt lat="43.221" lon="5.44884">
        <ele>266.3</ele>
        <time>2022-03-23T09:19:52Z</time>
      </trkpt>
      <trkpt lat="43.22097" lon="5.44889">
        <ele>267.7</ele>
        <time>2022-03-23T09:20:00Z</time>
      </trkpt>
      <trkpt lat="43.22092" lon="5.44892">
        <ele>268</ele>
        <time>2022-03-23T09:20:06Z</time>
      </trkpt>
      <trkpt lat="43.22087" lon="5.44896">
        <ele>268.5</ele>
        <time>2022-03-23T09:20:12Z</time>
      </trkpt>
      <trkpt lat="43.22082" lon="5.449">
        <ele>269.1</ele>
        <time>2022-03-23T09:20:18Z</time>
      </trkpt>
      <trkpt lat="43.22077" lon="5.44904">
        <ele>269.3</ele>
        <time>2022-03-23T09:20:24Z</time>
      </trkpt>
      <trkpt lat="43.22073" lon="5.4491">
        <ele>270.4</ele>
        <time>2022-03-23T09:20:30Z</time>
      </trkpt>
      <trkpt lat="43.22069" lon="5.44915">
        <ele>271.7</ele>
        <time>2022-03-23T09:20:38Z</time>
      </trkpt>
      <trkpt lat="43.22065" lon="5.4492">
        <ele>273</ele>
        <time>2022-03-23T09:20:46Z</time>
      </trkpt>
      <trkpt lat="43.2206" lon="5.44924">
        <ele>274.2</ele>
        <time>2022-03-23T09:20:54Z</time>
      </trkpt>
      <trkpt lat="43.22055" lon="5.44926">
        <ele>274.1</ele>
        <time>2022-03-23T09:20:58Z</time>
      </trkpt>
      <trkpt lat="43.22049" lon="5.44927">
        <ele>275.6</ele>
        <time>2022-03-23T09:21:04Z</time>
      </trkpt>
      <trkpt lat="43.22044" lon="5.44926">
        <ele>275.6</ele>
        <time>2022-03-23T09:21:08Z</time>
      </trkpt>
      <trkpt lat="43.22038" lon="5.44924">
        <ele>275.6</ele>
        <time>2022-03-23T09:21:14Z</time>
      </trkpt>
      <trkpt lat="43.22033" lon="5.44922">
        <ele>275.5</ele>
        <time>2022-03-23T09:21:20Z</time>
      </trkpt>
      <trkpt lat="43.22028" lon="5.44921">
        <ele>275.6</ele>
        <time>2022-03-23T09:21:26Z</time>
      </trkpt>
      <trkpt lat="43.22023" lon="5.44919">
        <ele>275.7</ele>
        <time>2022-03-23T09:21:32Z</time>
      </trkpt>
      <trkpt lat="43.22018" lon="5.44917">
        <ele>275.5</ele>
        <time>2022-03-23T09:21:38Z</time>
      </trkpt>
      <trkpt lat="43.22012" lon="5.44916">
        <ele>275.9</ele>
        <time>2022-03-23T09:21:44Z</time>
      </trkpt>
      <trkpt lat="43.22007" lon="5.44915">
        <ele>276.4</ele>
        <time>2022-03-23T09:21:50Z</time>
      </trkpt>
      <trkpt lat="43.22002" lon="5.44915">
        <ele>276.8</ele>
        <time>2022-03-23T09:21:56Z</time>
      </trkpt>
      <trkpt lat="43.21997" lon="5.44916">
        <ele>276.2</ele>
        <time>2022-03-23T09:22:04Z</time>
      </trkpt>
      <trkpt lat="43.21992" lon="5.44918">
        <ele>274.4</ele>
        <time>2022-03-23T09:22:10Z</time>
      </trkpt>
      <trkpt lat="43.21988" lon="5.44924">
        <ele>274.4</ele>
        <time>2022-03-23T09:22:18Z</time>
      </trkpt>
      <trkpt lat="43.21986" lon="5.44931">
        <ele>275.6</ele>
        <time>2022-03-23T09:22:24Z</time>
      </trkpt>
      <trkpt lat="43.21985" lon="5.44938">
        <ele>277.3</ele>
        <time>2022-03-23T09:22:30Z</time>
      </trkpt>
      <trkpt lat="43.21986" lon="5.44945">
        <ele>279.5</ele>
        <time>2022-03-23T09:22:36Z</time>
      </trkpt>
      <trkpt lat="43.21986" lon="5.44953">
        <ele>281.8</ele>
        <time>2022-03-23T09:22:42Z</time>
      </trkpt>
      <trkpt lat="43.21985" lon="5.44961">
        <ele>283.5</ele>
        <time>2022-03-23T09:22:50Z</time>
      </trkpt>
      <trkpt lat="43.21982" lon="5.44967">
        <ele>283.8</ele>
        <time>2022-03-23T09:22:56Z</time>
      </trkpt>
      <trkpt lat="43.21979" lon="5.44973">
        <ele>284.3</ele>
        <time>2022-03-23T09:23:02Z</time>
      </trkpt>
      <trkpt lat="43.21974" lon="5.44975">
        <ele>283.1</ele>
        <time>2022-03-23T09:23:08Z</time>
      </trkpt>
      <trkpt lat="43.21969" lon="5.44975">
        <ele>282.3</ele>
        <time>2022-03-23T09:23:14Z</time>
      </trkpt>
      <trkpt lat="43.21963" lon="5.44973">
        <ele>281.5</ele>
        <time>2022-03-23T09:23:20Z</time>
      </trkpt>
      <trkpt lat="43.21958" lon="5.44973">
        <ele>281.7</ele>
        <time>2022-03-23T09:23:26Z</time>
      </trkpt>
      <trkpt lat="43.21953" lon="5.44972">
        <ele>281.8</ele>
        <time>2022-03-23T09:23:32Z</time>
      </trkpt>
      <trkpt lat="43.21948" lon="5.44973">
        <ele>281.9</ele>
        <time>2022-03-23T09:23:38Z</time>
      </trkpt>
      <trkpt lat="43.21944" lon="5.44976">
        <ele>282.7</ele>
        <time>2022-03-23T09:23:46Z</time>
      </trkpt>
      <trkpt lat="43.21941" lon="5.44984">
        <ele>283</ele>
        <time>2022-03-23T09:23:54Z</time>
      </trkpt>
      <trkpt lat="43.2194" lon="5.44992">
        <ele>283.8</ele>
        <time>2022-03-23T09:24:00Z</time>
      </trkpt>
      <trkpt lat="43.2194" lon="5.45">
        <ele>285</ele>
        <time>2022-03-23T09:24:06Z</time>
      </trkpt>
      <trkpt lat="43.2194" lon="5.45007">
        <ele>285.5</ele>
        <time>2022-03-23T09:24:12Z</time>
      </trkpt>
      <trkpt lat="43.21942" lon="5.45015">
        <ele>286.5</ele>
        <time>2022-03-23T09:24:24Z</time>
      </trkpt>
      <trkpt lat="43.21943" lon="5.45021">
        <ele>287.3</ele>
        <time>2022-03-23T09:24:30Z</time>
      </trkpt>
      <trkpt lat="43.21945" lon="5.45027">
        <ele>288.3</ele>
        <time>2022-03-23T09:24:36Z</time>
      </trkpt>
      <trkpt lat="43.21947" lon="5.45034">
        <ele>290.1</ele>
        <time>2022-03-23T09:24:42Z</time>
      </trkpt>
      <trkpt lat="43.21949" lon="5.45041">
        <ele>291.5</ele>
        <time>2022-03-23T09:24:48Z</time>
      </trkpt>
      <trkpt lat="43.21946" lon="5.45047">
        <ele>291.6</ele>
        <time>2022-03-23T09:24:54Z</time>
      </trkpt>
      <trkpt lat="43.21945" lon="5.45053">
        <ele>291.8</ele>
        <time>2022-03-23T09:25:00Z</time>
      </trkpt>
      <trkpt lat="43.21943" lon="5.4506">
        <ele>292.5</ele>
        <time>2022-03-23T09:25:06Z</time>
      </trkpt>
      <trkpt lat="43.2194" lon="5.45066">
        <ele>293</ele>
        <time>2022-03-23T09:25:12Z</time>
      </trkpt>
      <trkpt lat="43.21938" lon="5.45071">
        <ele>293.8</ele>
        <time>2022-03-23T09:25:18Z</time>
      </trkpt>
      <trkpt lat="43.21934" lon="5.45077">
        <ele>294.1</ele>
        <time>2022-03-23T09:25:24Z</time>
      </trkpt>
      <trkpt lat="43.2193" lon="5.45081">
        <ele>294.2</ele>
        <time>2022-03-23T09:25:30Z</time>
      </trkpt>
      <trkpt lat="43.21926" lon="5.45086">
        <ele>294.2</ele>
        <time>2022-03-23T09:25:36Z</time>
      </trkpt>
      <trkpt lat="43.21922" lon="5.45091">
        <ele>294.6</ele>
        <time>2022-03-23T09:25:44Z</time>
      </trkpt>
      <trkpt lat="43.21918" lon="5.45095">
        <ele>294.4</ele>
        <time>2022-03-23T09:25:50Z</time>
      </trkpt>
      <trkpt lat="43.21914" lon="5.45098">
        <ele>295.2</ele>
        <time>2022-03-23T09:25:56Z</time>
      </trkpt>
      <trkpt lat="43.21909" lon="5.45101">
        <ele>296.1</ele>
        <time>2022-03-23T09:26:02Z</time>
      </trkpt>
      <trkpt lat="43.21904" lon="5.45105">
        <ele>297.4</ele>
        <time>2022-03-23T09:26:10Z</time>
      </trkpt>
      <trkpt lat="43.21899" lon="5.45109">
        <ele>298.8</ele>
        <time>2022-03-23T09:26:16Z</time>
      </trkpt>
      <trkpt lat="43.21895" lon="5.45113">
        <ele>299.5</ele>
        <time>2022-03-23T09:26:24Z</time>
      </trkpt>
      <trkpt lat="43.21891" lon="5.45118">
        <ele>300.1</ele>
        <time>2022-03-23T09:26:30Z</time>
      </trkpt>
      <trkpt lat="43.21887" lon="5.45122">
        <ele>300.4</ele>
        <time>2022-03-23T09:26:38Z</time>
      </trkpt>
      <trkpt lat="43.21884" lon="5.45127">
        <ele>300.9</ele>
        <time>2022-03-23T09:26:44Z</time>
      </trkpt>
      <trkpt lat="43.21881" lon="5.45132">
        <ele>301.5</ele>
        <time>2022-03-23T09:26:50Z</time>
      </trkpt>
      <trkpt lat="43.21878" lon="5.45138">
        <ele>302.2</ele>
        <time>2022-03-23T09:26:56Z</time>
      </trkpt>
      <trkpt lat="43.21876" lon="5.45144">
        <ele>302.7</ele>
        <time>2022-03-23T09:27:04Z</time>
      </trkpt>
      <trkpt lat="43.21874" lon="5.45152">
        <ele>303.6</ele>
        <time>2022-03-23T09:27:10Z</time>
      </trkpt>
      <trkpt lat="43.21873" lon="5.45159">
        <ele>304.4</ele>
        <time>2022-03-23T09:27:16Z</time>
      </trkpt>
      <trkpt lat="43.21871" lon="5.45167">
        <ele>305.2</ele>
        <time>2022-03-23T09:27:22Z</time>
      </trkpt>
      <trkpt lat="43.2187" lon="5.45175">
        <ele>305.7</ele>
        <time>2022-03-23T09:27:28Z</time>
      </trkpt>
      <trkpt lat="43.21869" lon="5.45181">
        <ele>306.3</ele>
        <time>2022-03-23T09:27:34Z</time>
      </trkpt>
      <trkpt lat="43.21867" lon="5.45188">
        <ele>306.9</ele>
        <time>2022-03-23T09:27:40Z</time>
      </trkpt>
      <trkpt lat="43.21866" lon="5.45196">
        <ele>307.4</ele>
        <time>2022-03-23T09:27:46Z</time>
      </trkpt>
      <trkpt lat="43.21868" lon="5.45202">
        <ele>307.7</ele>
        <time>2022-03-23T09:27:52Z</time>
      </trkpt>
      <trkpt lat="43.21871" lon="5.45208">
        <ele>308.2</ele>
        <time>2022-03-23T09:28:00Z</time>
      </trkpt>
      <trkpt lat="43.21875" lon="5.45211">
        <ele>308.6</ele>
        <time>2022-03-23T09:28:08Z</time>
      </trkpt>
      <trkpt lat="43.21879" lon="5.45212">
        <ele>309</ele>
        <time>2022-03-23T09:29:42Z</time>
      </trkpt>
      <trkpt lat="43.21885" lon="5.45213">
        <ele>309.4</ele>
        <time>2022-03-23T09:29:48Z</time>
      </trkpt>
      <trkpt lat="43.2189" lon="5.45212">
        <ele>309.8</ele>
        <time>2022-03-23T09:29:54Z</time>
      </trkpt>
      <trkpt lat="43.21896" lon="5.45209">
        <ele>310.3</ele>
        <time>2022-03-23T09:30:00Z</time>
      </trkpt>
      <trkpt lat="43.219" lon="5.45207">
        <ele>310.7</ele>
        <time>2022-03-23T09:30:06Z</time>
      </trkpt>
      <trkpt lat="43.21904" lon="5.45204">
        <ele>311</ele>
        <time>2022-03-23T09:30:10Z</time>
      </trkpt>
      <trkpt lat="43.21908" lon="5.452">
        <ele>311.3</ele>
        <time>2022-03-23T09:30:14Z</time>
      </trkpt>
      <trkpt lat="43.21914" lon="5.45196">
        <ele>311.7</ele>
        <time>2022-03-23T09:30:20Z</time>
      </trkpt>
      <trkpt lat="43.21919" lon="5.45192">
        <ele>312.1</ele>
        <time>2022-03-23T09:30:26Z</time>
      </trkpt>
      <trkpt lat="43.21925" lon="5.45189">
        <ele>312.5</ele>
        <time>2022-03-23T09:30:32Z</time>
      </trkpt>
      <trkpt lat="43.21931" lon="5.45186">
        <ele>312.9</ele>
        <time>2022-03-23T09:30:38Z</time>
      </trkpt>
      <trkpt lat="43.21936" lon="5.45183">
        <ele>313.3</ele>
        <time>2022-03-23T09:30:44Z</time>
      </trkpt>
      <trkpt lat="43.21942" lon="5.45181">
        <ele>313.8</ele>
        <time>2022-03-23T09:30:50Z</time>
      </trkpt>
      <trkpt lat="43.21947" lon="5.45178">
        <ele>314.4</ele>
        <time>2022-03-23T09:30:56Z</time>
      </trkpt>
      <trkpt lat="43.21951" lon="5.45174">
        <ele>315.3</ele>
        <time>2022-03-23T09:31:02Z</time>
      </trkpt>
      <trkpt lat="43.21956" lon="5.45169">
        <ele>316.2</ele>
        <time>2022-03-23T09:31:08Z</time>
      </trkpt>
      <trkpt lat="43.21961" lon="5.45165">
        <ele>316.9</ele>
        <time>2022-03-23T09:31:14Z</time>
      </trkpt>
      <trkpt lat="43.21966" lon="5.4516">
        <ele>317.6</ele>
        <time>2022-03-23T09:31:20Z</time>
      </trkpt>
      <trkpt lat="43.2197" lon="5.45158">
        <ele>318.3</ele>
        <time>2022-03-23T09:31:26Z</time>
      </trkpt>
      <trkpt lat="43.21975" lon="5.45156">
        <ele>318.8</ele>
        <time>2022-03-23T09:31:32Z</time>
      </trkpt>
      <trkpt lat="43.21979" lon="5.45154">
        <ele>319.3</ele>
        <time>2022-03-23T09:31:38Z</time>
      </trkpt>
      <trkpt lat="43.21984" lon="5.45153">
        <ele>319.9</ele>
        <time>2022-03-23T09:31:44Z</time>
      </trkpt>
      <trkpt lat="43.21989" lon="5.45151">
        <ele>320.4</ele>
        <time>2022-03-23T09:31:50Z</time>
      </trkpt>
      <trkpt lat="43.21994" lon="5.4515">
        <ele>321</ele>
        <time>2022-03-23T09:31:56Z</time>
      </trkpt>
      <trkpt lat="43.21999" lon="5.45148">
        <ele>321.3</ele>
        <time>2022-03-23T09:32:02Z</time>
      </trkpt>
      <trkpt lat="43.22004" lon="5.45145">
        <ele>322.2</ele>
        <time>2022-03-23T09:32:08Z</time>
      </trkpt>
      <trkpt lat="43.22009" lon="5.45143">
        <ele>323.1</ele>
        <time>2022-03-23T09:32:14Z</time>
      </trkpt>
      <trkpt lat="43.22014" lon="5.45139">
        <ele>323.5</ele>
        <time>2022-03-23T09:32:20Z</time>
      </trkpt>
      <trkpt lat="43.22019" lon="5.45136">
        <ele>324.2</ele>
        <time>2022-03-23T09:32:26Z</time>
      </trkpt>
      <trkpt lat="43.22024" lon="5.45134">
        <ele>324.9</ele>
        <time>2022-03-23T09:32:32Z</time>
      </trkpt>
      <trkpt lat="43.22029" lon="5.45132">
        <ele>325.6</ele>
        <time>2022-03-23T09:32:38Z</time>
      </trkpt>
      <trkpt lat="43.22035" lon="5.4513">
        <ele>326</ele>
        <time>2022-03-23T09:32:44Z</time>
      </trkpt>
      <trkpt lat="43.2204" lon="5.45129">
        <ele>326.7</ele>
        <time>2022-03-23T09:32:50Z</time>
      </trkpt>
      <trkpt lat="43.22045" lon="5.45128">
        <ele>327.2</ele>
        <time>2022-03-23T09:32:56Z</time>
      </trkpt>
      <trkpt lat="43.22051" lon="5.45127">
        <ele>328</ele>
        <time>2022-03-23T09:33:02Z</time>
      </trkpt>
      <trkpt lat="43.22055" lon="5.45125">
        <ele>328.5</ele>
        <time>2022-03-23T09:33:08Z</time>
      </trkpt>
      <trkpt lat="43.2206" lon="5.45123">
        <ele>329.1</ele>
        <time>2022-03-23T09:33:14Z</time>
      </trkpt>
      <trkpt lat="43.22066" lon="5.45121">
        <ele>329.6</ele>
        <time>2022-03-23T09:33:20Z</time>
      </trkpt>
      <trkpt lat="43.22071" lon="5.4512">
        <ele>330.4</ele>
        <time>2022-03-23T09:33:26Z</time>
      </trkpt>
      <trkpt lat="43.22076" lon="5.45118">
        <ele>331.2</ele>
        <time>2022-03-23T09:33:32Z</time>
      </trkpt>
      <trkpt lat="43.22081" lon="5.45115">
        <ele>331.6</ele>
        <time>2022-03-23T09:33:38Z</time>
      </trkpt>
      <trkpt lat="43.22086" lon="5.45112">
        <ele>331.9</ele>
        <time>2022-03-23T09:33:44Z</time>
      </trkpt>
      <trkpt lat="43.2209" lon="5.45108">
        <ele>332.1</ele>
        <time>2022-03-23T09:33:50Z</time>
      </trkpt>
      <trkpt lat="43.22094" lon="5.45104">
        <ele>332.2</ele>
        <time>2022-03-23T09:33:56Z</time>
      </trkpt>
      <trkpt lat="43.22099" lon="5.451">
        <ele>332.4</ele>
        <time>2022-03-23T09:34:02Z</time>
      </trkpt>
      <trkpt lat="43.22104" lon="5.45096">
        <ele>332.6</ele>
        <time>2022-03-23T09:34:08Z</time>
      </trkpt>
      <trkpt lat="43.22109" lon="5.45093">
        <ele>333.1</ele>
        <time>2022-03-23T09:34:14Z</time>
      </trkpt>
      <trkpt lat="43.22115" lon="5.45092">
        <ele>333.8</ele>
        <time>2022-03-23T09:34:20Z</time>
      </trkpt>
      <trkpt lat="43.2212" lon="5.4509">
        <ele>334.4</ele>
        <time>2022-03-23T09:34:26Z</time>
      </trkpt>
      <trkpt lat="43.22126" lon="5.45089">
        <ele>335.1</ele>
        <time>2022-03-23T09:34:32Z</time>
      </trkpt>
      <trkpt lat="43.22131" lon="5.45088">
        <ele>335.9</ele>
        <time>2022-03-23T09:34:38Z</time>
      </trkpt>
      <trkpt lat="43.22136" lon="5.45088">
        <ele>336.6</ele>
        <time>2022-03-23T09:34:44Z</time>
      </trkpt>
      <trkpt lat="43.22141" lon="5.45087">
        <ele>337.2</ele>
        <time>2022-03-23T09:34:50Z</time>
      </trkpt>
      <trkpt lat="43.22146" lon="5.45086">
        <ele>337.3</ele>
        <time>2022-03-23T09:34:56Z</time>
      </trkpt>
      <trkpt lat="43.22151" lon="5.45086">
        <ele>337.6</ele>
        <time>2022-03-23T09:35:02Z</time>
      </trkpt>
      <trkpt lat="43.22157" lon="5.45087">
        <ele>338.3</ele>
        <time>2022-03-23T09:35:08Z</time>
      </trkpt>
      <trkpt lat="43.22163" lon="5.45087">
        <ele>338.9</ele>
        <time>2022-03-23T09:35:14Z</time>
      </trkpt>
      <trkpt lat="43.22168" lon="5.45088">
        <ele>339.4</ele>
        <time>2022-03-23T09:35:20Z</time>
      </trkpt>
      <trkpt lat="43.22174" lon="5.45089">
        <ele>340.1</ele>
        <time>2022-03-23T09:35:26Z</time>
      </trkpt>
      <trkpt lat="43.22179" lon="5.4509">
        <ele>340.8</ele>
        <time>2022-03-23T09:35:32Z</time>
      </trkpt>
      <trkpt lat="43.22185" lon="5.45091">
        <ele>341.5</ele>
        <time>2022-03-23T09:35:38Z</time>
      </trkpt>
      <trkpt lat="43.2219" lon="5.45091">
        <ele>342</ele>
        <time>2022-03-23T09:35:44Z</time>
      </trkpt>
      <trkpt lat="43.22195" lon="5.45091">
        <ele>342.2</ele>
        <time>2022-03-23T09:35:50Z</time>
      </trkpt>
      <trkpt lat="43.22201" lon="5.45091">
        <ele>342.4</ele>
        <time>2022-03-23T09:35:56Z</time>
      </trkpt>
      <trkpt lat="43.22206" lon="5.45092">
        <ele>342.8</ele>
        <time>2022-03-23T09:36:02Z</time>
      </trkpt>
      <trkpt lat="43.22212" lon="5.45093">
        <ele>343</ele>
        <time>2022-03-23T09:36:08Z</time>
      </trkpt>
      <trkpt lat="43.22218" lon="5.45094">
        <ele>343.3</ele>
        <time>2022-03-23T09:36:14Z</time>
      </trkpt>
      <trkpt lat="43.22223" lon="5.45095">
        <ele>344</ele>
        <time>2022-03-23T09:36:20Z</time>
      </trkpt>
      <trkpt lat="43.22229" lon="5.45098">
        <ele>345.4</ele>
        <time>2022-03-23T09:36:26Z</time>
      </trkpt>
      <trkpt lat="43.22235" lon="5.45099">
        <ele>346.3</ele>
        <time>2022-03-23T09:36:32Z</time>
      </trkpt>
      <trkpt lat="43.2224" lon="5.451">
        <ele>347</ele>
        <time>2022-03-23T09:36:38Z</time>
      </trkpt>
      <trkpt lat="43.22245" lon="5.45098">
        <ele>347.2</ele>
        <time>2022-03-23T09:36:44Z</time>
      </trkpt>
      <trkpt lat="43.2225" lon="5.45096">
        <ele>347.3</ele>
        <time>2022-03-23T09:36:50Z</time>
      </trkpt>
      <trkpt lat="43.22254" lon="5.45094">
        <ele>347.8</ele>
        <time>2022-03-23T09:36:56Z</time>
      </trkpt>
      <trkpt lat="43.22259" lon="5.45091">
        <ele>348.4</ele>
        <time>2022-03-23T09:37:02Z</time>
      </trkpt>
      <trkpt lat="43.22264" lon="5.45088">
        <ele>348.9</ele>
        <time>2022-03-23T09:37:08Z</time>
      </trkpt>
      <trkpt lat="43.22268" lon="5.45086">
        <ele>349.4</ele>
        <time>2022-03-23T09:37:14Z</time>
      </trkpt>
      <trkpt lat="43.22273" lon="5.45084">
        <ele>350</ele>
        <time>2022-03-23T09:37:20Z</time>
      </trkpt>
      <trkpt lat="43.22278" lon="5.45083">
        <ele>350.9</ele>
        <time>2022-03-23T09:37:26Z</time>
      </trkpt>
      <trkpt lat="43.22283" lon="5.45084">
        <ele>351.4</ele>
        <time>2022-03-23T09:37:32Z</time>
      </trkpt>
      <trkpt lat="43.22289" lon="5.45085">
        <ele>351.7</ele>
        <time>2022-03-23T09:37:38Z</time>
      </trkpt>
      <trkpt lat="43.22293" lon="5.45085">
        <ele>351.9</ele>
        <time>2022-03-23T09:37:44Z</time>
      </trkpt>
      <trkpt lat="43.22299" lon="5.45084">
        <ele>352</ele>
        <time>2022-03-23T09:38:16Z</time>
      </trkpt>
      <trkpt lat="43.22304" lon="5.45086">
        <ele>352.7</ele>
        <time>2022-03-23T09:38:22Z</time>
      </trkpt>
      <trkpt lat="43.22309" lon="5.45087">
        <ele>353.5</ele>
        <time>2022-03-23T09:38:28Z</time>
      </trkpt>
      <trkpt lat="43.22314" lon="5.45087">
        <ele>354</ele>
        <time>2022-03-23T09:38:34Z</time>
      </trkpt>
      <trkpt lat="43.22319" lon="5.45086">
        <ele>354.5</ele>
        <time>2022-03-23T09:38:40Z</time>
      </trkpt>
      <trkpt lat="43.22324" lon="5.45085">
        <ele>355.1</ele>
        <time>2022-03-23T09:38:46Z</time>
      </trkpt>
      <trkpt lat="43.22328" lon="5.45084">
        <ele>355.4</ele>
        <time>2022-03-23T09:38:54Z</time>
      </trkpt>
      <trkpt lat="43.22334" lon="5.45082">
        <ele>355.8</ele>
        <time>2022-03-23T09:39:02Z</time>
      </trkpt>
      <trkpt lat="43.22338" lon="5.45081">
        <ele>356.4</ele>
        <time>2022-03-23T09:39:08Z</time>
      </trkpt>
      <trkpt lat="43.22344" lon="5.45078">
        <ele>356.8</ele>
        <time>2022-03-23T09:39:14Z</time>
      </trkpt>
      <trkpt lat="43.2235" lon="5.45075">
        <ele>357.4</ele>
        <time>2022-03-23T09:39:22Z</time>
      </trkpt>
      <trkpt lat="43.22355" lon="5.45073">
        <ele>357.8</ele>
        <time>2022-03-23T09:39:28Z</time>
      </trkpt>
      <trkpt lat="43.22361" lon="5.45071">
        <ele>358.4</ele>
        <time>2022-03-23T09:39:34Z</time>
      </trkpt>
      <trkpt lat="43.22365" lon="5.45072">
        <ele>358.8</ele>
        <time>2022-03-23T09:39:38Z</time>
      </trkpt>
      <trkpt lat="43.22371" lon="5.45073">
        <ele>359.5</ele>
        <time>2022-03-23T09:39:44Z</time>
      </trkpt>
      <trkpt lat="43.22377" lon="5.45076">
        <ele>360.6</ele>
        <time>2022-03-23T09:39:52Z</time>
      </trkpt>
      <trkpt lat="43.22381" lon="5.4508">
        <ele>361.7</ele>
        <time>2022-03-23T09:39:58Z</time>
      </trkpt>
      <trkpt lat="43.22385" lon="5.45083">
        <ele>362.7</ele>
        <time>2022-03-23T09:40:04Z</time>
      </trkpt>
      <trkpt lat="43.22391" lon="5.45088">
        <ele>362.8</ele>
        <time>2022-03-23T09:40:10Z</time>
      </trkpt>
      <trkpt lat="43.22395" lon="5.45091">
        <ele>361.5</ele>
        <time>2022-03-23T09:40:14Z</time>
      </trkpt>
      <trkpt lat="43.22399" lon="5.45095">
        <ele>360.7</ele>
        <time>2022-03-23T09:40:18Z</time>
      </trkpt>
      <trkpt lat="43.22404" lon="5.451">
        <ele>360.7</ele>
        <time>2022-03-23T09:40:22Z</time>
      </trkpt>
      <trkpt lat="43.2241" lon="5.45105">
        <ele>361.4</ele>
        <time>2022-03-23T09:40:28Z</time>
      </trkpt>
      <trkpt lat="43.22415" lon="5.45111">
        <ele>364.2</ele>
        <time>2022-03-23T09:40:34Z</time>
      </trkpt>
      <trkpt lat="43.22419" lon="5.45116">
        <ele>364.5</ele>
        <time>2022-03-23T09:40:38Z</time>
      </trkpt>
      <trkpt lat="43.22424" lon="5.45122">
        <ele>364.9</ele>
        <time>2022-03-23T09:40:46Z</time>
      </trkpt>
      <trkpt lat="43.22427" lon="5.45129">
        <ele>366.1</ele>
        <time>2022-03-23T09:40:54Z</time>
      </trkpt>
      <trkpt lat="43.2243" lon="5.45133">
        <ele>366.9</ele>
        <time>2022-03-23T09:41:00Z</time>
      </trkpt>
      <trkpt lat="43.22434" lon="5.4514">
        <ele>368.6</ele>
        <time>2022-03-23T09:41:08Z</time>
      </trkpt>
      <trkpt lat="43.22438" lon="5.45145">
        <ele>369.5</ele>
        <time>2022-03-23T09:41:16Z</time>
      </trkpt>
      <trkpt lat="43.22442" lon="5.45149">
        <ele>370.2</ele>
        <time>2022-03-23T09:41:20Z</time>
      </trkpt>
      <trkpt lat="43.22447" lon="5.45152">
        <ele>371.1</ele>
        <time>2022-03-23T09:41:24Z</time>
      </trkpt>
      <trkpt lat="43.22453" lon="5.45154">
        <ele>372.4</ele>
        <time>2022-03-23T09:41:28Z</time>
      </trkpt>
      <trkpt lat="43.22458" lon="5.45155">
        <ele>373.4</ele>
        <time>2022-03-23T09:41:38Z</time>
      </trkpt>
      <trkpt lat="43.22464" lon="5.45153">
        <ele>373.6</ele>
        <time>2022-03-23T09:41:46Z</time>
      </trkpt>
      <trkpt lat="43.22469" lon="5.45152">
        <ele>374</ele>
        <time>2022-03-23T09:41:52Z</time>
      </trkpt>
      <trkpt lat="43.22474" lon="5.45151">
        <ele>374.2</ele>
        <time>2022-03-23T09:41:58Z</time>
      </trkpt>
      <trkpt lat="43.22479" lon="5.45151">
        <ele>374.1</ele>
        <time>2022-03-23T09:42:04Z</time>
      </trkpt>
      <trkpt lat="43.22485" lon="5.45153">
        <ele>374.3</ele>
        <time>2022-03-23T09:42:10Z</time>
      </trkpt>
      <trkpt lat="43.2249" lon="5.45155">
        <ele>374.8</ele>
        <time>2022-03-23T09:42:16Z</time>
      </trkpt>
      <trkpt lat="43.22496" lon="5.45158">
        <ele>375.4</ele>
        <time>2022-03-23T09:42:20Z</time>
      </trkpt>
      <trkpt lat="43.225" lon="5.45159">
        <ele>376</ele>
        <time>2022-03-23T09:42:24Z</time>
      </trkpt>
      <trkpt lat="43.22506" lon="5.45161">
        <ele>376.6</ele>
        <time>2022-03-23T09:42:30Z</time>
      </trkpt>
      <trkpt lat="43.22512" lon="5.45162">
        <ele>377.1</ele>
        <time>2022-03-23T09:42:36Z</time>
      </trkpt>
      <trkpt lat="43.22516" lon="5.45163">
        <ele>377.6</ele>
        <time>2022-03-23T09:42:42Z</time>
      </trkpt>
      <trkpt lat="43.22521" lon="5.45164">
        <ele>378.2</ele>
        <time>2022-03-23T09:42:48Z</time>
      </trkpt>
      <trkpt lat="43.22525" lon="5.45166">
        <ele>378.8</ele>
        <time>2022-03-23T09:42:54Z</time>
      </trkpt>
      <trkpt lat="43.2253" lon="5.4517">
        <ele>379.1</ele>
        <time>2022-03-23T09:43:02Z</time>
      </trkpt>
      <trkpt lat="43.22534" lon="5.45174">
        <ele>379</ele>
        <time>2022-03-23T09:43:14Z</time>
      </trkpt>
      <trkpt lat="43.22539" lon="5.45178">
        <ele>378.9</ele>
        <time>2022-03-23T09:45:12Z</time>
      </trkpt>
      <trkpt lat="43.22543" lon="5.45183">
        <ele>378.8</ele>
        <time>2022-03-23T09:45:18Z</time>
      </trkpt>
      <trkpt lat="43.22549" lon="5.45186">
        <ele>378.5</ele>
        <time>2022-03-23T09:45:24Z</time>
      </trkpt>
      <trkpt lat="43.22554" lon="5.45192">
        <ele>378.9</ele>
        <time>2022-03-23T09:45:32Z</time>
      </trkpt>
      <trkpt lat="43.22557" lon="5.45198">
        <ele>378.7</ele>
        <time>2022-03-23T09:45:38Z</time>
      </trkpt>
      <trkpt lat="43.22562" lon="5.45205">
        <ele>377.9</ele>
        <time>2022-03-23T09:45:44Z</time>
      </trkpt>
      <trkpt lat="43.22565" lon="5.45211">
        <ele>377.4</ele>
        <time>2022-03-23T09:45:50Z</time>
      </trkpt>
      <trkpt lat="43.22568" lon="5.45218">
        <ele>377.2</ele>
        <time>2022-03-23T09:45:56Z</time>
      </trkpt>
      <trkpt lat="43.22569" lon="5.45224">
        <ele>376.9</ele>
        <time>2022-03-23T09:46:00Z</time>
      </trkpt>
      <trkpt lat="43.22571" lon="5.45231">
        <ele>376.2</ele>
        <time>2022-03-23T09:46:04Z</time>
      </trkpt>
      <trkpt lat="43.22572" lon="5.45238">
        <ele>375.5</ele>
        <time>2022-03-23T09:46:08Z</time>
      </trkpt>
      <trkpt lat="43.22573" lon="5.45244">
        <ele>374.9</ele>
        <time>2022-03-23T09:46:12Z</time>
      </trkpt>
      <trkpt lat="43.22573" lon="5.45253">
        <ele>373.7</ele>
        <time>2022-03-23T09:46:18Z</time>
      </trkpt>
      <trkpt lat="43.2257" lon="5.45259">
        <ele>372.3</ele>
        <time>2022-03-23T09:46:26Z</time>
      </trkpt>
      <trkpt lat="43.22567" lon="5.45266">
        <ele>371.9</ele>
        <time>2022-03-23T09:46:34Z</time>
      </trkpt>
      <trkpt lat="43.22564" lon="5.45273">
        <ele>371.5</ele>
        <time>2022-03-23T09:46:40Z</time>
      </trkpt>
      <trkpt lat="43.22562" lon="5.45279">
        <ele>371.5</ele>
        <time>2022-03-23T09:46:44Z</time>
      </trkpt>
      <trkpt lat="43.22561" lon="5.45286">
        <ele>372.2</ele>
        <time>2022-03-23T09:46:48Z</time>
      </trkpt>
      <trkpt lat="43.22559" lon="5.45294">
        <ele>373.1</ele>
        <time>2022-03-23T09:46:52Z</time>
      </trkpt>
      <trkpt lat="43.22558" lon="5.45301">
        <ele>373.6</ele>
        <time>2022-03-23T09:46:56Z</time>
      </trkpt>
      <trkpt lat="43.22557" lon="5.4531">
        <ele>374.5</ele>
        <time>2022-03-23T09:47:02Z</time>
      </trkpt>
      <trkpt lat="43.22556" lon="5.45317">
        <ele>375.6</ele>
        <time>2022-03-23T09:47:06Z</time>
      </trkpt>
      <trkpt lat="43.22557" lon="5.45324">
        <ele>376</ele>
        <time>2022-03-23T09:47:10Z</time>
      </trkpt>
      <trkpt lat="43.22559" lon="5.45332">
        <ele>376.1</ele>
        <time>2022-03-23T09:47:16Z</time>
      </trkpt>
      <trkpt lat="43.22561" lon="5.45338">
        <ele>376.3</ele>
        <time>2022-03-23T09:47:20Z</time>
      </trkpt>
      <trkpt lat="43.22564" lon="5.45344">
        <ele>376.5</ele>
        <time>2022-03-23T09:47:24Z</time>
      </trkpt>
      <trkpt lat="43.22567" lon="5.45349">
        <ele>376.2</ele>
        <time>2022-03-23T09:47:28Z</time>
      </trkpt>
      <trkpt lat="43.22571" lon="5.45355">
        <ele>375.6</ele>
        <time>2022-03-23T09:47:32Z</time>
      </trkpt>
      <trkpt lat="43.22575" lon="5.45362">
        <ele>375.2</ele>
        <time>2022-03-23T09:47:36Z</time>
      </trkpt>
      <trkpt lat="43.22578" lon="5.45368">
        <ele>374.5</ele>
        <time>2022-03-23T09:47:40Z</time>
      </trkpt>
      <trkpt lat="43.2258" lon="5.45375">
        <ele>374</ele>
        <time>2022-03-23T09:47:44Z</time>
      </trkpt>
      <trkpt lat="43.22581" lon="5.45383">
        <ele>374.7</ele>
        <time>2022-03-23T09:47:50Z</time>
      </trkpt>
      <trkpt lat="43.22583" lon="5.45391">
        <ele>375.3</ele>
        <time>2022-03-23T09:47:56Z</time>
      </trkpt>
      <trkpt lat="43.22586" lon="5.45397">
        <ele>376.5</ele>
        <time>2022-03-23T09:48:00Z</time>
      </trkpt>
      <trkpt lat="43.22591" lon="5.45401">
        <ele>376.7</ele>
        <time>2022-03-23T09:48:04Z</time>
      </trkpt>
      <trkpt lat="43.22595" lon="5.45407">
        <ele>378.2</ele>
        <time>2022-03-23T09:48:10Z</time>
      </trkpt>
      <trkpt lat="43.226" lon="5.45411">
        <ele>378.4</ele>
        <time>2022-03-23T09:48:16Z</time>
      </trkpt>
      <trkpt lat="43.22607" lon="5.45413">
        <ele>377.4</ele>
        <time>2022-03-23T09:48:22Z</time>
      </trkpt>
      <trkpt lat="43.22612" lon="5.45413">
        <ele>375.7</ele>
        <time>2022-03-23T09:48:26Z</time>
      </trkpt>
      <trkpt lat="43.22617" lon="5.45413">
        <ele>374.6</ele>
        <time>2022-03-23T09:48:30Z</time>
      </trkpt>
      <trkpt lat="43.22623" lon="5.45414">
        <ele>373.4</ele>
        <time>2022-03-23T09:48:36Z</time>
      </trkpt>
      <trkpt lat="43.22627" lon="5.45414">
        <ele>372.4</ele>
        <time>2022-03-23T09:48:40Z</time>
      </trkpt>
      <trkpt lat="43.22632" lon="5.45416">
        <ele>371.8</ele>
        <time>2022-03-23T09:48:44Z</time>
      </trkpt>
      <trkpt lat="43.22636" lon="5.45419">
        <ele>371.9</ele>
        <time>2022-03-23T09:48:48Z</time>
      </trkpt>
      <trkpt lat="43.22639" lon="5.45427">
        <ele>373.5</ele>
        <time>2022-03-23T09:48:54Z</time>
      </trkpt>
      <trkpt lat="43.22643" lon="5.45434">
        <ele>375.6</ele>
        <time>2022-03-23T09:49:00Z</time>
      </trkpt>
      <trkpt lat="43.22648" lon="5.4544">
        <ele>377.2</ele>
        <time>2022-03-23T09:49:06Z</time>
      </trkpt>
      <trkpt lat="43.22654" lon="5.45445">
        <ele>378.4</ele>
        <time>2022-03-23T09:49:12Z</time>
      </trkpt>
      <trkpt lat="43.22659" lon="5.45446">
        <ele>378.5</ele>
        <time>2022-03-23T09:49:18Z</time>
      </trkpt>
      <trkpt lat="43.22664" lon="5.45446">
        <ele>377.9</ele>
        <time>2022-03-23T09:49:22Z</time>
      </trkpt>
      <trkpt lat="43.2267" lon="5.45444">
        <ele>377.3</ele>
        <time>2022-03-23T09:49:28Z</time>
      </trkpt>
      <trkpt lat="43.22676" lon="5.45443">
        <ele>377.5</ele>
        <time>2022-03-23T09:49:34Z</time>
      </trkpt>
      <trkpt lat="43.22682" lon="5.45442">
        <ele>378</ele>
        <time>2022-03-23T09:49:40Z</time>
      </trkpt>
      <trkpt lat="43.22687" lon="5.45444">
        <ele>379.1</ele>
        <time>2022-03-23T09:49:46Z</time>
      </trkpt>
      <trkpt lat="43.22692" lon="5.45446">
        <ele>380</ele>
        <time>2022-03-23T09:49:50Z</time>
      </trkpt>
      <trkpt lat="43.22697" lon="5.45447">
        <ele>379.8</ele>
        <time>2022-03-23T09:49:54Z</time>
      </trkpt>
      <trkpt lat="43.22702" lon="5.45449">
        <ele>378.8</ele>
        <time>2022-03-23T09:50:02Z</time>
      </trkpt>
      <trkpt lat="43.22706" lon="5.45452">
        <ele>378.1</ele>
        <time>2022-03-23T09:50:28Z</time>
      </trkpt>
      <trkpt lat="43.22709" lon="5.45459">
        <ele>378.4</ele>
        <time>2022-03-23T09:50:34Z</time>
      </trkpt>
      <trkpt lat="43.22711" lon="5.45466">
        <ele>378.6</ele>
        <time>2022-03-23T09:50:40Z</time>
      </trkpt>
      <trkpt lat="43.22714" lon="5.45473">
        <ele>378.5</ele>
        <time>2022-03-23T09:50:48Z</time>
      </trkpt>
      <trkpt lat="43.22715" lon="5.45479">
        <ele>379.1</ele>
        <time>2022-03-23T09:50:52Z</time>
      </trkpt>
      <trkpt lat="43.22714" lon="5.45486">
        <ele>380.2</ele>
        <time>2022-03-23T09:50:56Z</time>
      </trkpt>
      <trkpt lat="43.22716" lon="5.45494">
        <ele>380.7</ele>
        <time>2022-03-23T09:51:04Z</time>
      </trkpt>
      <trkpt lat="43.22718" lon="5.45501">
        <ele>380.6</ele>
        <time>2022-03-23T09:51:10Z</time>
      </trkpt>
      <trkpt lat="43.22719" lon="5.45509">
        <ele>382.1</ele>
        <time>2022-03-23T09:51:16Z</time>
      </trkpt>
      <trkpt lat="43.22722" lon="5.4552">
        <ele>383.7</ele>
        <time>2022-03-23T09:51:25Z</time>
      </trkpt>
      <trkpt lat="43.22727" lon="5.45516">
        <ele>383.3</ele>
        <time>2022-03-23T09:51:29Z</time>
      </trkpt>
      <trkpt lat="43.22732" lon="5.45514">
        <ele>383.7</ele>
        <time>2022-03-23T09:51:33Z</time>
      </trkpt>
      <trkpt lat="43.22737" lon="5.45512">
        <ele>383.7</ele>
        <time>2022-03-23T09:51:37Z</time>
      </trkpt>
      <trkpt lat="43.22742" lon="5.45509">
        <ele>383.8</ele>
        <time>2022-03-23T09:51:43Z</time>
      </trkpt>
      <trkpt lat="43.22746" lon="5.45505">
        <ele>383.1</ele>
        <time>2022-03-23T09:51:49Z</time>
      </trkpt>
      <trkpt lat="43.22751" lon="5.45503">
        <ele>383.1</ele>
        <time>2022-03-23T09:51:55Z</time>
      </trkpt>
      <trkpt lat="43.22755" lon="5.45501">
        <ele>383.5</ele>
        <time>2022-03-23T09:52:01Z</time>
      </trkpt>
      <trkpt lat="43.2276" lon="5.45498">
        <ele>384.1</ele>
        <time>2022-03-23T09:52:07Z</time>
      </trkpt>
      <trkpt lat="43.22764" lon="5.45497">
        <ele>385.1</ele>
        <time>2022-03-23T09:52:13Z</time>
      </trkpt>
      <trkpt lat="43.2277" lon="5.45494">
        <ele>386.3</ele>
        <time>2022-03-23T09:52:19Z</time>
      </trkpt>
      <trkpt lat="43.22775" lon="5.45494">
        <ele>387.8</ele>
        <time>2022-03-23T09:52:25Z</time>
      </trkpt>
      <trkpt lat="43.22781" lon="5.45494">
        <ele>388.7</ele>
        <time>2022-03-23T09:52:31Z</time>
      </trkpt>
      <trkpt lat="43.22786" lon="5.45495">
        <ele>389</ele>
        <time>2022-03-23T09:52:37Z</time>
      </trkpt>
      <trkpt lat="43.22791" lon="5.45496">
        <ele>389.4</ele>
        <time>2022-03-23T09:52:43Z</time>
      </trkpt>
      <trkpt lat="43.22796" lon="5.45497">
        <ele>389.9</ele>
        <time>2022-03-23T09:52:49Z</time>
      </trkpt>
      <trkpt lat="43.22802" lon="5.455">
        <ele>390.8</ele>
        <time>2022-03-23T09:52:55Z</time>
      </trkpt>
      <trkpt lat="43.22808" lon="5.45503">
        <ele>391.6</ele>
        <time>2022-03-23T09:53:01Z</time>
      </trkpt>
      <trkpt lat="43.22813" lon="5.45507">
        <ele>391.8</ele>
        <time>2022-03-23T09:53:07Z</time>
      </trkpt>
      <trkpt lat="43.2282" lon="5.4551">
        <ele>391.6</ele>
        <time>2022-03-23T09:53:13Z</time>
      </trkpt>
      <trkpt lat="43.22824" lon="5.45513">
        <ele>391.8</ele>
        <time>2022-03-23T09:53:19Z</time>
      </trkpt>
      <trkpt lat="43.22826" lon="5.45519">
        <ele>392.5</ele>
        <time>2022-03-23T09:54:01Z</time>
      </trkpt>
      <trkpt lat="43.22831" lon="5.45516">
        <ele>391.3</ele>
        <time>2022-03-23T09:56:33Z</time>
      </trkpt>
      <trkpt lat="43.22828" lon="5.45521">
        <ele>392.6</ele>
        <time>2022-03-23T09:58:57Z</time>
      </trkpt>
      <trkpt lat="43.22823" lon="5.45519">
        <ele>393</ele>
        <time>2022-03-23T10:04:10Z</time>
      </trkpt>
      <trkpt lat="43.22818" lon="5.45519">
        <ele>393.8</ele>
        <time>2022-03-23T10:04:18Z</time>
      </trkpt>
      <trkpt lat="43.22813" lon="5.45518">
        <ele>394.3</ele>
        <time>2022-03-23T10:04:24Z</time>
      </trkpt>
      <trkpt lat="43.22807" lon="5.45515">
        <ele>394.6</ele>
        <time>2022-03-23T10:04:30Z</time>
      </trkpt>
      <trkpt lat="43.22802" lon="5.45513">
        <ele>394.3</ele>
        <time>2022-03-23T10:04:36Z</time>
      </trkpt>
      <trkpt lat="43.22796" lon="5.45513">
        <ele>393.9</ele>
        <time>2022-03-23T10:04:42Z</time>
      </trkpt>
      <trkpt lat="43.22791" lon="5.45513">
        <ele>393.8</ele>
        <time>2022-03-23T10:04:48Z</time>
      </trkpt>
      <trkpt lat="43.22785" lon="5.45514">
        <ele>393.8</ele>
        <time>2022-03-23T10:04:54Z</time>
      </trkpt>
      <trkpt lat="43.22781" lon="5.45516">
        <ele>394.4</ele>
        <time>2022-03-23T10:05:00Z</time>
      </trkpt>
      <trkpt lat="43.22776" lon="5.4552">
        <ele>395</ele>
        <time>2022-03-23T10:05:06Z</time>
      </trkpt>
      <trkpt lat="43.22772" lon="5.45524">
        <ele>395.5</ele>
        <time>2022-03-23T10:05:12Z</time>
      </trkpt>
      <trkpt lat="43.22768" lon="5.45526">
        <ele>394.9</ele>
        <time>2022-03-23T10:05:18Z</time>
      </trkpt>
      <trkpt lat="43.22764" lon="5.4553">
        <ele>395.3</ele>
        <time>2022-03-23T10:05:24Z</time>
      </trkpt>
      <trkpt lat="43.22759" lon="5.45533">
        <ele>396.1</ele>
        <time>2022-03-23T10:05:30Z</time>
      </trkpt>
      <trkpt lat="43.22756" lon="5.45538">
        <ele>397.6</ele>
        <time>2022-03-23T10:05:36Z</time>
      </trkpt>
      <trkpt lat="43.22752" lon="5.45544">
        <ele>399.6</ele>
        <time>2022-03-23T10:05:46Z</time>
      </trkpt>
      <trkpt lat="43.22748" lon="5.45547">
        <ele>400.4</ele>
        <time>2022-03-23T10:05:52Z</time>
      </trkpt>
      <trkpt lat="43.22742" lon="5.4555">
        <ele>400.9</ele>
        <time>2022-03-23T10:05:58Z</time>
      </trkpt>
      <trkpt lat="43.22739" lon="5.45555">
        <ele>403.2</ele>
        <time>2022-03-23T10:06:04Z</time>
      </trkpt>
      <trkpt lat="43.22736" lon="5.4556">
        <ele>405.2</ele>
        <time>2022-03-23T10:06:14Z</time>
      </trkpt>
      <trkpt lat="43.2273" lon="5.45556">
        <ele>402.5</ele>
        <time>2022-03-23T10:06:22Z</time>
      </trkpt>
      <trkpt lat="43.22726" lon="5.45552">
        <ele>399.5</ele>
        <time>2022-03-23T10:06:30Z</time>
      </trkpt>
      <trkpt lat="43.22721" lon="5.45553">
        <ele>400.1</ele>
        <time>2022-03-23T10:06:38Z</time>
      </trkpt>
      <trkpt lat="43.22716" lon="5.45555">
        <ele>402.9</ele>
        <time>2022-03-23T10:06:44Z</time>
      </trkpt>
      <trkpt lat="43.22711" lon="5.45553">
        <ele>403.2</ele>
        <time>2022-03-23T10:06:50Z</time>
      </trkpt>
      <trkpt lat="43.22706" lon="5.45552">
        <ele>404.7</ele>
        <time>2022-03-23T10:06:58Z</time>
      </trkpt>
      <trkpt lat="43.22701" lon="5.45552">
        <ele>406.4</ele>
        <time>2022-03-23T10:07:04Z</time>
      </trkpt>
      <trkpt lat="43.22697" lon="5.45546">
        <ele>405.6</ele>
        <time>2022-03-23T10:07:10Z</time>
      </trkpt>
      <trkpt lat="43.22692" lon="5.45543">
        <ele>407.3</ele>
        <time>2022-03-23T10:07:16Z</time>
      </trkpt>
      <trkpt lat="43.22687" lon="5.45539">
        <ele>409.1</ele>
        <time>2022-03-23T10:07:22Z</time>
      </trkpt>
      <trkpt lat="43.22682" lon="5.45535">
        <ele>410.3</ele>
        <time>2022-03-23T10:07:28Z</time>
      </trkpt>
      <trkpt lat="43.22678" lon="5.45531">
        <ele>409.6</ele>
        <time>2022-03-23T10:07:34Z</time>
      </trkpt>
      <trkpt lat="43.22673" lon="5.45528">
        <ele>409.9</ele>
        <time>2022-03-23T10:07:44Z</time>
      </trkpt>
      <trkpt lat="43.22669" lon="5.45525">
        <ele>411</ele>
        <time>2022-03-23T10:07:50Z</time>
      </trkpt>
      <trkpt lat="43.22664" lon="5.45526">
        <ele>413</ele>
        <time>2022-03-23T10:08:12Z</time>
      </trkpt>
      <trkpt lat="43.22663" lon="5.45532">
        <ele>418</ele>
        <time>2022-03-23T10:08:28Z</time>
      </trkpt>
      <trkpt lat="43.22658" lon="5.45535">
        <ele>421.9</ele>
        <time>2022-03-23T10:08:44Z</time>
      </trkpt>
      <trkpt lat="43.22652" lon="5.45537">
        <ele>425.5</ele>
        <time>2022-03-23T10:08:54Z</time>
      </trkpt>
      <trkpt lat="43.22647" lon="5.45537">
        <ele>427.4</ele>
        <time>2022-03-23T10:09:04Z</time>
      </trkpt>
      <trkpt lat="43.22643" lon="5.45535">
        <ele>427.2</ele>
        <time>2022-03-23T10:09:14Z</time>
      </trkpt>
      <trkpt lat="43.22637" lon="5.45536">
        <ele>430</ele>
        <time>2022-03-23T10:09:28Z</time>
      </trkpt>
      <trkpt lat="43.22633" lon="5.45534">
        <ele>429.4</ele>
        <time>2022-03-23T10:09:34Z</time>
      </trkpt>
      <trkpt lat="43.22627" lon="5.4553">
        <ele>427</ele>
        <time>2022-03-23T10:09:40Z</time>
      </trkpt>
      <trkpt lat="43.22623" lon="5.45527">
        <ele>425.3</ele>
        <time>2022-03-23T10:09:46Z</time>
      </trkpt>
      <trkpt lat="43.22618" lon="5.45528">
        <ele>427.7</ele>
        <time>2022-03-23T10:10:36Z</time>
      </trkpt>
      <trkpt lat="43.22613" lon="5.45532">
        <ele>433.3</ele>
        <time>2022-03-23T10:11:14Z</time>
      </trkpt>
      <trkpt lat="43.22609" lon="5.45535">
        <ele>440</ele>
        <time>2022-03-23T10:11:42Z</time>
      </trkpt>
      <trkpt lat="43.22605" lon="5.45541">
        <ele>450.7</ele>
        <time>2022-03-23T10:11:50Z</time>
      </trkpt>
      <trkpt lat="43.226" lon="5.45539">
        <ele>451.5</ele>
        <time>2022-03-23T10:12:00Z</time>
      </trkpt>
      <trkpt lat="43.22596" lon="5.45538">
        <ele>452.6</ele>
        <time>2022-03-23T10:12:12Z</time>
      </trkpt>
      <trkpt lat="43.22591" lon="5.4554">
        <ele>459.5</ele>
        <time>2022-03-23T10:12:40Z</time>
      </trkpt>
      <trkpt lat="43.22585" lon="5.45538">
        <ele>459.6</ele>
        <time>2022-03-23T10:13:16Z</time>
      </trkpt>
      <trkpt lat="43.22583" lon="5.45544">
        <ele>470.4</ele>
        <time>2022-03-23T10:13:54Z</time>
      </trkpt>
      <trkpt lat="43.22588" lon="5.4555">
        <ele>475.5</ele>
        <time>2022-03-23T10:14:48Z</time>
      </trkpt>
      <trkpt lat="43.22585" lon="5.45555">
        <ele>486.2</ele>
        <time>2022-03-23T10:14:52Z</time>
      </trkpt>
      <trkpt lat="43.22583" lon="5.45562">
        <ele>493.4</ele>
        <time>2022-03-23T10:14:58Z</time>
      </trkpt>
      <trkpt lat="43.2258" lon="5.45567">
        <ele>498.1</ele>
        <time>2022-03-23T10:15:02Z</time>
      </trkpt>
      <trkpt lat="43.22573" lon="5.45567">
        <ele>497</ele>
        <time>2022-03-23T10:15:52Z</time>
      </trkpt>
      <trkpt lat="43.22568" lon="5.45566">
        <ele>495.9</ele>
        <time>2022-03-23T10:15:56Z</time>
      </trkpt>
      <trkpt lat="43.22562" lon="5.45562">
        <ele>491.4</ele>
        <time>2022-03-23T10:16:22Z</time>
      </trkpt>
      <trkpt lat="43.22557" lon="5.45562">
        <ele>491</ele>
        <time>2022-03-23T10:16:24Z</time>
      </trkpt>
      <trkpt lat="43.22552" lon="5.45561">
        <ele>491.7</ele>
        <time>2022-03-23T10:16:28Z</time>
      </trkpt>
      <trkpt lat="43.22549" lon="5.45556">
        <ele>488.9</ele>
        <time>2022-03-23T10:16:34Z</time>
      </trkpt>
      <trkpt lat="43.22548" lon="5.45548">
        <ele>484</ele>
        <time>2022-03-23T10:16:40Z</time>
      </trkpt>
      <trkpt lat="43.22543" lon="5.4555">
        <ele>488.1</ele>
        <time>2022-03-23T10:17:04Z</time>
      </trkpt>
      <trkpt lat="43.22538" lon="5.45549">
        <ele>490.5</ele>
        <time>2022-03-23T10:17:14Z</time>
      </trkpt>
      <trkpt lat="43.22537" lon="5.45543">
        <ele>487.2</ele>
        <time>2022-03-23T10:17:24Z</time>
      </trkpt>
      <trkpt lat="43.22535" lon="5.45537">
        <ele>484.3</ele>
        <time>2022-03-23T10:17:38Z</time>
      </trkpt>
      <trkpt lat="43.22541" lon="5.45535">
        <ele>479.7</ele>
        <time>2022-03-23T10:17:50Z</time>
      </trkpt>
      <trkpt lat="43.2254" lon="5.45528">
        <ele>475.8</ele>
        <time>2022-03-23T10:18:08Z</time>
      </trkpt>
      <trkpt lat="43.22535" lon="5.45526">
        <ele>477.5</ele>
        <time>2022-03-23T10:18:44Z</time>
      </trkpt>
      <trkpt lat="43.22533" lon="5.45532">
        <ele>482.8</ele>
        <time>2022-03-23T10:19:08Z</time>
      </trkpt>
      <trkpt lat="43.22527" lon="5.45534">
        <ele>487.3</ele>
        <time>2022-03-23T10:19:16Z</time>
      </trkpt>
      <trkpt lat="43.22523" lon="5.45539">
        <ele>491.9</ele>
        <time>2022-03-23T10:20:00Z</time>
      </trkpt>
      <trkpt lat="43.22522" lon="5.45545">
        <ele>496.3</ele>
        <time>2022-03-23T10:20:36Z</time>
      </trkpt>
      <trkpt lat="43.22521" lon="5.45551">
        <ele>501.1</ele>
        <time>2022-03-23T10:21:04Z</time>
      </trkpt>
      <trkpt lat="43.22523" lon="5.45558">
        <ele>503.7</ele>
        <time>2022-03-23T10:21:26Z</time>
      </trkpt>
      <trkpt lat="43.22527" lon="5.4556">
        <ele>502.8</ele>
        <time>2022-03-23T10:21:36Z</time>
      </trkpt>
      <trkpt lat="43.22529" lon="5.45565">
        <ele>504.7</ele>
        <time>2022-03-23T10:22:04Z</time>
      </trkpt>
      <trkpt lat="43.22533" lon="5.45568">
        <ele>504.5</ele>
        <time>2022-03-23T10:22:36Z</time>
      </trkpt>
      <trkpt lat="43.22537" lon="5.4557">
        <ele>504.3</ele>
        <time>2022-03-23T10:22:44Z</time>
      </trkpt>
      <trkpt lat="43.22532" lon="5.45571">
        <ele>506.2</ele>
        <time>2022-03-23T10:23:04Z</time>
      </trkpt>
      <trkpt lat="43.22527" lon="5.4557">
        <ele>506.9</ele>
        <time>2022-03-23T10:23:12Z</time>
      </trkpt>
      <trkpt lat="43.22525" lon="5.45576">
        <ele>509.3</ele>
        <time>2022-03-23T10:23:40Z</time>
      </trkpt>
      <trkpt lat="43.22522" lon="5.45582">
        <ele>511.4</ele>
        <time>2022-03-23T10:23:50Z</time>
      </trkpt>
      <trkpt lat="43.22517" lon="5.45582">
        <ele>511.4</ele>
        <time>2022-03-23T10:25:40Z</time>
      </trkpt>
      <trkpt lat="43.22512" lon="5.4558">
        <ele>511</ele>
        <time>2022-03-23T10:26:16Z</time>
      </trkpt>
      <trkpt lat="43.22508" lon="5.45578">
        <ele>510.8</ele>
        <time>2022-03-23T10:34:20Z</time>
      </trkpt>
      <trkpt lat="43.22503" lon="5.45576">
        <ele>511</ele>
        <time>2022-03-23T10:34:28Z</time>
      </trkpt>
      <trkpt lat="43.22498" lon="5.45575">
        <ele>511.6</ele>
        <time>2022-03-23T10:34:38Z</time>
      </trkpt>
      <trkpt lat="43.22493" lon="5.45572">
        <ele>512.7</ele>
        <time>2022-03-23T10:34:46Z</time>
      </trkpt>
      <trkpt lat="43.22487" lon="5.4557">
        <ele>513.9</ele>
        <time>2022-03-23T10:34:52Z</time>
      </trkpt>
      <trkpt lat="43.22482" lon="5.4557">
        <ele>514.8</ele>
        <time>2022-03-23T10:34:58Z</time>
      </trkpt>
      <trkpt lat="43.22478" lon="5.45569">
        <ele>516</ele>
        <time>2022-03-23T10:35:04Z</time>
      </trkpt>
      <trkpt lat="43.22473" lon="5.45571">
        <ele>516.4</ele>
        <time>2022-03-23T10:35:10Z</time>
      </trkpt>
      <trkpt lat="43.22469" lon="5.45575">
        <ele>515.9</ele>
        <time>2022-03-23T10:35:16Z</time>
      </trkpt>
      <trkpt lat="43.22464" lon="5.45575">
        <ele>516.6</ele>
        <time>2022-03-23T10:35:26Z</time>
      </trkpt>
      <trkpt lat="43.22458" lon="5.45576">
        <ele>517.3</ele>
        <time>2022-03-23T10:35:32Z</time>
      </trkpt>
      <trkpt lat="43.22453" lon="5.45577">
        <ele>517.5</ele>
        <time>2022-03-23T10:35:38Z</time>
      </trkpt>
      <trkpt lat="43.22448" lon="5.45579">
        <ele>517.7</ele>
        <time>2022-03-23T10:35:44Z</time>
      </trkpt>
      <trkpt lat="43.22442" lon="5.45581">
        <ele>518.3</ele>
        <time>2022-03-23T10:35:50Z</time>
      </trkpt>
      <trkpt lat="43.22437" lon="5.45582">
        <ele>518.9</ele>
        <time>2022-03-23T10:35:56Z</time>
      </trkpt>
      <trkpt lat="43.22431" lon="5.45582">
        <ele>520.2</ele>
        <time>2022-03-23T10:36:04Z</time>
      </trkpt>
      <trkpt lat="43.22426" lon="5.45585">
        <ele>520.5</ele>
        <time>2022-03-23T10:36:10Z</time>
      </trkpt>
      <trkpt lat="43.22422" lon="5.45588">
        <ele>520.7</ele>
        <time>2022-03-23T10:36:16Z</time>
      </trkpt>
      <trkpt lat="43.22418" lon="5.45594">
        <ele>520.2</ele>
        <time>2022-03-23T10:36:24Z</time>
      </trkpt>
      <trkpt lat="43.22415" lon="5.456">
        <ele>520.2</ele>
        <time>2022-03-23T10:36:32Z</time>
      </trkpt>
      <trkpt lat="43.22412" lon="5.45606">
        <ele>520.2</ele>
        <time>2022-03-23T10:36:38Z</time>
      </trkpt>
      <trkpt lat="43.22408" lon="5.45611">
        <ele>520.7</ele>
        <time>2022-03-23T10:36:44Z</time>
      </trkpt>
      <trkpt lat="43.22405" lon="5.45617">
        <ele>521.7</ele>
        <time>2022-03-23T10:36:52Z</time>
      </trkpt>
      <trkpt lat="43.22405" lon="5.45624">
        <ele>520.9</ele>
        <time>2022-03-23T10:36:58Z</time>
      </trkpt>
      <trkpt lat="43.22405" lon="5.45631">
        <ele>520.7</ele>
        <time>2022-03-23T10:37:04Z</time>
      </trkpt>
      <trkpt lat="43.22404" lon="5.45638">
        <ele>520.7</ele>
        <time>2022-03-23T10:37:10Z</time>
      </trkpt>
      <trkpt lat="43.22404" lon="5.45644">
        <ele>520.5</ele>
        <time>2022-03-23T10:37:16Z</time>
      </trkpt>
      <trkpt lat="43.22404" lon="5.45652">
        <ele>520.7</ele>
        <time>2022-03-23T10:37:24Z</time>
      </trkpt>
      <trkpt lat="43.22403" lon="5.45658">
        <ele>521.3</ele>
        <time>2022-03-23T10:37:30Z</time>
      </trkpt>
      <trkpt lat="43.22402" lon="5.45665">
        <ele>521.8</ele>
        <time>2022-03-23T10:37:36Z</time>
      </trkpt>
      <trkpt lat="43.22401" lon="5.45671">
        <ele>522.3</ele>
        <time>2022-03-23T10:37:42Z</time>
      </trkpt>
      <trkpt lat="43.22401" lon="5.45679">
        <ele>522.7</ele>
        <time>2022-03-23T10:37:52Z</time>
      </trkpt>
      <trkpt lat="43.22398" lon="5.45673">
        <ele>523.9</ele>
        <time>2022-03-23T10:38:04Z</time>
      </trkpt>
      <trkpt lat="43.22395" lon="5.45667">
        <ele>525.3</ele>
        <time>2022-03-23T10:38:12Z</time>
      </trkpt>
      <trkpt lat="43.22394" lon="5.4566">
        <ele>525.7</ele>
        <time>2022-03-23T10:38:20Z</time>
      </trkpt>
      <trkpt lat="43.22393" lon="5.45653">
        <ele>526.2</ele>
        <time>2022-03-23T10:38:28Z</time>
      </trkpt>
      <trkpt lat="43.22391" lon="5.45645">
        <ele>526.8</ele>
        <time>2022-03-23T10:38:36Z</time>
      </trkpt>
      <trkpt lat="43.22391" lon="5.45639">
        <ele>527.1</ele>
        <time>2022-03-23T10:38:42Z</time>
      </trkpt>
      <trkpt lat="43.2239" lon="5.45632">
        <ele>527.5</ele>
        <time>2022-03-23T10:38:48Z</time>
      </trkpt>
      <trkpt lat="43.22389" lon="5.45626">
        <ele>528.6</ele>
        <time>2022-03-23T10:38:54Z</time>
      </trkpt>
      <trkpt lat="43.22385" lon="5.45621">
        <ele>529.9</ele>
        <time>2022-03-23T10:39:02Z</time>
      </trkpt>
      <trkpt lat="43.22384" lon="5.45615">
        <ele>530.4</ele>
        <time>2022-03-23T10:39:10Z</time>
      </trkpt>
      <trkpt lat="43.22385" lon="5.45608">
        <ele>530.5</ele>
        <time>2022-03-23T10:39:16Z</time>
      </trkpt>
      <trkpt lat="43.22384" lon="5.45602">
        <ele>531.1</ele>
        <time>2022-03-23T10:39:22Z</time>
      </trkpt>
      <trkpt lat="43.22382" lon="5.45595">
        <ele>532.2</ele>
        <time>2022-03-23T10:39:30Z</time>
      </trkpt>
      <trkpt lat="43.22377" lon="5.45592">
        <ele>533.2</ele>
        <time>2022-03-23T10:39:36Z</time>
      </trkpt>
      <trkpt lat="43.22373" lon="5.45589">
        <ele>534.2</ele>
        <time>2022-03-23T10:39:44Z</time>
      </trkpt>
      <trkpt lat="43.22369" lon="5.45584">
        <ele>534.9</ele>
        <time>2022-03-23T10:39:52Z</time>
      </trkpt>
      <trkpt lat="43.22363" lon="5.45581">
        <ele>535.8</ele>
        <time>2022-03-23T10:40:00Z</time>
      </trkpt>
      <trkpt lat="43.2236" lon="5.45576">
        <ele>536.2</ele>
        <time>2022-03-23T10:40:06Z</time>
      </trkpt>
      <trkpt lat="43.22357" lon="5.4557">
        <ele>536.2</ele>
        <time>2022-03-23T10:40:18Z</time>
      </trkpt>
      <trkpt lat="43.22359" lon="5.45563">
        <ele>536.5</ele>
        <time>2022-03-23T10:40:28Z</time>
      </trkpt>
      <trkpt lat="43.2236" lon="5.45558">
        <ele>536.8</ele>
        <time>2022-03-23T10:40:34Z</time>
      </trkpt>
      <trkpt lat="43.22362" lon="5.45551">
        <ele>537.3</ele>
        <time>2022-03-23T10:40:42Z</time>
      </trkpt>
      <trkpt lat="43.22363" lon="5.45544">
        <ele>537.8</ele>
        <time>2022-03-23T10:40:50Z</time>
      </trkpt>
      <trkpt lat="43.22364" lon="5.45538">
        <ele>538.2</ele>
        <time>2022-03-23T10:40:58Z</time>
      </trkpt>
      <trkpt lat="43.22367" lon="5.45533">
        <ele>538.6</ele>
        <time>2022-03-23T10:41:04Z</time>
      </trkpt>
      <trkpt lat="43.22371" lon="5.45529">
        <ele>538.9</ele>
        <time>2022-03-23T10:41:10Z</time>
      </trkpt>
      <trkpt lat="43.22374" lon="5.45523">
        <ele>539.5</ele>
        <time>2022-03-23T10:41:16Z</time>
      </trkpt>
      <trkpt lat="43.22377" lon="5.45518">
        <ele>540.1</ele>
        <time>2022-03-23T10:41:24Z</time>
      </trkpt>
      <trkpt lat="43.22379" lon="5.45512">
        <ele>540.9</ele>
        <time>2022-03-23T10:41:30Z</time>
      </trkpt>
      <trkpt lat="43.22381" lon="5.45506">
        <ele>541.8</ele>
        <time>2022-03-23T10:41:38Z</time>
      </trkpt>
      <trkpt lat="43.22385" lon="5.45501">
        <ele>542.6</ele>
        <time>2022-03-23T10:41:46Z</time>
      </trkpt>
      <trkpt lat="43.22387" lon="5.45495">
        <ele>543.3</ele>
        <time>2022-03-23T10:41:54Z</time>
      </trkpt>
      <trkpt lat="43.22389" lon="5.45488">
        <ele>543.9</ele>
        <time>2022-03-23T10:42:00Z</time>
      </trkpt>
      <trkpt lat="43.22389" lon="5.4548">
        <ele>544.4</ele>
        <time>2022-03-23T10:42:08Z</time>
      </trkpt>
      <trkpt lat="43.22388" lon="5.45474">
        <ele>544.9</ele>
        <time>2022-03-23T10:42:16Z</time>
      </trkpt>
      <trkpt lat="43.22384" lon="5.45471">
        <ele>544.3</ele>
        <time>2022-03-23T10:43:36Z</time>
      </trkpt>
      <trkpt lat="43.22379" lon="5.45471">
        <ele>544.1</ele>
        <time>2022-03-23T10:46:36Z</time>
      </trkpt>
      <trkpt lat="43.22381" lon="5.45478">
        <ele>544</ele>
        <time>2022-03-23T10:46:50Z</time>
      </trkpt>
      <trkpt lat="43.22382" lon="5.45486">
        <ele>543.5</ele>
        <time>2022-03-23T10:47:08Z</time>
      </trkpt>
      <trkpt lat="43.22382" lon="5.45494">
        <ele>543</ele>
        <time>2022-03-23T10:47:28Z</time>
      </trkpt>
      <trkpt lat="43.2238" lon="5.45501">
        <ele>542.3</ele>
        <time>2022-03-23T10:47:34Z</time>
      </trkpt>
      <trkpt lat="43.22379" lon="5.45507">
        <ele>541.5</ele>
        <time>2022-03-23T10:47:40Z</time>
      </trkpt>
      <trkpt lat="43.22378" lon="5.45514">
        <ele>540.6</ele>
        <time>2022-03-23T10:47:48Z</time>
      </trkpt>
      <trkpt lat="43.22375" lon="5.45519">
        <ele>539.9</ele>
        <time>2022-03-23T10:47:54Z</time>
      </trkpt>
      <trkpt lat="43.2237" lon="5.45524">
        <ele>539.4</ele>
        <time>2022-03-23T10:48:02Z</time>
      </trkpt>
      <trkpt lat="43.22368" lon="5.45529">
        <ele>538.9</ele>
        <time>2022-03-23T10:48:08Z</time>
      </trkpt>
      <trkpt lat="43.22364" lon="5.45535">
        <ele>538.5</ele>
        <time>2022-03-23T10:48:16Z</time>
      </trkpt>
      <trkpt lat="43.22361" lon="5.45539">
        <ele>538.1</ele>
        <time>2022-03-23T10:48:22Z</time>
      </trkpt>
      <trkpt lat="43.2236" lon="5.45546">
        <ele>537.4</ele>
        <time>2022-03-23T10:48:30Z</time>
      </trkpt>
      <trkpt lat="43.22359" lon="5.45554">
        <ele>536.8</ele>
        <time>2022-03-23T10:48:38Z</time>
      </trkpt>
      <trkpt lat="43.22359" lon="5.45561">
        <ele>536.6</ele>
        <time>2022-03-23T10:48:44Z</time>
      </trkpt>
      <trkpt lat="43.22358" lon="5.45569">
        <ele>536.3</ele>
        <time>2022-03-23T10:48:52Z</time>
      </trkpt>
      <trkpt lat="43.22355" lon="5.45577">
        <ele>536</ele>
        <time>2022-03-23T10:49:00Z</time>
      </trkpt>
      <trkpt lat="43.22353" lon="5.45582">
        <ele>536</ele>
        <time>2022-03-23T10:49:08Z</time>
      </trkpt>
      <trkpt lat="43.2235" lon="5.45587">
        <ele>536.2</ele>
        <time>2022-03-23T10:49:16Z</time>
      </trkpt>
      <trkpt lat="43.22348" lon="5.45593">
        <ele>536.7</ele>
        <time>2022-03-23T10:49:24Z</time>
      </trkpt>
      <trkpt lat="43.22346" lon="5.456">
        <ele>537.3</ele>
        <time>2022-03-23T10:49:32Z</time>
      </trkpt>
      <trkpt lat="43.22345" lon="5.45608">
        <ele>537.9</ele>
        <time>2022-03-23T10:49:38Z</time>
      </trkpt>
      <trkpt lat="43.22344" lon="5.45615">
        <ele>538.8</ele>
        <time>2022-03-23T10:49:44Z</time>
      </trkpt>
      <trkpt lat="43.22343" lon="5.45622">
        <ele>540</ele>
        <time>2022-03-23T10:49:54Z</time>
      </trkpt>
      <trkpt lat="43.2234" lon="5.45628">
        <ele>541.3</ele>
        <time>2022-03-23T10:50:12Z</time>
      </trkpt>
      <trkpt lat="43.2234" lon="5.45635">
        <ele>542.7</ele>
        <time>2022-03-23T10:50:22Z</time>
      </trkpt>
      <trkpt lat="43.22338" lon="5.45641">
        <ele>543.9</ele>
        <time>2022-03-23T10:50:30Z</time>
      </trkpt>
      <trkpt lat="43.22337" lon="5.45648">
        <ele>545.2</ele>
        <time>2022-03-23T10:50:48Z</time>
      </trkpt>
      <trkpt lat="43.22337" lon="5.45656">
        <ele>546.5</ele>
        <time>2022-03-23T10:50:52Z</time>
      </trkpt>
      <trkpt lat="43.22334" lon="5.45663">
        <ele>548.1</ele>
        <time>2022-03-23T10:50:58Z</time>
      </trkpt>
      <trkpt lat="43.22335" lon="5.4567">
        <ele>549.1</ele>
        <time>2022-03-23T10:51:12Z</time>
      </trkpt>
      <trkpt lat="43.22333" lon="5.45676">
        <ele>550.5</ele>
        <time>2022-03-23T10:51:28Z</time>
      </trkpt>
      <trkpt lat="43.22329" lon="5.45681">
        <ele>551.4</ele>
        <time>2022-03-23T10:51:36Z</time>
      </trkpt>
      <trkpt lat="43.22326" lon="5.45686">
        <ele>552.5</ele>
        <time>2022-03-23T10:51:42Z</time>
      </trkpt>
      <trkpt lat="43.22323" lon="5.45691">
        <ele>553.8</ele>
        <time>2022-03-23T10:51:52Z</time>
      </trkpt>
      <trkpt lat="43.22319" lon="5.45694">
        <ele>555.1</ele>
        <time>2022-03-23T10:52:00Z</time>
      </trkpt>
      <trkpt lat="43.22315" lon="5.457">
        <ele>556.2</ele>
        <time>2022-03-23T10:52:08Z</time>
      </trkpt>
      <trkpt lat="43.22311" lon="5.45706">
        <ele>557.3</ele>
        <time>2022-03-23T10:52:16Z</time>
      </trkpt>
      <trkpt lat="43.2231" lon="5.45713">
        <ele>558.1</ele>
        <time>2022-03-23T10:52:24Z</time>
      </trkpt>
      <trkpt lat="43.2231" lon="5.45719">
        <ele>558.8</ele>
        <time>2022-03-23T10:52:30Z</time>
      </trkpt>
      <trkpt lat="43.22308" lon="5.45725">
        <ele>559.5</ele>
        <time>2022-03-23T10:52:38Z</time>
      </trkpt>
      <trkpt lat="43.22303" lon="5.45729">
        <ele>559.6</ele>
        <time>2022-03-23T10:53:12Z</time>
      </trkpt>
      <trkpt lat="43.223" lon="5.45733">
        <ele>559.4</ele>
        <time>2022-03-23T10:53:22Z</time>
      </trkpt>
      <trkpt lat="43.22298" lon="5.4574">
        <ele>559.2</ele>
        <time>2022-03-23T10:53:34Z</time>
      </trkpt>
      <trkpt lat="43.22295" lon="5.45746">
        <ele>559</ele>
        <time>2022-03-23T10:53:46Z</time>
      </trkpt>
      <trkpt lat="43.22293" lon="5.45751">
        <ele>559</ele>
        <time>2022-03-23T10:53:54Z</time>
      </trkpt>
      <trkpt lat="43.2229" lon="5.45756">
        <ele>559</ele>
        <time>2022-03-23T10:54:02Z</time>
      </trkpt>
      <trkpt lat="43.22288" lon="5.45762">
        <ele>559.1</ele>
        <time>2022-03-23T10:54:08Z</time>
      </trkpt>
      <trkpt lat="43.22286" lon="5.45769">
        <ele>559.3</ele>
        <time>2022-03-23T10:54:14Z</time>
      </trkpt>
      <trkpt lat="43.22284" lon="5.45775">
        <ele>559.5</ele>
        <time>2022-03-23T10:54:20Z</time>
      </trkpt>
      <trkpt lat="43.22281" lon="5.45781">
        <ele>559.5</ele>
        <time>2022-03-23T10:54:28Z</time>
      </trkpt>
      <trkpt lat="43.22279" lon="5.45787">
        <ele>559.2</ele>
        <time>2022-03-23T10:54:38Z</time>
      </trkpt>
      <trkpt lat="43.22277" lon="5.45793">
        <ele>558.7</ele>
        <time>2022-03-23T10:55:18Z</time>
      </trkpt>
      <trkpt lat="43.22272" lon="5.45796">
        <ele>555.8</ele>
        <time>2022-03-23T10:55:56Z</time>
      </trkpt>
      <trkpt lat="43.22275" lon="5.45801">
        <ele>557.1</ele>
        <time>2022-03-23T10:59:10Z</time>
      </trkpt>
      <trkpt lat="43.22273" lon="5.45808">
        <ele>556</ele>
        <time>2022-03-23T10:59:18Z</time>
      </trkpt>
      <trkpt lat="43.22271" lon="5.45814">
        <ele>555.2</ele>
        <time>2022-03-23T10:59:26Z</time>
      </trkpt>
      <trkpt lat="43.22269" lon="5.45821">
        <ele>555.1</ele>
        <time>2022-03-23T10:59:34Z</time>
      </trkpt>
      <trkpt lat="43.22267" lon="5.45828">
        <ele>555.5</ele>
        <time>2022-03-23T10:59:42Z</time>
      </trkpt>
      <trkpt lat="43.22264" lon="5.45833">
        <ele>556.5</ele>
        <time>2022-03-23T10:59:48Z</time>
      </trkpt>
      <trkpt lat="43.2226" lon="5.45837">
        <ele>556.8</ele>
        <time>2022-03-23T10:59:54Z</time>
      </trkpt>
      <trkpt lat="43.22256" lon="5.45842">
        <ele>557.1</ele>
        <time>2022-03-23T11:00:02Z</time>
      </trkpt>
      <trkpt lat="43.22253" lon="5.45846">
        <ele>557.5</ele>
        <time>2022-03-23T11:00:08Z</time>
      </trkpt>
      <trkpt lat="43.22248" lon="5.45849">
        <ele>558.2</ele>
        <time>2022-03-23T11:00:18Z</time>
      </trkpt>
      <trkpt lat="43.22243" lon="5.45852">
        <ele>559</ele>
        <time>2022-03-23T11:00:26Z</time>
      </trkpt>
      <trkpt lat="43.22237" lon="5.45852">
        <ele>559.9</ele>
        <time>2022-03-23T11:00:34Z</time>
      </trkpt>
      <trkpt lat="43.22233" lon="5.45851">
        <ele>560.8</ele>
        <time>2022-03-23T11:00:42Z</time>
      </trkpt>
      <trkpt lat="43.22228" lon="5.45851">
        <ele>561.6</ele>
        <time>2022-03-23T11:00:52Z</time>
      </trkpt>
      <trkpt lat="43.22223" lon="5.45854">
        <ele>562.5</ele>
        <time>2022-03-23T11:01:02Z</time>
      </trkpt>
      <trkpt lat="43.22219" lon="5.45852">
        <ele>561.8</ele>
        <time>2022-03-23T11:01:10Z</time>
      </trkpt>
      <trkpt lat="43.22215" lon="5.45856">
        <ele>561.2</ele>
        <time>2022-03-23T11:01:22Z</time>
      </trkpt>
      <trkpt lat="43.22213" lon="5.45861">
        <ele>561.7</ele>
        <time>2022-03-23T11:01:32Z</time>
      </trkpt>
      <trkpt lat="43.2221" lon="5.45867">
        <ele>560.9</ele>
        <time>2022-03-23T11:01:40Z</time>
      </trkpt>
      <trkpt lat="43.22207" lon="5.45871">
        <ele>560.3</ele>
        <time>2022-03-23T11:01:50Z</time>
      </trkpt>
      <trkpt lat="43.22204" lon="5.45876">
        <ele>559.8</ele>
        <time>2022-03-23T11:01:58Z</time>
      </trkpt>
      <trkpt lat="43.22202" lon="5.45882">
        <ele>559.4</ele>
        <time>2022-03-23T11:02:04Z</time>
      </trkpt>
      <trkpt lat="43.22198" lon="5.45887">
        <ele>559.2</ele>
        <time>2022-03-23T11:02:10Z</time>
      </trkpt>
      <trkpt lat="43.22195" lon="5.45893">
        <ele>558.7</ele>
        <time>2022-03-23T11:02:18Z</time>
      </trkpt>
      <trkpt lat="43.2219" lon="5.45895">
        <ele>558.2</ele>
        <time>2022-03-23T11:02:22Z</time>
      </trkpt>
      <trkpt lat="43.22186" lon="5.45898">
        <ele>557.8</ele>
        <time>2022-03-23T11:02:26Z</time>
      </trkpt>
      <trkpt lat="43.22181" lon="5.459">
        <ele>557.5</ele>
        <time>2022-03-23T11:02:30Z</time>
      </trkpt>
      <trkpt lat="43.22177" lon="5.45903">
        <ele>557.4</ele>
        <time>2022-03-23T11:02:36Z</time>
      </trkpt>
      <trkpt lat="43.22172" lon="5.45907">
        <ele>557.4</ele>
        <time>2022-03-23T11:02:40Z</time>
      </trkpt>
      <trkpt lat="43.22168" lon="5.45911">
        <ele>557.6</ele>
        <time>2022-03-23T11:02:46Z</time>
      </trkpt>
      <trkpt lat="43.22165" lon="5.45915">
        <ele>557.6</ele>
        <time>2022-03-23T11:02:54Z</time>
      </trkpt>
      <trkpt lat="43.22162" lon="5.4592">
        <ele>557.1</ele>
        <time>2022-03-23T11:03:00Z</time>
      </trkpt>
      <trkpt lat="43.22158" lon="5.45926">
        <ele>556.2</ele>
        <time>2022-03-23T11:03:06Z</time>
      </trkpt>
      <trkpt lat="43.22153" lon="5.45929">
        <ele>555.8</ele>
        <time>2022-03-23T11:03:14Z</time>
      </trkpt>
      <trkpt lat="43.22147" lon="5.45929">
        <ele>555.7</ele>
        <time>2022-03-23T11:03:22Z</time>
      </trkpt>
      <trkpt lat="43.22142" lon="5.45932">
        <ele>555.6</ele>
        <time>2022-03-23T11:03:28Z</time>
      </trkpt>
      <trkpt lat="43.22139" lon="5.45937">
        <ele>555.7</ele>
        <time>2022-03-23T11:03:34Z</time>
      </trkpt>
      <trkpt lat="43.22135" lon="5.45942">
        <ele>555.7</ele>
        <time>2022-03-23T11:03:40Z</time>
      </trkpt>
      <trkpt lat="43.22133" lon="5.4595">
        <ele>555.2</ele>
        <time>2022-03-23T11:03:46Z</time>
      </trkpt>
      <trkpt lat="43.2213" lon="5.45955">
        <ele>554.7</ele>
        <time>2022-03-23T11:03:50Z</time>
      </trkpt>
      <trkpt lat="43.22127" lon="5.45962">
        <ele>554.4</ele>
        <time>2022-03-23T11:03:56Z</time>
      </trkpt>
      <trkpt lat="43.22125" lon="5.45968">
        <ele>554.2</ele>
        <time>2022-03-23T11:04:04Z</time>
      </trkpt>
      <trkpt lat="43.22123" lon="5.45975">
        <ele>553.7</ele>
        <time>2022-03-23T11:04:14Z</time>
      </trkpt>
      <trkpt lat="43.2212" lon="5.45982">
        <ele>552.7</ele>
        <time>2022-03-23T11:04:20Z</time>
      </trkpt>
      <trkpt lat="43.22117" lon="5.45988">
        <ele>551.8</ele>
        <time>2022-03-23T11:04:30Z</time>
      </trkpt>
      <trkpt lat="43.22115" lon="5.45993">
        <ele>550.9</ele>
        <time>2022-03-23T11:04:36Z</time>
      </trkpt>
      <trkpt lat="43.22111" lon="5.45999">
        <ele>550.1</ele>
        <time>2022-03-23T11:04:44Z</time>
      </trkpt>
      <trkpt lat="43.22109" lon="5.46008">
        <ele>547.9</ele>
        <time>2022-03-23T11:04:52Z</time>
      </trkpt>
      <trkpt lat="43.22108" lon="5.46014">
        <ele>546.4</ele>
        <time>2022-03-23T11:04:58Z</time>
      </trkpt>
      <trkpt lat="43.22106" lon="5.4602">
        <ele>544.9</ele>
        <time>2022-03-23T11:05:02Z</time>
      </trkpt>
      <trkpt lat="43.22103" lon="5.46024">
        <ele>543.5</ele>
        <time>2022-03-23T11:05:10Z</time>
      </trkpt>
      <trkpt lat="43.22103" lon="5.46033">
        <ele>542.1</ele>
        <time>2022-03-23T11:05:18Z</time>
      </trkpt>
      <trkpt lat="43.22102" lon="5.46041">
        <ele>540.9</ele>
        <time>2022-03-23T11:05:24Z</time>
      </trkpt>
      <trkpt lat="43.22102" lon="5.46049">
        <ele>539.9</ele>
        <time>2022-03-23T11:05:30Z</time>
      </trkpt>
      <trkpt lat="43.22102" lon="5.46056">
        <ele>539</ele>
        <time>2022-03-23T11:05:34Z</time>
      </trkpt>
      <trkpt lat="43.22102" lon="5.46062">
        <ele>538.1</ele>
        <time>2022-03-23T11:05:38Z</time>
      </trkpt>
      <trkpt lat="43.22099" lon="5.46069">
        <ele>537</ele>
        <time>2022-03-23T11:05:44Z</time>
      </trkpt>
      <trkpt lat="43.22096" lon="5.46075">
        <ele>536</ele>
        <time>2022-03-23T11:05:52Z</time>
      </trkpt>
      <trkpt lat="43.22093" lon="5.46081">
        <ele>535</ele>
        <time>2022-03-23T11:06:00Z</time>
      </trkpt>
      <trkpt lat="43.22089" lon="5.46089">
        <ele>533.9</ele>
        <time>2022-03-23T11:06:06Z</time>
      </trkpt>
      <trkpt lat="43.22085" lon="5.46093">
        <ele>533.4</ele>
        <time>2022-03-23T11:06:10Z</time>
      </trkpt>
      <trkpt lat="43.22082" lon="5.461">
        <ele>532.5</ele>
        <time>2022-03-23T11:06:16Z</time>
      </trkpt>
      <trkpt lat="43.2208" lon="5.46107">
        <ele>531.4</ele>
        <time>2022-03-23T11:06:24Z</time>
      </trkpt>
      <trkpt lat="43.22078" lon="5.46115">
        <ele>530.3</ele>
        <time>2022-03-23T11:06:30Z</time>
      </trkpt>
      <trkpt lat="43.22075" lon="5.46123">
        <ele>528.8</ele>
        <time>2022-03-23T11:06:36Z</time>
      </trkpt>
      <trkpt lat="43.22072" lon="5.4613">
        <ele>527.8</ele>
        <time>2022-03-23T11:06:46Z</time>
      </trkpt>
      <trkpt lat="43.22068" lon="5.46135">
        <ele>527.1</ele>
        <time>2022-03-23T11:06:52Z</time>
      </trkpt>
      <trkpt lat="43.22064" lon="5.4614">
        <ele>526.5</ele>
        <time>2022-03-23T11:07:00Z</time>
      </trkpt>
      <trkpt lat="43.22062" lon="5.46147">
        <ele>525.9</ele>
        <time>2022-03-23T11:07:06Z</time>
      </trkpt>
      <trkpt lat="43.22059" lon="5.46153">
        <ele>525.5</ele>
        <time>2022-03-23T11:07:12Z</time>
      </trkpt>
      <trkpt lat="43.22055" lon="5.46159">
        <ele>525.3</ele>
        <time>2022-03-23T11:07:22Z</time>
      </trkpt>
      <trkpt lat="43.22052" lon="5.46165">
        <ele>525.2</ele>
        <time>2022-03-23T11:07:28Z</time>
      </trkpt>
      <trkpt lat="43.22048" lon="5.4617">
        <ele>525.2</ele>
        <time>2022-03-23T11:07:34Z</time>
      </trkpt>
      <trkpt lat="43.22046" lon="5.46176">
        <ele>525.2</ele>
        <time>2022-03-23T11:07:42Z</time>
      </trkpt>
      <trkpt lat="43.22042" lon="5.46173">
        <ele>525.5</ele>
        <time>2022-03-23T11:07:56Z</time>
      </trkpt>
      <trkpt lat="43.2204" lon="5.46167">
        <ele>525.6</ele>
        <time>2022-03-23T11:08:00Z</time>
      </trkpt>
      <trkpt lat="43.22036" lon="5.46162">
        <ele>525.4</ele>
        <time>2022-03-23T11:08:04Z</time>
      </trkpt>
      <trkpt lat="43.22032" lon="5.46159">
        <ele>525.2</ele>
        <time>2022-03-23T11:08:12Z</time>
      </trkpt>
      <trkpt lat="43.22028" lon="5.46163">
        <ele>525.6</ele>
        <time>2022-03-23T11:08:20Z</time>
      </trkpt>
      <trkpt lat="43.22022" lon="5.46162">
        <ele>524.9</ele>
        <time>2022-03-23T11:08:28Z</time>
      </trkpt>
      <trkpt lat="43.22019" lon="5.46167">
        <ele>525.1</ele>
        <time>2022-03-23T11:08:36Z</time>
      </trkpt>
      <trkpt lat="43.22015" lon="5.46169">
        <ele>524.8</ele>
        <time>2022-03-23T11:08:44Z</time>
      </trkpt>
      <trkpt lat="43.2201" lon="5.46172">
        <ele>524.5</ele>
        <time>2022-03-23T11:08:48Z</time>
      </trkpt>
      <trkpt lat="43.22005" lon="5.46176">
        <ele>524.5</ele>
        <time>2022-03-23T11:08:52Z</time>
      </trkpt>
      <trkpt lat="43.22" lon="5.46181">
        <ele>524.5</ele>
        <time>2022-03-23T11:08:58Z</time>
      </trkpt>
      <trkpt lat="43.21996" lon="5.46186">
        <ele>524</ele>
        <time>2022-03-23T11:09:04Z</time>
      </trkpt>
      <trkpt lat="43.21995" lon="5.46193">
        <ele>524.3</ele>
        <time>2022-03-23T11:09:32Z</time>
      </trkpt>
      <trkpt lat="43.21994" lon="5.462">
        <ele>524.5</ele>
        <time>2022-03-23T11:09:40Z</time>
      </trkpt>
      <trkpt lat="43.21996" lon="5.46206">
        <ele>525.4</ele>
        <time>2022-03-23T11:09:48Z</time>
      </trkpt>
      <trkpt lat="43.21998" lon="5.46213">
        <ele>526.6</ele>
        <time>2022-03-23T11:09:56Z</time>
      </trkpt>
      <trkpt lat="43.21998" lon="5.46219">
        <ele>527.3</ele>
        <time>2022-03-23T11:10:02Z</time>
      </trkpt>
      <trkpt lat="43.22003" lon="5.46223">
        <ele>528.1</ele>
        <time>2022-03-23T11:10:12Z</time>
      </trkpt>
      <trkpt lat="43.22008" lon="5.46226">
        <ele>528.2</ele>
        <time>2022-03-23T11:10:20Z</time>
      </trkpt>
      <trkpt lat="43.22011" lon="5.46233">
        <ele>528.4</ele>
        <time>2022-03-23T11:10:26Z</time>
      </trkpt>
      <trkpt lat="43.22014" lon="5.46238">
        <ele>528.5</ele>
        <time>2022-03-23T11:10:32Z</time>
      </trkpt>
      <trkpt lat="43.22017" lon="5.46244">
        <ele>528.6</ele>
        <time>2022-03-23T11:10:40Z</time>
      </trkpt>
      <trkpt lat="43.22017" lon="5.46253">
        <ele>528.9</ele>
        <time>2022-03-23T11:10:48Z</time>
      </trkpt>
      <trkpt lat="43.22015" lon="5.46259">
        <ele>529.4</ele>
        <time>2022-03-23T11:10:54Z</time>
      </trkpt>
      <trkpt lat="43.22012" lon="5.46264">
        <ele>530</ele>
        <time>2022-03-23T11:11:00Z</time>
      </trkpt>
      <trkpt lat="43.22009" lon="5.46271">
        <ele>530.6</ele>
        <time>2022-03-23T11:11:06Z</time>
      </trkpt>
      <trkpt lat="43.22011" lon="5.46277">
        <ele>530.8</ele>
        <time>2022-03-23T11:11:12Z</time>
      </trkpt>
      <trkpt lat="43.22014" lon="5.46283">
        <ele>530.6</ele>
        <time>2022-03-23T11:11:18Z</time>
      </trkpt>
      <trkpt lat="43.22018" lon="5.46288">
        <ele>530.1</ele>
        <time>2022-03-23T11:11:24Z</time>
      </trkpt>
      <trkpt lat="43.22021" lon="5.46292">
        <ele>529.6</ele>
        <time>2022-03-23T11:11:30Z</time>
      </trkpt>
      <trkpt lat="43.22025" lon="5.46296">
        <ele>528.8</ele>
        <time>2022-03-23T11:11:38Z</time>
      </trkpt>
      <trkpt lat="43.22026" lon="5.46304">
        <ele>528.4</ele>
        <time>2022-03-23T11:11:46Z</time>
      </trkpt>
      <trkpt lat="43.22027" lon="5.46312">
        <ele>527.4</ele>
        <time>2022-03-23T11:11:54Z</time>
      </trkpt>
      <trkpt lat="43.22027" lon="5.46319">
        <ele>526.9</ele>
        <time>2022-03-23T11:12:00Z</time>
      </trkpt>
      <trkpt lat="43.22025" lon="5.46326">
        <ele>526.5</ele>
        <time>2022-03-23T11:12:06Z</time>
      </trkpt>
      <trkpt lat="43.22025" lon="5.46334">
        <ele>525.8</ele>
        <time>2022-03-23T11:12:12Z</time>
      </trkpt>
      <trkpt lat="43.22025" lon="5.46342">
        <ele>525.4</ele>
        <time>2022-03-23T11:12:16Z</time>
      </trkpt>
      <trkpt lat="43.22024" lon="5.4635">
        <ele>525.1</ele>
        <time>2022-03-23T11:12:22Z</time>
      </trkpt>
      <trkpt lat="43.22023" lon="5.46358">
        <ele>524.9</ele>
        <time>2022-03-23T11:12:28Z</time>
      </trkpt>
      <trkpt lat="43.22021" lon="5.46365">
        <ele>525.7</ele>
        <time>2022-03-23T11:12:38Z</time>
      </trkpt>
      <trkpt lat="43.22021" lon="5.46373">
        <ele>526.5</ele>
        <time>2022-03-23T11:12:56Z</time>
      </trkpt>
      <trkpt lat="43.22021" lon="5.4638">
        <ele>526.8</ele>
        <time>2022-03-23T11:13:00Z</time>
      </trkpt>
      <trkpt lat="43.22022" lon="5.46387">
        <ele>526.9</ele>
        <time>2022-03-23T11:13:08Z</time>
      </trkpt>
      <trkpt lat="43.22023" lon="5.46394">
        <ele>527.1</ele>
        <time>2022-03-23T11:13:12Z</time>
      </trkpt>
      <trkpt lat="43.22022" lon="5.46401">
        <ele>528</ele>
        <time>2022-03-23T11:13:22Z</time>
      </trkpt>
      <trkpt lat="43.22024" lon="5.46407">
        <ele>528.1</ele>
        <time>2022-03-23T11:13:30Z</time>
      </trkpt>
      <trkpt lat="43.22027" lon="5.46414">
        <ele>528</ele>
        <time>2022-03-23T11:13:38Z</time>
      </trkpt>
      <trkpt lat="43.22029" lon="5.46422">
        <ele>527.7</ele>
        <time>2022-03-23T11:13:44Z</time>
      </trkpt>
      <trkpt lat="43.22032" lon="5.46427">
        <ele>527</ele>
        <time>2022-03-23T11:13:50Z</time>
      </trkpt>
      <trkpt lat="43.22034" lon="5.46435">
        <ele>526.7</ele>
        <time>2022-03-23T11:13:56Z</time>
      </trkpt>
      <trkpt lat="43.22037" lon="5.46441">
        <ele>526.3</ele>
        <time>2022-03-23T11:14:02Z</time>
      </trkpt>
      <trkpt lat="43.22041" lon="5.46445">
        <ele>525.8</ele>
        <time>2022-03-23T11:14:10Z</time>
      </trkpt>
      <trkpt lat="43.22044" lon="5.46449">
        <ele>525.2</ele>
        <time>2022-03-23T11:14:16Z</time>
      </trkpt>
      <trkpt lat="43.22042" lon="5.46456">
        <ele>526</ele>
        <time>2022-03-23T11:14:28Z</time>
      </trkpt>
      <trkpt lat="43.22038" lon="5.46459">
        <ele>527</ele>
        <time>2022-03-23T11:14:34Z</time>
      </trkpt>
      <trkpt lat="43.22034" lon="5.46462">
        <ele>527.9</ele>
        <time>2022-03-23T11:14:40Z</time>
      </trkpt>
      <trkpt lat="43.22029" lon="5.46465">
        <ele>528.8</ele>
        <time>2022-03-23T11:14:48Z</time>
      </trkpt>
      <trkpt lat="43.22024" lon="5.46467">
        <ele>528.9</ele>
        <time>2022-03-23T11:14:58Z</time>
      </trkpt>
      <trkpt lat="43.22019" lon="5.46469">
        <ele>528.8</ele>
        <time>2022-03-23T11:15:06Z</time>
      </trkpt>
      <trkpt lat="43.22014" lon="5.46469">
        <ele>528.7</ele>
        <time>2022-03-23T11:15:12Z</time>
      </trkpt>
      <trkpt lat="43.2201" lon="5.46472">
        <ele>528.4</ele>
        <time>2022-03-23T11:15:18Z</time>
      </trkpt>
      <trkpt lat="43.22004" lon="5.46474">
        <ele>527.9</ele>
        <time>2022-03-23T11:15:26Z</time>
      </trkpt>
      <trkpt lat="43.21999" lon="5.46476">
        <ele>527.3</ele>
        <time>2022-03-23T11:15:32Z</time>
      </trkpt>
      <trkpt lat="43.21995" lon="5.46479">
        <ele>526.4</ele>
        <time>2022-03-23T11:15:40Z</time>
      </trkpt>
      <trkpt lat="43.21989" lon="5.46479">
        <ele>526.2</ele>
        <time>2022-03-23T11:15:48Z</time>
      </trkpt>
      <trkpt lat="43.21984" lon="5.46482">
        <ele>525.1</ele>
        <time>2022-03-23T11:15:52Z</time>
      </trkpt>
      <trkpt lat="43.2198" lon="5.46484">
        <ele>524.2</ele>
        <time>2022-03-23T11:16:00Z</time>
      </trkpt>
      <trkpt lat="43.21974" lon="5.46485">
        <ele>523.6</ele>
        <time>2022-03-23T11:16:12Z</time>
      </trkpt>
      <trkpt lat="43.21968" lon="5.46487">
        <ele>522.4</ele>
        <time>2022-03-23T11:16:18Z</time>
      </trkpt>
      <trkpt lat="43.21962" lon="5.46484">
        <ele>522.5</ele>
        <time>2022-03-23T11:16:24Z</time>
      </trkpt>
      <trkpt lat="43.21957" lon="5.46483">
        <ele>522.2</ele>
        <time>2022-03-23T11:16:32Z</time>
      </trkpt>
      <trkpt lat="43.21951" lon="5.46482">
        <ele>522.1</ele>
        <time>2022-03-23T11:16:40Z</time>
      </trkpt>
      <trkpt lat="43.21945" lon="5.46481">
        <ele>521.9</ele>
        <time>2022-03-23T11:16:48Z</time>
      </trkpt>
      <trkpt lat="43.2194" lon="5.46479">
        <ele>522.2</ele>
        <time>2022-03-23T11:16:56Z</time>
      </trkpt>
      <trkpt lat="43.21935" lon="5.46477">
        <ele>522.5</ele>
        <time>2022-03-23T11:17:06Z</time>
      </trkpt>
      <trkpt lat="43.2193" lon="5.46476">
        <ele>522.5</ele>
        <time>2022-03-23T11:17:12Z</time>
      </trkpt>
      <trkpt lat="43.21924" lon="5.46477">
        <ele>521.4</ele>
        <time>2022-03-23T11:17:16Z</time>
      </trkpt>
      <trkpt lat="43.21918" lon="5.46479">
        <ele>520.2</ele>
        <time>2022-03-23T11:17:20Z</time>
      </trkpt>
      <trkpt lat="43.21913" lon="5.46478">
        <ele>519.6</ele>
        <time>2022-03-23T11:17:24Z</time>
      </trkpt>
      <trkpt lat="43.21908" lon="5.46478">
        <ele>519.3</ele>
        <time>2022-03-23T11:17:28Z</time>
      </trkpt>
      <trkpt lat="43.21903" lon="5.46475">
        <ele>519.6</ele>
        <time>2022-03-23T11:17:40Z</time>
      </trkpt>
      <trkpt lat="43.21899" lon="5.46471">
        <ele>520.2</ele>
        <time>2022-03-23T11:17:48Z</time>
      </trkpt>
      <trkpt lat="43.21894" lon="5.46468">
        <ele>520.3</ele>
        <time>2022-03-23T11:17:54Z</time>
      </trkpt>
      <trkpt lat="43.21888" lon="5.46467">
        <ele>519.7</ele>
        <time>2022-03-23T11:18:02Z</time>
      </trkpt>
      <trkpt lat="43.21883" lon="5.46466">
        <ele>518.9</ele>
        <time>2022-03-23T11:18:10Z</time>
      </trkpt>
      <trkpt lat="43.21878" lon="5.46464">
        <ele>518.9</ele>
        <time>2022-03-23T11:18:18Z</time>
      </trkpt>
      <trkpt lat="43.21874" lon="5.46459">
        <ele>519.9</ele>
        <time>2022-03-23T11:18:28Z</time>
      </trkpt>
      <trkpt lat="43.21869" lon="5.4646">
        <ele>518.7</ele>
        <time>2022-03-23T11:18:32Z</time>
      </trkpt>
      <trkpt lat="43.21864" lon="5.46461">
        <ele>517.4</ele>
        <time>2022-03-23T11:18:34Z</time>
      </trkpt>
      <trkpt lat="43.2186" lon="5.46464">
        <ele>516</ele>
        <time>2022-03-23T11:18:38Z</time>
      </trkpt>
      <trkpt lat="43.21854" lon="5.46462">
        <ele>516</ele>
        <time>2022-03-23T11:18:58Z</time>
      </trkpt>
      <trkpt lat="43.21849" lon="5.46461">
        <ele>515.6</ele>
        <time>2022-03-23T11:19:06Z</time>
      </trkpt>
      <trkpt lat="43.21845" lon="5.4646">
        <ele>515.7</ele>
        <time>2022-03-23T11:19:12Z</time>
      </trkpt>
      <trkpt lat="43.21839" lon="5.46458">
        <ele>515.8</ele>
        <time>2022-03-23T11:19:20Z</time>
      </trkpt>
      <trkpt lat="43.21833" lon="5.4646">
        <ele>514.4</ele>
        <time>2022-03-23T11:19:28Z</time>
      </trkpt>
      <trkpt lat="43.21828" lon="5.46465">
        <ele>512.7</ele>
        <time>2022-03-23T11:19:36Z</time>
      </trkpt>
      <trkpt lat="43.21824" lon="5.46468">
        <ele>511.6</ele>
        <time>2022-03-23T11:19:42Z</time>
      </trkpt>
      <trkpt lat="43.2182" lon="5.46472">
        <ele>510.1</ele>
        <time>2022-03-23T11:19:46Z</time>
      </trkpt>
      <trkpt lat="43.21816" lon="5.46477">
        <ele>508.2</ele>
        <time>2022-03-23T11:19:50Z</time>
      </trkpt>
      <trkpt lat="43.21813" lon="5.46481">
        <ele>506.3</ele>
        <time>2022-03-23T11:19:54Z</time>
      </trkpt>
      <trkpt lat="43.21807" lon="5.46485">
        <ele>505</ele>
        <time>2022-03-23T11:20:00Z</time>
      </trkpt>
      <trkpt lat="43.21802" lon="5.46487">
        <ele>504.5</ele>
        <time>2022-03-23T11:20:06Z</time>
      </trkpt>
      <trkpt lat="43.21796" lon="5.46487">
        <ele>505.4</ele>
        <time>2022-03-23T11:20:14Z</time>
      </trkpt>
      <trkpt lat="43.21791" lon="5.46488">
        <ele>505.7</ele>
        <time>2022-03-23T11:20:24Z</time>
      </trkpt>
      <trkpt lat="43.21787" lon="5.46493">
        <ele>503.9</ele>
        <time>2022-03-23T11:20:32Z</time>
      </trkpt>
      <trkpt lat="43.21783" lon="5.46496">
        <ele>503.3</ele>
        <time>2022-03-23T11:20:40Z</time>
      </trkpt>
      <trkpt lat="43.21778" lon="5.46497">
        <ele>503.3</ele>
        <time>2022-03-23T11:20:46Z</time>
      </trkpt>
      <trkpt lat="43.21774" lon="5.46499">
        <ele>502.6</ele>
        <time>2022-03-23T11:20:52Z</time>
      </trkpt>
      <trkpt lat="43.21769" lon="5.46499">
        <ele>502.6</ele>
        <time>2022-03-23T11:20:58Z</time>
      </trkpt>
      <trkpt lat="43.21764" lon="5.465">
        <ele>502.4</ele>
        <time>2022-03-23T11:21:04Z</time>
      </trkpt>
      <trkpt lat="43.21759" lon="5.46501">
        <ele>502.1</ele>
        <time>2022-03-23T11:21:10Z</time>
      </trkpt>
      <trkpt lat="43.21754" lon="5.46502">
        <ele>502.1</ele>
        <time>2022-03-23T11:21:18Z</time>
      </trkpt>
      <trkpt lat="43.21749" lon="5.46504">
        <ele>501.2</ele>
        <time>2022-03-23T11:21:26Z</time>
      </trkpt>
      <trkpt lat="43.21743" lon="5.46507">
        <ele>499.8</ele>
        <time>2022-03-23T11:21:32Z</time>
      </trkpt>
      <trkpt lat="43.21738" lon="5.46509">
        <ele>499</ele>
        <time>2022-03-23T11:21:36Z</time>
      </trkpt>
      <trkpt lat="43.21732" lon="5.46512">
        <ele>498.2</ele>
        <time>2022-03-23T11:21:40Z</time>
      </trkpt>
      <trkpt lat="43.21727" lon="5.46515">
        <ele>497.6</ele>
        <time>2022-03-23T11:21:44Z</time>
      </trkpt>
      <trkpt lat="43.21723" lon="5.46518">
        <ele>497.1</ele>
        <time>2022-03-23T11:21:48Z</time>
      </trkpt>
      <trkpt lat="43.21718" lon="5.46521">
        <ele>495.8</ele>
        <time>2022-03-23T11:21:52Z</time>
      </trkpt>
      <trkpt lat="43.21714" lon="5.46523">
        <ele>494.6</ele>
        <time>2022-03-23T11:21:56Z</time>
      </trkpt>
      <trkpt lat="43.21707" lon="5.46526">
        <ele>493.4</ele>
        <time>2022-03-23T11:22:02Z</time>
      </trkpt>
      <trkpt lat="43.21701" lon="5.46528">
        <ele>492.7</ele>
        <time>2022-03-23T11:22:08Z</time>
      </trkpt>
      <trkpt lat="43.21698" lon="5.46532">
        <ele>490.9</ele>
        <time>2022-03-23T11:22:24Z</time>
      </trkpt>
      <trkpt lat="43.21695" lon="5.46537">
        <ele>488.9</ele>
        <time>2022-03-23T11:22:30Z</time>
      </trkpt>
      <trkpt lat="43.2169" lon="5.46539">
        <ele>486.3</ele>
        <time>2022-03-23T11:22:42Z</time>
      </trkpt>
      <trkpt lat="43.21685" lon="5.46543">
        <ele>484.3</ele>
        <time>2022-03-23T11:22:58Z</time>
      </trkpt>
      <trkpt lat="43.21681" lon="5.46547">
        <ele>482.9</ele>
        <time>2022-03-23T11:23:06Z</time>
      </trkpt>
      <trkpt lat="43.21676" lon="5.46548">
        <ele>482</ele>
        <time>2022-03-23T11:23:18Z</time>
      </trkpt>
      <trkpt lat="43.21671" lon="5.46549">
        <ele>481.4</ele>
        <time>2022-03-23T11:23:34Z</time>
      </trkpt>
      <trkpt lat="43.21667" lon="5.46553">
        <ele>481.6</ele>
        <time>2022-03-23T11:23:40Z</time>
      </trkpt>
      <trkpt lat="43.21663" lon="5.46556">
        <ele>480.7</ele>
        <time>2022-03-23T11:23:46Z</time>
      </trkpt>
      <trkpt lat="43.21658" lon="5.46556">
        <ele>479.2</ele>
        <time>2022-03-23T11:23:52Z</time>
      </trkpt>
      <trkpt lat="43.21653" lon="5.4656">
        <ele>477</ele>
        <time>2022-03-23T11:23:58Z</time>
      </trkpt>
      <trkpt lat="43.21647" lon="5.46568">
        <ele>475.6</ele>
        <time>2022-03-23T11:24:02Z</time>
      </trkpt>
      <trkpt lat="43.21642" lon="5.46574">
        <ele>476</ele>
        <time>2022-03-23T11:24:06Z</time>
      </trkpt>
      <trkpt lat="43.21636" lon="5.46577">
        <ele>476.2</ele>
        <time>2022-03-23T11:24:12Z</time>
      </trkpt>
      <trkpt lat="43.21631" lon="5.46578">
        <ele>475.3</ele>
        <time>2022-03-23T11:24:16Z</time>
      </trkpt>
      <trkpt lat="43.21627" lon="5.46575">
        <ele>473.2</ele>
        <time>2022-03-23T11:24:26Z</time>
      </trkpt>
      <trkpt lat="43.21621" lon="5.46576">
        <ele>472</ele>
        <time>2022-03-23T11:24:40Z</time>
      </trkpt>
      <trkpt lat="43.21616" lon="5.46581">
        <ele>473.1</ele>
        <time>2022-03-23T11:24:56Z</time>
      </trkpt>
      <trkpt lat="43.21612" lon="5.46584">
        <ele>473</ele>
        <time>2022-03-23T11:25:02Z</time>
      </trkpt>
      <trkpt lat="43.21608" lon="5.46586">
        <ele>471.2</ele>
        <time>2022-03-23T11:25:30Z</time>
      </trkpt>
      <trkpt lat="43.21604" lon="5.46589">
        <ele>469.1</ele>
        <time>2022-03-23T11:26:44Z</time>
      </trkpt>
      <trkpt lat="43.21598" lon="5.46588">
        <ele>467.7</ele>
        <time>2022-03-23T11:26:52Z</time>
      </trkpt>
      <trkpt lat="43.21593" lon="5.46589">
        <ele>465.7</ele>
        <time>2022-03-23T11:27:04Z</time>
      </trkpt>
      <trkpt lat="43.21588" lon="5.4659">
        <ele>464.2</ele>
        <time>2022-03-23T11:27:22Z</time>
      </trkpt>
      <trkpt lat="43.21583" lon="5.46587">
        <ele>463.3</ele>
        <time>2022-03-23T11:27:32Z</time>
      </trkpt>
      <trkpt lat="43.21578" lon="5.46588">
        <ele>462.1</ele>
        <time>2022-03-23T11:27:44Z</time>
      </trkpt>
      <trkpt lat="43.21573" lon="5.46586">
        <ele>461.6</ele>
        <time>2022-03-23T11:28:06Z</time>
      </trkpt>
      <trkpt lat="43.2157" lon="5.4658">
        <ele>459.7</ele>
        <time>2022-03-23T11:28:12Z</time>
      </trkpt>
      <trkpt lat="43.2157" lon="5.46588">
        <ele>460.5</ele>
        <time>2022-03-23T11:28:26Z</time>
      </trkpt>
      <trkpt lat="43.21565" lon="5.46584">
        <ele>460.6</ele>
        <time>2022-03-23T11:28:42Z</time>
      </trkpt>
      <trkpt lat="43.2156" lon="5.4658">
        <ele>457.6</ele>
        <time>2022-03-23T11:28:56Z</time>
      </trkpt>
      <trkpt lat="43.21557" lon="5.46575">
        <ele>454.5</ele>
        <time>2022-03-23T11:29:04Z</time>
      </trkpt>
      <trkpt lat="43.21552" lon="5.46572">
        <ele>451.6</ele>
        <time>2022-03-23T11:29:18Z</time>
      </trkpt>
      <trkpt lat="43.21547" lon="5.46571">
        <ele>449.1</ele>
        <time>2022-03-23T11:29:24Z</time>
      </trkpt>
      <trkpt lat="43.21542" lon="5.46572">
        <ele>447.8</ele>
        <time>2022-03-23T11:29:36Z</time>
      </trkpt>
      <trkpt lat="43.21538" lon="5.46575">
        <ele>447.2</ele>
        <time>2022-03-23T11:29:52Z</time>
      </trkpt>
      <trkpt lat="43.21533" lon="5.46575">
        <ele>445.6</ele>
        <time>2022-03-23T11:29:58Z</time>
      </trkpt>
      <trkpt lat="43.21529" lon="5.46578">
        <ele>444.8</ele>
        <time>2022-03-23T11:30:08Z</time>
      </trkpt>
      <trkpt lat="43.21524" lon="5.46579">
        <ele>444.2</ele>
        <time>2022-03-23T11:30:20Z</time>
      </trkpt>
      <trkpt lat="43.21519" lon="5.46578">
        <ele>443.1</ele>
        <time>2022-03-23T11:30:30Z</time>
      </trkpt>
      <trkpt lat="43.21515" lon="5.46579">
        <ele>442.8</ele>
        <time>2022-03-23T11:30:40Z</time>
      </trkpt>
      <trkpt lat="43.2151" lon="5.46584">
        <ele>443.2</ele>
        <time>2022-03-23T11:30:48Z</time>
      </trkpt>
      <trkpt lat="43.21505" lon="5.46588">
        <ele>441.1</ele>
        <time>2022-03-23T11:31:02Z</time>
      </trkpt>
      <trkpt lat="43.215" lon="5.46591">
        <ele>439.7</ele>
        <time>2022-03-23T11:31:10Z</time>
      </trkpt>
      <trkpt lat="43.21498" lon="5.46597">
        <ele>438</ele>
        <time>2022-03-23T11:31:22Z</time>
      </trkpt>
      <trkpt lat="43.21494" lon="5.46601">
        <ele>436.8</ele>
        <time>2022-03-23T11:31:28Z</time>
      </trkpt>
      <trkpt lat="43.21489" lon="5.46603">
        <ele>436.3</ele>
        <time>2022-03-23T11:31:38Z</time>
      </trkpt>
      <trkpt lat="43.21486" lon="5.46596">
        <ele>438</ele>
        <time>2022-03-23T11:31:56Z</time>
      </trkpt>
      <trkpt lat="43.21481" lon="5.466">
        <ele>436.9</ele>
        <time>2022-03-23T11:32:12Z</time>
      </trkpt>
      <trkpt lat="43.21477" lon="5.46598">
        <ele>437.5</ele>
        <time>2022-03-23T11:32:20Z</time>
      </trkpt>
      <trkpt lat="43.21473" lon="5.46594">
        <ele>438.4</ele>
        <time>2022-03-23T11:32:26Z</time>
      </trkpt>
      <trkpt lat="43.21468" lon="5.46591">
        <ele>438.1</ele>
        <time>2022-03-23T11:32:32Z</time>
      </trkpt>
      <trkpt lat="43.21464" lon="5.46595">
        <ele>436.6</ele>
        <time>2022-03-23T11:33:06Z</time>
      </trkpt>
      <trkpt lat="43.21459" lon="5.46596">
        <ele>435.5</ele>
        <time>2022-03-23T11:33:30Z</time>
      </trkpt>
      <trkpt lat="43.21454" lon="5.46596">
        <ele>434.7</ele>
        <time>2022-03-23T11:33:40Z</time>
      </trkpt>
      <trkpt lat="43.21449" lon="5.46599">
        <ele>433.5</ele>
        <time>2022-03-23T11:33:46Z</time>
      </trkpt>
      <trkpt lat="43.21444" lon="5.46599">
        <ele>432.8</ele>
        <time>2022-03-23T11:33:58Z</time>
      </trkpt>
      <trkpt lat="43.21438" lon="5.46601">
        <ele>432.2</ele>
        <time>2022-03-23T11:34:06Z</time>
      </trkpt>
      <trkpt lat="43.21433" lon="5.466">
        <ele>431.8</ele>
        <time>2022-03-23T11:34:12Z</time>
      </trkpt>
      <trkpt lat="43.21427" lon="5.46601">
        <ele>431.2</ele>
        <time>2022-03-23T11:34:18Z</time>
      </trkpt>
      <trkpt lat="43.21422" lon="5.46603">
        <ele>430.9</ele>
        <time>2022-03-23T11:34:22Z</time>
      </trkpt>
      <trkpt lat="43.21418" lon="5.46605">
        <ele>430.6</ele>
        <time>2022-03-23T11:34:28Z</time>
      </trkpt>
      <trkpt lat="43.21413" lon="5.46606">
        <ele>430.9</ele>
        <time>2022-03-23T11:34:36Z</time>
      </trkpt>
      <trkpt lat="43.21407" lon="5.46607">
        <ele>431.4</ele>
        <time>2022-03-23T11:34:44Z</time>
      </trkpt>
      <trkpt lat="43.21402" lon="5.46606">
        <ele>431.7</ele>
        <time>2022-03-23T11:34:50Z</time>
      </trkpt>
      <trkpt lat="43.21396" lon="5.46607">
        <ele>432.1</ele>
        <time>2022-03-23T11:34:58Z</time>
      </trkpt>
      <trkpt lat="43.21392" lon="5.46609">
        <ele>432.7</ele>
        <time>2022-03-23T11:35:02Z</time>
      </trkpt>
      <trkpt lat="43.21387" lon="5.46613">
        <ele>432.2</ele>
        <time>2022-03-23T11:35:08Z</time>
      </trkpt>
      <trkpt lat="43.21381" lon="5.46616">
        <ele>430.8</ele>
        <time>2022-03-23T11:35:14Z</time>
      </trkpt>
      <trkpt lat="43.21375" lon="5.46618">
        <ele>430.1</ele>
        <time>2022-03-23T11:35:22Z</time>
      </trkpt>
      <trkpt lat="43.2137" lon="5.46616">
        <ele>430.8</ele>
        <time>2022-03-23T11:35:30Z</time>
      </trkpt>
      <trkpt lat="43.21366" lon="5.46613">
        <ele>432.1</ele>
        <time>2022-03-23T11:35:38Z</time>
      </trkpt>
      <trkpt lat="43.21361" lon="5.4661">
        <ele>433</ele>
        <time>2022-03-23T11:35:48Z</time>
      </trkpt>
      <trkpt lat="43.21356" lon="5.4661">
        <ele>431.8</ele>
        <time>2022-03-23T11:35:56Z</time>
      </trkpt>
      <trkpt lat="43.21351" lon="5.46607">
        <ele>430.7</ele>
        <time>2022-03-23T11:36:04Z</time>
      </trkpt>
      <trkpt lat="43.21347" lon="5.46601">
        <ele>429.4</ele>
        <time>2022-03-23T11:36:10Z</time>
      </trkpt>
      <trkpt lat="43.21343" lon="5.46596">
        <ele>428</ele>
        <time>2022-03-23T11:36:16Z</time>
      </trkpt>
      <trkpt lat="43.21338" lon="5.46593">
        <ele>426.5</ele>
        <time>2022-03-23T11:36:24Z</time>
      </trkpt>
      <trkpt lat="43.21334" lon="5.46596">
        <ele>425.6</ele>
        <time>2022-03-23T11:36:30Z</time>
      </trkpt>
      <trkpt lat="43.21329" lon="5.46598">
        <ele>425.2</ele>
        <time>2022-03-23T11:36:38Z</time>
      </trkpt>
      <trkpt lat="43.21327" lon="5.46605">
        <ele>425.8</ele>
        <time>2022-03-23T11:36:50Z</time>
      </trkpt>
      <trkpt lat="43.21322" lon="5.46606">
        <ele>425.6</ele>
        <time>2022-03-23T11:36:58Z</time>
      </trkpt>
      <trkpt lat="43.21316" lon="5.46605">
        <ele>424.9</ele>
        <time>2022-03-23T11:37:06Z</time>
      </trkpt>
      <trkpt lat="43.21312" lon="5.46602">
        <ele>424.1</ele>
        <time>2022-03-23T11:37:16Z</time>
      </trkpt>
      <trkpt lat="43.21308" lon="5.46598">
        <ele>423.2</ele>
        <time>2022-03-23T11:37:22Z</time>
      </trkpt>
      <trkpt lat="43.21301" lon="5.46596">
        <ele>422</ele>
        <time>2022-03-23T11:37:28Z</time>
      </trkpt>
      <trkpt lat="43.21296" lon="5.46596">
        <ele>421.1</ele>
        <time>2022-03-23T11:37:42Z</time>
      </trkpt>
      <trkpt lat="43.21291" lon="5.46598">
        <ele>420.5</ele>
        <time>2022-03-23T11:37:52Z</time>
      </trkpt>
      <trkpt lat="43.21285" lon="5.46601">
        <ele>420.7</ele>
        <time>2022-03-23T11:37:58Z</time>
      </trkpt>
      <trkpt lat="43.21281" lon="5.46605">
        <ele>421.6</ele>
        <time>2022-03-23T11:38:06Z</time>
      </trkpt>
      <trkpt lat="43.21277" lon="5.466">
        <ele>419.3</ele>
        <time>2022-03-23T11:38:16Z</time>
      </trkpt>
      <trkpt lat="43.21278" lon="5.46607">
        <ele>422.2</ele>
        <time>2022-03-23T11:38:34Z</time>
      </trkpt>
      <trkpt lat="43.21279" lon="5.46613">
        <ele>423.5</ele>
        <time>2022-03-23T11:38:58Z</time>
      </trkpt>
      <trkpt lat="43.21274" lon="5.46614">
        <ele>423.1</ele>
        <time>2022-03-23T11:39:06Z</time>
      </trkpt>
      <trkpt lat="43.21269" lon="5.46615">
        <ele>423.1</ele>
        <time>2022-03-23T11:39:12Z</time>
      </trkpt>
      <trkpt lat="43.21264" lon="5.46619">
        <ele>422.9</ele>
        <time>2022-03-23T11:39:20Z</time>
      </trkpt>
      <trkpt lat="43.21263" lon="5.46625">
        <ele>422.1</ele>
        <time>2022-03-23T11:39:26Z</time>
      </trkpt>
      <trkpt lat="43.21261" lon="5.4663">
        <ele>422</ele>
        <time>2022-03-23T11:39:42Z</time>
      </trkpt>
      <trkpt lat="43.21257" lon="5.46633">
        <ele>422.9</ele>
        <time>2022-03-23T11:39:50Z</time>
      </trkpt>
      <trkpt lat="43.21252" lon="5.46636">
        <ele>424.1</ele>
        <time>2022-03-23T11:40:00Z</time>
      </trkpt>
      <trkpt lat="43.21258" lon="5.46638">
        <ele>422.2</ele>
        <time>2022-03-23T11:40:40Z</time>
      </trkpt>
      <trkpt lat="43.21261" lon="5.46632">
        <ele>421.8</ele>
        <time>2022-03-23T11:40:50Z</time>
      </trkpt>
      <trkpt lat="43.21265" lon="5.46627">
        <ele>421.5</ele>
        <time>2022-03-23T11:41:02Z</time>
      </trkpt>
      <trkpt lat="43.21269" lon="5.46622">
        <ele>421.8</ele>
        <time>2022-03-23T11:41:08Z</time>
      </trkpt>
      <trkpt lat="43.21271" lon="5.46616">
        <ele>422.9</ele>
        <time>2022-03-23T11:41:14Z</time>
      </trkpt>
      <trkpt lat="43.21276" lon="5.46613">
        <ele>423.5</ele>
        <time>2022-03-23T11:41:18Z</time>
      </trkpt>
      <trkpt lat="43.2128" lon="5.4661">
        <ele>423.5</ele>
        <time>2022-03-23T11:41:22Z</time>
      </trkpt>
      <trkpt lat="43.21285" lon="5.46607">
        <ele>422.9</ele>
        <time>2022-03-23T11:41:26Z</time>
      </trkpt>
      <trkpt lat="43.2129" lon="5.46605">
        <ele>422.4</ele>
        <time>2022-03-23T11:41:32Z</time>
      </trkpt>
      <trkpt lat="43.21296" lon="5.46603">
        <ele>422.5</ele>
        <time>2022-03-23T11:41:38Z</time>
      </trkpt>
      <trkpt lat="43.21301" lon="5.46603">
        <ele>423.4</ele>
        <time>2022-03-23T11:41:44Z</time>
      </trkpt>
      <trkpt lat="43.21306" lon="5.46603">
        <ele>423.9</ele>
        <time>2022-03-23T11:41:50Z</time>
      </trkpt>
      <trkpt lat="43.21307" lon="5.46597">
        <ele>423</ele>
        <time>2022-03-23T11:41:58Z</time>
      </trkpt>
      <trkpt lat="43.21303" lon="5.46592">
        <ele>421.6</ele>
        <time>2022-03-23T11:42:06Z</time>
      </trkpt>
      <trkpt lat="43.21298" lon="5.46592">
        <ele>420.5</ele>
        <time>2022-03-23T11:42:14Z</time>
      </trkpt>
      <trkpt lat="43.21295" lon="5.46587">
        <ele>418.4</ele>
        <time>2022-03-23T11:43:32Z</time>
      </trkpt>
      <trkpt lat="43.2129" lon="5.46584">
        <ele>416.1</ele>
        <time>2022-03-23T11:43:46Z</time>
      </trkpt>
      <trkpt lat="43.21294" lon="5.46588">
        <ele>418.4</ele>
        <time>2022-03-23T11:44:14Z</time>
      </trkpt>
      <trkpt lat="43.21298" lon="5.46591">
        <ele>420.3</ele>
        <time>2022-03-23T11:44:24Z</time>
      </trkpt>
      <trkpt lat="43.21295" lon="5.46585">
        <ele>418.1</ele>
        <time>2022-03-23T13:00:14Z</time>
      </trkpt>
      <trkpt lat="43.21292" lon="5.46578">
        <ele>413.2</ele>
        <time>2022-03-23T13:00:18Z</time>
      </trkpt>
      <trkpt lat="43.2129" lon="5.46585">
        <ele>416.5</ele>
        <time>2022-03-23T13:00:26Z</time>
      </trkpt>
      <trkpt lat="43.21296" lon="5.46589">
        <ele>419.3</ele>
        <time>2022-03-23T13:00:38Z</time>
      </trkpt>
      <trkpt lat="43.21294" lon="5.46582">
        <ele>416.5</ele>
        <time>2022-03-23T13:00:46Z</time>
      </trkpt>
      <trkpt lat="43.21292" lon="5.46574">
        <ele>411.4</ele>
        <time>2022-03-23T13:00:48Z</time>
      </trkpt>
      <trkpt lat="43.21293" lon="5.46581">
        <ele>415.3</ele>
        <time>2022-03-23T13:00:53Z</time>
      </trkpt>
      <trkpt lat="43.21297" lon="5.46585">
        <ele>418.7</ele>
        <time>2022-03-23T13:02:11Z</time>
      </trkpt>
      <trkpt lat="43.21301" lon="5.46589">
        <ele>420.7</ele>
        <time>2022-03-23T13:02:21Z</time>
      </trkpt>
      <trkpt lat="43.21305" lon="5.46585">
        <ele>421.2</ele>
        <time>2022-03-23T13:02:41Z</time>
      </trkpt>
      <trkpt lat="43.2131" lon="5.46583">
        <ele>421.5</ele>
        <time>2022-03-23T13:02:51Z</time>
      </trkpt>
      <trkpt lat="43.21315" lon="5.46585">
        <ele>422.2</ele>
        <time>2022-03-23T13:02:59Z</time>
      </trkpt>
      <trkpt lat="43.2132" lon="5.46582">
        <ele>421.8</ele>
        <time>2022-03-23T13:03:07Z</time>
      </trkpt>
      <trkpt lat="43.21325" lon="5.46581">
        <ele>422.1</ele>
        <time>2022-03-23T13:03:13Z</time>
      </trkpt>
      <trkpt lat="43.2133" lon="5.46579">
        <ele>422</ele>
        <time>2022-03-23T13:03:19Z</time>
      </trkpt>
      <trkpt lat="43.21335" lon="5.46575">
        <ele>421</ele>
        <time>2022-03-23T13:03:27Z</time>
      </trkpt>
      <trkpt lat="43.21339" lon="5.4657">
        <ele>420.6</ele>
        <time>2022-03-23T13:03:37Z</time>
      </trkpt>
      <trkpt lat="43.21341" lon="5.46565">
        <ele>419.6</ele>
        <time>2022-03-23T13:03:47Z</time>
      </trkpt>
      <trkpt lat="43.21344" lon="5.46559">
        <ele>418.1</ele>
        <time>2022-03-23T13:03:57Z</time>
      </trkpt>
      <trkpt lat="43.21345" lon="5.46552">
        <ele>416.1</ele>
        <time>2022-03-23T13:04:09Z</time>
      </trkpt>
      <trkpt lat="43.21347" lon="5.46546">
        <ele>414.4</ele>
        <time>2022-03-23T13:04:17Z</time>
      </trkpt>
      <trkpt lat="43.2135" lon="5.46541">
        <ele>413.6</ele>
        <time>2022-03-23T13:04:23Z</time>
      </trkpt>
      <trkpt lat="43.21353" lon="5.46536">
        <ele>412.9</ele>
        <time>2022-03-23T13:04:29Z</time>
      </trkpt>
      <trkpt lat="43.21357" lon="5.46533">
        <ele>413.7</ele>
        <time>2022-03-23T13:04:35Z</time>
      </trkpt>
      <trkpt lat="43.21363" lon="5.46531">
        <ele>414</ele>
        <time>2022-03-23T13:04:43Z</time>
      </trkpt>
      <trkpt lat="43.21367" lon="5.46534">
        <ele>414.1</ele>
        <time>2022-03-23T13:04:51Z</time>
      </trkpt>
      <trkpt lat="43.21372" lon="5.46532">
        <ele>412.1</ele>
        <time>2022-03-23T13:05:05Z</time>
      </trkpt>
      <trkpt lat="43.21374" lon="5.46526">
        <ele>409.3</ele>
        <time>2022-03-23T13:05:33Z</time>
      </trkpt>
      <trkpt lat="43.2138" lon="5.46523">
        <ele>406.7</ele>
        <time>2022-03-23T13:05:43Z</time>
      </trkpt>
      <trkpt lat="43.21384" lon="5.46519">
        <ele>404.1</ele>
        <time>2022-03-23T13:05:49Z</time>
      </trkpt>
      <trkpt lat="43.21389" lon="5.46517">
        <ele>401.7</ele>
        <time>2022-03-23T13:05:57Z</time>
      </trkpt>
      <trkpt lat="43.21395" lon="5.46515">
        <ele>400.1</ele>
        <time>2022-03-23T13:06:05Z</time>
      </trkpt>
      <trkpt lat="43.214" lon="5.46515">
        <ele>398.9</ele>
        <time>2022-03-23T13:06:13Z</time>
      </trkpt>
      <trkpt lat="43.21405" lon="5.46512">
        <ele>396.7</ele>
        <time>2022-03-23T13:06:21Z</time>
      </trkpt>
      <trkpt lat="43.21411" lon="5.46513">
        <ele>396.1</ele>
        <time>2022-03-23T13:06:29Z</time>
      </trkpt>
      <trkpt lat="43.21416" lon="5.46515">
        <ele>396</ele>
        <time>2022-03-23T13:06:37Z</time>
      </trkpt>
      <trkpt lat="43.21421" lon="5.46513">
        <ele>396</ele>
        <time>2022-03-23T13:06:47Z</time>
      </trkpt>
      <trkpt lat="43.21425" lon="5.4651">
        <ele>395.6</ele>
        <time>2022-03-23T13:06:59Z</time>
      </trkpt>
      <trkpt lat="43.21428" lon="5.46506">
        <ele>394.6</ele>
        <time>2022-03-23T13:07:17Z</time>
      </trkpt>
      <trkpt lat="43.21429" lon="5.46499">
        <ele>391.9</ele>
        <time>2022-03-23T13:08:03Z</time>
      </trkpt>
      <trkpt lat="43.21432" lon="5.46494">
        <ele>389.3</ele>
        <time>2022-03-23T13:08:15Z</time>
      </trkpt>
      <trkpt lat="43.21437" lon="5.46489">
        <ele>387.1</ele>
        <time>2022-03-23T13:08:25Z</time>
      </trkpt>
      <trkpt lat="43.21442" lon="5.46491">
        <ele>389.8</ele>
        <time>2022-03-23T13:08:51Z</time>
      </trkpt>
      <trkpt lat="43.21446" lon="5.4649">
        <ele>389.8</ele>
        <time>2022-03-23T13:10:07Z</time>
      </trkpt>
      <trkpt lat="43.21451" lon="5.46485">
        <ele>387.6</ele>
        <time>2022-03-23T13:11:53Z</time>
      </trkpt>
      <trkpt lat="43.21456" lon="5.46484">
        <ele>387.8</ele>
        <time>2022-03-23T13:12:05Z</time>
      </trkpt>
      <trkpt lat="43.21459" lon="5.46479">
        <ele>384.5</ele>
        <time>2022-03-23T13:12:13Z</time>
      </trkpt>
      <trkpt lat="43.21463" lon="5.46475">
        <ele>383.1</ele>
        <time>2022-03-23T13:12:19Z</time>
      </trkpt>
      <trkpt lat="43.21466" lon="5.46469">
        <ele>380.9</ele>
        <time>2022-03-23T13:12:27Z</time>
      </trkpt>
      <trkpt lat="43.21468" lon="5.46462">
        <ele>379.6</ele>
        <time>2022-03-23T13:12:35Z</time>
      </trkpt>
      <trkpt lat="43.21467" lon="5.46453">
        <ele>377.1</ele>
        <time>2022-03-23T13:12:49Z</time>
      </trkpt>
      <trkpt lat="43.21465" lon="5.46447">
        <ele>374.9</ele>
        <time>2022-03-23T13:12:53Z</time>
      </trkpt>
      <trkpt lat="43.21462" lon="5.46442">
        <ele>373.7</ele>
        <time>2022-03-23T13:12:57Z</time>
      </trkpt>
      <trkpt lat="43.21458" lon="5.46437">
        <ele>373.2</ele>
        <time>2022-03-23T13:13:05Z</time>
      </trkpt>
      <trkpt lat="43.21454" lon="5.46434">
        <ele>371.9</ele>
        <time>2022-03-23T13:13:11Z</time>
      </trkpt>
      <trkpt lat="43.21449" lon="5.46432">
        <ele>369.9</ele>
        <time>2022-03-23T13:13:17Z</time>
      </trkpt>
      <trkpt lat="43.21446" lon="5.46427">
        <ele>368.9</ele>
        <time>2022-03-23T13:13:23Z</time>
      </trkpt>
      <trkpt lat="43.21443" lon="5.46419">
        <ele>368.3</ele>
        <time>2022-03-23T13:13:29Z</time>
      </trkpt>
      <trkpt lat="43.21441" lon="5.46413">
        <ele>367.4</ele>
        <time>2022-03-23T13:13:33Z</time>
      </trkpt>
      <trkpt lat="43.21439" lon="5.46408">
        <ele>366.3</ele>
        <time>2022-03-23T13:13:37Z</time>
      </trkpt>
      <trkpt lat="43.2144" lon="5.46399">
        <ele>366.9</ele>
        <time>2022-03-23T13:13:43Z</time>
      </trkpt>
      <trkpt lat="43.21442" lon="5.4639">
        <ele>367.8</ele>
        <time>2022-03-23T13:13:49Z</time>
      </trkpt>
      <trkpt lat="43.21445" lon="5.46383">
        <ele>367.7</ele>
        <time>2022-03-23T13:13:55Z</time>
      </trkpt>
      <trkpt lat="43.21449" lon="5.4638">
        <ele>368.9</ele>
        <time>2022-03-23T13:14:01Z</time>
      </trkpt>
      <trkpt lat="43.21451" lon="5.46374">
        <ele>368.1</ele>
        <time>2022-03-23T13:14:11Z</time>
      </trkpt>
      <trkpt lat="43.21453" lon="5.46368">
        <ele>366.9</ele>
        <time>2022-03-23T13:14:17Z</time>
      </trkpt>
      <trkpt lat="43.21456" lon="5.46361">
        <ele>365.5</ele>
        <time>2022-03-23T13:14:23Z</time>
      </trkpt>
      <trkpt lat="43.21459" lon="5.46355">
        <ele>365</ele>
        <time>2022-03-23T13:14:29Z</time>
      </trkpt>
      <trkpt lat="43.21462" lon="5.46349">
        <ele>364.8</ele>
        <time>2022-03-23T13:14:35Z</time>
      </trkpt>
      <trkpt lat="43.21465" lon="5.46342">
        <ele>364.5</ele>
        <time>2022-03-23T13:14:41Z</time>
      </trkpt>
      <trkpt lat="43.21468" lon="5.46336">
        <ele>364</ele>
        <time>2022-03-23T13:14:45Z</time>
      </trkpt>
      <trkpt lat="43.21467" lon="5.46329">
        <ele>363.8</ele>
        <time>2022-03-23T13:15:01Z</time>
      </trkpt>
      <trkpt lat="43.21462" lon="5.46326">
        <ele>362.2</ele>
        <time>2022-03-23T13:15:07Z</time>
      </trkpt>
      <trkpt lat="43.21457" lon="5.46324">
        <ele>360.7</ele>
        <time>2022-03-23T13:15:15Z</time>
      </trkpt>
      <trkpt lat="43.21451" lon="5.46323">
        <ele>358.5</ele>
        <time>2022-03-23T13:15:19Z</time>
      </trkpt>
      <trkpt lat="43.21445" lon="5.46321">
        <ele>356.6</ele>
        <time>2022-03-23T13:15:25Z</time>
      </trkpt>
      <trkpt lat="43.21441" lon="5.46315">
        <ele>355.4</ele>
        <time>2022-03-23T13:15:31Z</time>
      </trkpt>
      <trkpt lat="43.21437" lon="5.46311">
        <ele>353.7</ele>
        <time>2022-03-23T13:15:37Z</time>
      </trkpt>
      <trkpt lat="43.21436" lon="5.46304">
        <ele>354.1</ele>
        <time>2022-03-23T13:15:47Z</time>
      </trkpt>
      <trkpt lat="43.21436" lon="5.46297">
        <ele>354.2</ele>
        <time>2022-03-23T13:15:57Z</time>
      </trkpt>
      <trkpt lat="43.21435" lon="5.4629">
        <ele>353.9</ele>
        <time>2022-03-23T13:16:05Z</time>
      </trkpt>
      <trkpt lat="43.21437" lon="5.46284">
        <ele>355.3</ele>
        <time>2022-03-23T13:16:13Z</time>
      </trkpt>
      <trkpt lat="43.21438" lon="5.46277">
        <ele>356.2</ele>
        <time>2022-03-23T13:16:19Z</time>
      </trkpt>
      <trkpt lat="43.21437" lon="5.46271">
        <ele>355.6</ele>
        <time>2022-03-23T13:16:29Z</time>
      </trkpt>
      <trkpt lat="43.21437" lon="5.46265">
        <ele>355</ele>
        <time>2022-03-23T13:16:39Z</time>
      </trkpt>
      <trkpt lat="43.21437" lon="5.46257">
        <ele>354.5</ele>
        <time>2022-03-23T13:16:47Z</time>
      </trkpt>
      <trkpt lat="43.21437" lon="5.4625">
        <ele>354.5</ele>
        <time>2022-03-23T13:16:53Z</time>
      </trkpt>
      <trkpt lat="43.21437" lon="5.46243">
        <ele>353.8</ele>
        <time>2022-03-23T13:16:59Z</time>
      </trkpt>
      <trkpt lat="43.21438" lon="5.46235">
        <ele>353.3</ele>
        <time>2022-03-23T13:17:05Z</time>
      </trkpt>
      <trkpt lat="43.21438" lon="5.46228">
        <ele>353</ele>
        <time>2022-03-23T13:17:11Z</time>
      </trkpt>
      <trkpt lat="43.2144" lon="5.46222">
        <ele>353.2</ele>
        <time>2022-03-23T13:17:17Z</time>
      </trkpt>
      <trkpt lat="43.21441" lon="5.46214">
        <ele>353</ele>
        <time>2022-03-23T13:17:23Z</time>
      </trkpt>
      <trkpt lat="43.21442" lon="5.46208">
        <ele>352.8</ele>
        <time>2022-03-23T13:17:29Z</time>
      </trkpt>
      <trkpt lat="43.21443" lon="5.46201">
        <ele>351.8</ele>
        <time>2022-03-23T13:17:37Z</time>
      </trkpt>
      <trkpt lat="43.21446" lon="5.46195">
        <ele>352.7</ele>
        <time>2022-03-23T13:17:47Z</time>
      </trkpt>
      <trkpt lat="43.2145" lon="5.46189">
        <ele>351.9</ele>
        <time>2022-03-23T13:17:55Z</time>
      </trkpt>
      <trkpt lat="43.21455" lon="5.4619">
        <ele>354.3</ele>
        <time>2022-03-23T13:18:03Z</time>
      </trkpt>
      <trkpt lat="43.2146" lon="5.46192">
        <ele>356.7</ele>
        <time>2022-03-23T13:18:09Z</time>
      </trkpt>
      <trkpt lat="43.21464" lon="5.46187">
        <ele>355.9</ele>
        <time>2022-03-23T13:18:15Z</time>
      </trkpt>
      <trkpt lat="43.21469" lon="5.46182">
        <ele>354.8</ele>
        <time>2022-03-23T13:18:21Z</time>
      </trkpt>
      <trkpt lat="43.21474" lon="5.4618">
        <ele>355</ele>
        <time>2022-03-23T13:18:27Z</time>
      </trkpt>
      <trkpt lat="43.21478" lon="5.46179">
        <ele>356.5</ele>
        <time>2022-03-23T13:18:33Z</time>
      </trkpt>
      <trkpt lat="43.21483" lon="5.46178">
        <ele>357.5</ele>
        <time>2022-03-23T13:18:41Z</time>
      </trkpt>
      <trkpt lat="43.21488" lon="5.46175">
        <ele>357.2</ele>
        <time>2022-03-23T13:18:47Z</time>
      </trkpt>
      <trkpt lat="43.21493" lon="5.46172">
        <ele>357.3</ele>
        <time>2022-03-23T13:18:53Z</time>
      </trkpt>
      <trkpt lat="43.21497" lon="5.46168">
        <ele>356.7</ele>
        <time>2022-03-23T13:18:59Z</time>
      </trkpt>
      <trkpt lat="43.21502" lon="5.46164">
        <ele>356.6</ele>
        <time>2022-03-23T13:19:05Z</time>
      </trkpt>
      <trkpt lat="43.21507" lon="5.46161">
        <ele>358</ele>
        <time>2022-03-23T13:19:15Z</time>
      </trkpt>
      <trkpt lat="43.21513" lon="5.46159">
        <ele>360.4</ele>
        <time>2022-03-23T13:19:25Z</time>
      </trkpt>
      <trkpt lat="43.21516" lon="5.46154">
        <ele>360.3</ele>
        <time>2022-03-23T13:19:33Z</time>
      </trkpt>
      <trkpt lat="43.21518" lon="5.46147">
        <ele>358.1</ele>
        <time>2022-03-23T13:19:43Z</time>
      </trkpt>
      <trkpt lat="43.21521" lon="5.46142">
        <ele>358.6</ele>
        <time>2022-03-23T13:19:51Z</time>
      </trkpt>
      <trkpt lat="43.21524" lon="5.46136">
        <ele>358.4</ele>
        <time>2022-03-23T13:19:57Z</time>
      </trkpt>
      <trkpt lat="43.21526" lon="5.46128">
        <ele>358</ele>
        <time>2022-03-23T13:20:03Z</time>
      </trkpt>
      <trkpt lat="43.21528" lon="5.46121">
        <ele>357.5</ele>
        <time>2022-03-23T13:20:09Z</time>
      </trkpt>
      <trkpt lat="43.21529" lon="5.46114">
        <ele>357.5</ele>
        <time>2022-03-23T13:20:15Z</time>
      </trkpt>
      <trkpt lat="43.21529" lon="5.46108">
        <ele>357.3</ele>
        <time>2022-03-23T13:20:21Z</time>
      </trkpt>
      <trkpt lat="43.21527" lon="5.46102">
        <ele>356</ele>
        <time>2022-03-23T13:20:27Z</time>
      </trkpt>
      <trkpt lat="43.21525" lon="5.46096">
        <ele>355.2</ele>
        <time>2022-03-23T13:20:41Z</time>
      </trkpt>
      <trkpt lat="43.21524" lon="5.4609">
        <ele>355.3</ele>
        <time>2022-03-23T13:20:47Z</time>
      </trkpt>
      <trkpt lat="43.21526" lon="5.46083">
        <ele>357.4</ele>
        <time>2022-03-23T13:20:53Z</time>
      </trkpt>
      <trkpt lat="43.21528" lon="5.46078">
        <ele>358.7</ele>
        <time>2022-03-23T13:20:59Z</time>
      </trkpt>
      <trkpt lat="43.2153" lon="5.46071">
        <ele>359.7</ele>
        <time>2022-03-23T13:21:05Z</time>
      </trkpt>
      <trkpt lat="43.21532" lon="5.46065">
        <ele>359.8</ele>
        <time>2022-03-23T13:21:11Z</time>
      </trkpt>
      <trkpt lat="43.21532" lon="5.46057">
        <ele>358.9</ele>
        <time>2022-03-23T13:21:19Z</time>
      </trkpt>
      <trkpt lat="43.21533" lon="5.4605">
        <ele>357.3</ele>
        <time>2022-03-23T13:21:25Z</time>
      </trkpt>
      <trkpt lat="43.21532" lon="5.46044">
        <ele>355.5</ele>
        <time>2022-03-23T13:21:33Z</time>
      </trkpt>
      <trkpt lat="43.21537" lon="5.46046">
        <ele>356.2</ele>
        <time>2022-03-23T13:21:47Z</time>
      </trkpt>
      <trkpt lat="43.21543" lon="5.46048">
        <ele>357.2</ele>
        <time>2022-03-23T13:21:55Z</time>
      </trkpt>
      <trkpt lat="43.21548" lon="5.46051">
        <ele>358.9</ele>
        <time>2022-03-23T13:22:01Z</time>
      </trkpt>
      <trkpt lat="43.21554" lon="5.46052">
        <ele>360</ele>
        <time>2022-03-23T13:22:07Z</time>
      </trkpt>
      <trkpt lat="43.21558" lon="5.46054">
        <ele>361</ele>
        <time>2022-03-23T13:22:11Z</time>
      </trkpt>
      <trkpt lat="43.21563" lon="5.46058">
        <ele>363.1</ele>
        <time>2022-03-23T13:22:17Z</time>
      </trkpt>
      <trkpt lat="43.21567" lon="5.46062">
        <ele>365.3</ele>
        <time>2022-03-23T13:22:23Z</time>
      </trkpt>
      <trkpt lat="43.21572" lon="5.46063">
        <ele>365.6</ele>
        <time>2022-03-23T13:22:31Z</time>
      </trkpt>
      <trkpt lat="43.21578" lon="5.46065">
        <ele>365.9</ele>
        <time>2022-03-23T13:22:39Z</time>
      </trkpt>
      <trkpt lat="43.21583" lon="5.46065">
        <ele>365.7</ele>
        <time>2022-03-23T13:22:45Z</time>
      </trkpt>
      <trkpt lat="43.21588" lon="5.46067">
        <ele>366.8</ele>
        <time>2022-03-23T13:22:53Z</time>
      </trkpt>
      <trkpt lat="43.21594" lon="5.46067">
        <ele>367.6</ele>
        <time>2022-03-23T13:23:05Z</time>
      </trkpt>
      <trkpt lat="43.216" lon="5.46066">
        <ele>367.6</ele>
        <time>2022-03-23T13:23:11Z</time>
      </trkpt>
      <trkpt lat="43.21604" lon="5.46063">
        <ele>366.3</ele>
        <time>2022-03-23T13:23:17Z</time>
      </trkpt>
      <trkpt lat="43.21609" lon="5.46058">
        <ele>364.3</ele>
        <time>2022-03-23T13:23:23Z</time>
      </trkpt>
      <trkpt lat="43.21614" lon="5.46054">
        <ele>361.7</ele>
        <time>2022-03-23T13:23:29Z</time>
      </trkpt>
      <trkpt lat="43.21619" lon="5.46051">
        <ele>360</ele>
        <time>2022-03-23T13:23:35Z</time>
      </trkpt>
      <trkpt lat="43.21625" lon="5.46051">
        <ele>359.1</ele>
        <time>2022-03-23T13:23:43Z</time>
      </trkpt>
      <trkpt lat="43.2163" lon="5.46053">
        <ele>360</ele>
        <time>2022-03-23T13:23:49Z</time>
      </trkpt>
      <trkpt lat="43.21635" lon="5.46058">
        <ele>361.7</ele>
        <time>2022-03-23T13:23:57Z</time>
      </trkpt>
      <trkpt lat="43.2164" lon="5.46061">
        <ele>362.7</ele>
        <time>2022-03-23T13:24:03Z</time>
      </trkpt>
      <trkpt lat="43.21644" lon="5.46063">
        <ele>363</ele>
        <time>2022-03-23T13:24:09Z</time>
      </trkpt>
      <trkpt lat="43.21649" lon="5.46067">
        <ele>364.1</ele>
        <time>2022-03-23T13:24:15Z</time>
      </trkpt>
      <trkpt lat="43.21654" lon="5.46071">
        <ele>364.9</ele>
        <time>2022-03-23T13:24:21Z</time>
      </trkpt>
      <trkpt lat="43.21659" lon="5.46073">
        <ele>364.9</ele>
        <time>2022-03-23T13:24:27Z</time>
      </trkpt>
      <trkpt lat="43.21666" lon="5.46073">
        <ele>363</ele>
        <time>2022-03-23T13:24:33Z</time>
      </trkpt>
      <trkpt lat="43.21671" lon="5.46067">
        <ele>362.4</ele>
        <time>2022-03-23T13:24:39Z</time>
      </trkpt>
      <trkpt lat="43.21676" lon="5.46062">
        <ele>362</ele>
        <time>2022-03-23T13:24:45Z</time>
      </trkpt>
      <trkpt lat="43.21682" lon="5.46057">
        <ele>361.8</ele>
        <time>2022-03-23T13:24:51Z</time>
      </trkpt>
      <trkpt lat="43.21687" lon="5.46052">
        <ele>361.4</ele>
        <time>2022-03-23T13:24:57Z</time>
      </trkpt>
      <trkpt lat="43.21692" lon="5.4605">
        <ele>362.5</ele>
        <time>2022-03-23T13:25:03Z</time>
      </trkpt>
      <trkpt lat="43.21698" lon="5.46048">
        <ele>364.4</ele>
        <time>2022-03-23T13:25:09Z</time>
      </trkpt>
      <trkpt lat="43.21703" lon="5.46046">
        <ele>366.4</ele>
        <time>2022-03-23T13:25:17Z</time>
      </trkpt>
      <trkpt lat="43.21705" lon="5.46039">
        <ele>365.3</ele>
        <time>2022-03-23T13:25:25Z</time>
      </trkpt>
      <trkpt lat="43.21704" lon="5.46033">
        <ele>363.4</ele>
        <time>2022-03-23T13:25:29Z</time>
      </trkpt>
      <trkpt lat="43.21703" lon="5.46026">
        <ele>362.1</ele>
        <time>2022-03-23T13:25:35Z</time>
      </trkpt>
      <trkpt lat="43.217" lon="5.46022">
        <ele>361.6</ele>
        <time>2022-03-23T13:25:41Z</time>
      </trkpt>
      <trkpt lat="43.21696" lon="5.46018">
        <ele>360.5</ele>
        <time>2022-03-23T13:25:47Z</time>
      </trkpt>
      <trkpt lat="43.21692" lon="5.46014">
        <ele>359.6</ele>
        <time>2022-03-23T13:25:55Z</time>
      </trkpt>
      <trkpt lat="43.21694" lon="5.46019">
        <ele>359.1</ele>
        <time>2022-03-23T13:28:21Z</time>
      </trkpt>
      <trkpt lat="43.21688" lon="5.46016">
        <ele>357.3</ele>
        <time>2022-03-23T13:28:53Z</time>
      </trkpt>
      <trkpt lat="43.21685" lon="5.4601">
        <ele>357.4</ele>
        <time>2022-03-23T13:28:59Z</time>
      </trkpt>
      <trkpt lat="43.21683" lon="5.46004">
        <ele>357.4</ele>
        <time>2022-03-23T13:29:05Z</time>
      </trkpt>
      <trkpt lat="43.21679" lon="5.45999">
        <ele>356.6</ele>
        <time>2022-03-23T13:29:13Z</time>
      </trkpt>
      <trkpt lat="43.21676" lon="5.45993">
        <ele>355.5</ele>
        <time>2022-03-23T13:29:19Z</time>
      </trkpt>
      <trkpt lat="43.21675" lon="5.45987">
        <ele>356.6</ele>
        <time>2022-03-23T13:29:25Z</time>
      </trkpt>
      <trkpt lat="43.21675" lon="5.4598">
        <ele>358.2</ele>
        <time>2022-03-23T13:29:33Z</time>
      </trkpt>
      <trkpt lat="43.21676" lon="5.45972">
        <ele>360.4</ele>
        <time>2022-03-23T13:29:41Z</time>
      </trkpt>
      <trkpt lat="43.21677" lon="5.45965">
        <ele>362.4</ele>
        <time>2022-03-23T13:29:47Z</time>
      </trkpt>
      <trkpt lat="43.21677" lon="5.45959">
        <ele>363.7</ele>
        <time>2022-03-23T13:29:53Z</time>
      </trkpt>
      <trkpt lat="43.21677" lon="5.45953">
        <ele>364.4</ele>
        <time>2022-03-23T13:29:59Z</time>
      </trkpt>
      <trkpt lat="43.21678" lon="5.45946">
        <ele>367</ele>
        <time>2022-03-23T13:30:07Z</time>
      </trkpt>
      <trkpt lat="43.21681" lon="5.45938">
        <ele>367.9</ele>
        <time>2022-03-23T13:30:15Z</time>
      </trkpt>
      <trkpt lat="43.21685" lon="5.45932">
        <ele>370.2</ele>
        <time>2022-03-23T13:30:23Z</time>
      </trkpt>
      <trkpt lat="43.21688" lon="5.45926">
        <ele>372.8</ele>
        <time>2022-03-23T13:30:29Z</time>
      </trkpt>
      <trkpt lat="43.21691" lon="5.45919">
        <ele>375.4</ele>
        <time>2022-03-23T13:30:37Z</time>
      </trkpt>
      <trkpt lat="43.21691" lon="5.45912">
        <ele>374.2</ele>
        <time>2022-03-23T13:30:45Z</time>
      </trkpt>
      <trkpt lat="43.21692" lon="5.45904">
        <ele>372.3</ele>
        <time>2022-03-23T13:30:51Z</time>
      </trkpt>
      <trkpt lat="43.21695" lon="5.45898">
        <ele>372.4</ele>
        <time>2022-03-23T13:30:59Z</time>
      </trkpt>
      <trkpt lat="43.21699" lon="5.45894">
        <ele>371.6</ele>
        <time>2022-03-23T13:31:05Z</time>
      </trkpt>
      <trkpt lat="43.21705" lon="5.45893">
        <ele>372.1</ele>
        <time>2022-03-23T13:31:13Z</time>
      </trkpt>
      <trkpt lat="43.21711" lon="5.45891">
        <ele>372.1</ele>
        <time>2022-03-23T13:31:19Z</time>
      </trkpt>
      <trkpt lat="43.21716" lon="5.4589">
        <ele>372.5</ele>
        <time>2022-03-23T13:31:25Z</time>
      </trkpt>
      <trkpt lat="43.21721" lon="5.45889">
        <ele>372.5</ele>
        <time>2022-03-23T13:31:29Z</time>
      </trkpt>
      <trkpt lat="43.21726" lon="5.45888">
        <ele>373.2</ele>
        <time>2022-03-23T13:31:35Z</time>
      </trkpt>
      <trkpt lat="43.21731" lon="5.45889">
        <ele>375.3</ele>
        <time>2022-03-23T13:31:43Z</time>
      </trkpt>
      <trkpt lat="43.21736" lon="5.45889">
        <ele>377</ele>
        <time>2022-03-23T13:31:49Z</time>
      </trkpt>
      <trkpt lat="43.21741" lon="5.45887">
        <ele>377.4</ele>
        <time>2022-03-23T13:31:57Z</time>
      </trkpt>
      <trkpt lat="43.21745" lon="5.45884">
        <ele>376.8</ele>
        <time>2022-03-23T13:32:03Z</time>
      </trkpt>
      <trkpt lat="43.21749" lon="5.4588">
        <ele>376.5</ele>
        <time>2022-03-23T13:32:09Z</time>
      </trkpt>
      <trkpt lat="43.21754" lon="5.45878">
        <ele>376.3</ele>
        <time>2022-03-23T13:32:15Z</time>
      </trkpt>
      <trkpt lat="43.21758" lon="5.45875">
        <ele>375.6</ele>
        <time>2022-03-23T13:32:21Z</time>
      </trkpt>
      <trkpt lat="43.21764" lon="5.45875">
        <ele>376.7</ele>
        <time>2022-03-23T13:32:29Z</time>
      </trkpt>
      <trkpt lat="43.21769" lon="5.45876">
        <ele>378.3</ele>
        <time>2022-03-23T13:32:35Z</time>
      </trkpt>
      <trkpt lat="43.21773" lon="5.45878">
        <ele>380.2</ele>
        <time>2022-03-23T13:32:41Z</time>
      </trkpt>
      <trkpt lat="43.21778" lon="5.45874">
        <ele>379.3</ele>
        <time>2022-03-23T13:32:49Z</time>
      </trkpt>
      <trkpt lat="43.21783" lon="5.45874">
        <ele>380.4</ele>
        <time>2022-03-23T13:32:55Z</time>
      </trkpt>
      <trkpt lat="43.21789" lon="5.45875">
        <ele>382.2</ele>
        <time>2022-03-23T13:33:03Z</time>
      </trkpt>
      <trkpt lat="43.21794" lon="5.4587">
        <ele>381.5</ele>
        <time>2022-03-23T13:33:13Z</time>
      </trkpt>
      <trkpt lat="43.21796" lon="5.45863">
        <ele>379.4</ele>
        <time>2022-03-23T13:33:17Z</time>
      </trkpt>
      <trkpt lat="43.21793" lon="5.45857">
        <ele>379.1</ele>
        <time>2022-03-23T13:33:37Z</time>
      </trkpt>
      <trkpt lat="43.21793" lon="5.45849">
        <ele>382.2</ele>
        <time>2022-03-23T13:33:47Z</time>
      </trkpt>
      <trkpt lat="43.21791" lon="5.45841">
        <ele>384.4</ele>
        <time>2022-03-23T13:33:53Z</time>
      </trkpt>
      <trkpt lat="43.21787" lon="5.45837">
        <ele>384.2</ele>
        <time>2022-03-23T13:33:59Z</time>
      </trkpt>
      <trkpt lat="43.21787" lon="5.4583">
        <ele>385</ele>
        <time>2022-03-23T13:34:05Z</time>
      </trkpt>
      <trkpt lat="43.21788" lon="5.45823">
        <ele>384.4</ele>
        <time>2022-03-23T13:34:13Z</time>
      </trkpt>
      <trkpt lat="43.21791" lon="5.45818">
        <ele>384.7</ele>
        <time>2022-03-23T13:34:21Z</time>
      </trkpt>
      <trkpt lat="43.21791" lon="5.45811">
        <ele>383.9</ele>
        <time>2022-03-23T13:34:27Z</time>
      </trkpt>
      <trkpt lat="43.21794" lon="5.45806">
        <ele>383.8</ele>
        <time>2022-03-23T13:34:33Z</time>
      </trkpt>
      <trkpt lat="43.218" lon="5.45807">
        <ele>385.7</ele>
        <time>2022-03-23T13:34:41Z</time>
      </trkpt>
      <trkpt lat="43.21804" lon="5.45809">
        <ele>387.4</ele>
        <time>2022-03-23T13:34:47Z</time>
      </trkpt>
      <trkpt lat="43.21809" lon="5.45809">
        <ele>389.4</ele>
        <time>2022-03-23T13:34:53Z</time>
      </trkpt>
      <trkpt lat="43.21811" lon="5.45803">
        <ele>388.8</ele>
        <time>2022-03-23T13:36:05Z</time>
      </trkpt>
      <trkpt lat="43.21809" lon="5.45797">
        <ele>385.2</ele>
        <time>2022-03-23T13:37:05Z</time>
      </trkpt>
      <trkpt lat="43.21809" lon="5.4579">
        <ele>382.7</ele>
        <time>2022-03-23T13:37:37Z</time>
      </trkpt>
      <trkpt lat="43.21807" lon="5.45784">
        <ele>378.6</ele>
        <time>2022-03-23T13:37:49Z</time>
      </trkpt>
      <trkpt lat="43.21802" lon="5.45783">
        <ele>375.4</ele>
        <time>2022-03-23T13:37:57Z</time>
      </trkpt>
      <trkpt lat="43.21799" lon="5.45788">
        <ele>376.1</ele>
        <time>2022-03-23T13:38:05Z</time>
      </trkpt>
      <trkpt lat="43.21794" lon="5.45787">
        <ele>372.8</ele>
        <time>2022-03-23T13:38:43Z</time>
      </trkpt>
      <trkpt lat="43.21792" lon="5.4578">
        <ele>367.8</ele>
        <time>2022-03-23T13:38:59Z</time>
      </trkpt>
      <trkpt lat="43.21788" lon="5.45776">
        <ele>364.2</ele>
        <time>2022-03-23T13:39:13Z</time>
      </trkpt>
      <trkpt lat="43.21783" lon="5.45774">
        <ele>360.7</ele>
        <time>2022-03-23T13:39:23Z</time>
      </trkpt>
      <trkpt lat="43.21778" lon="5.45774">
        <ele>357.7</ele>
        <time>2022-03-23T13:39:37Z</time>
      </trkpt>
      <trkpt lat="43.21776" lon="5.45767">
        <ele>355.9</ele>
        <time>2022-03-23T13:39:53Z</time>
      </trkpt>
      <trkpt lat="43.21773" lon="5.45762">
        <ele>353.1</ele>
        <time>2022-03-23T13:40:03Z</time>
      </trkpt>
      <trkpt lat="43.2177" lon="5.45757">
        <ele>350.9</ele>
        <time>2022-03-23T13:40:25Z</time>
      </trkpt>
      <trkpt lat="43.2177" lon="5.45764">
        <ele>351.7</ele>
        <time>2022-03-23T13:40:43Z</time>
      </trkpt>
      <trkpt lat="43.2177" lon="5.45771">
        <ele>352.7</ele>
        <time>2022-03-23T13:41:09Z</time>
      </trkpt>
      <trkpt lat="43.21766" lon="5.45773">
        <ele>350.2</ele>
        <time>2022-03-23T13:41:37Z</time>
      </trkpt>
      <trkpt lat="43.21761" lon="5.4577">
        <ele>346.8</ele>
        <time>2022-03-23T13:41:45Z</time>
      </trkpt>
      <trkpt lat="43.21757" lon="5.45766">
        <ele>343.6</ele>
        <time>2022-03-23T13:41:57Z</time>
      </trkpt>
      <trkpt lat="43.21755" lon="5.45773">
        <ele>343.5</ele>
        <time>2022-03-23T13:42:09Z</time>
      </trkpt>
      <trkpt lat="43.21751" lon="5.45773">
        <ele>340.7</ele>
        <time>2022-03-23T13:42:27Z</time>
      </trkpt>
      <trkpt lat="43.21746" lon="5.45775">
        <ele>338</ele>
        <time>2022-03-23T13:42:45Z</time>
      </trkpt>
      <trkpt lat="43.21742" lon="5.45778">
        <ele>335.6</ele>
        <time>2022-03-23T13:42:57Z</time>
      </trkpt>
      <trkpt lat="43.21737" lon="5.45777">
        <ele>332.4</ele>
        <time>2022-03-23T13:43:01Z</time>
      </trkpt>
      <trkpt lat="43.21732" lon="5.45774">
        <ele>328.8</ele>
        <time>2022-03-23T13:43:05Z</time>
      </trkpt>
      <trkpt lat="43.21727" lon="5.45773">
        <ele>325.7</ele>
        <time>2022-03-23T13:43:15Z</time>
      </trkpt>
      <trkpt lat="43.21723" lon="5.4577">
        <ele>322.7</ele>
        <time>2022-03-23T13:43:45Z</time>
      </trkpt>
      <trkpt lat="43.21719" lon="5.45774">
        <ele>319.9</ele>
        <time>2022-03-23T13:44:09Z</time>
      </trkpt>
      <trkpt lat="43.21714" lon="5.45774">
        <ele>315.5</ele>
        <time>2022-03-23T13:44:19Z</time>
      </trkpt>
      <trkpt lat="43.2171" lon="5.45771">
        <ele>312</ele>
        <time>2022-03-23T13:44:33Z</time>
      </trkpt>
      <trkpt lat="43.21706" lon="5.45767">
        <ele>309.2</ele>
        <time>2022-03-23T13:44:51Z</time>
      </trkpt>
      <trkpt lat="43.21702" lon="5.45763">
        <ele>306.4</ele>
        <time>2022-03-23T13:45:29Z</time>
      </trkpt>
      <trkpt lat="43.21704" lon="5.45757">
        <ele>308.2</ele>
        <time>2022-03-23T13:45:47Z</time>
      </trkpt>
      <trkpt lat="43.217" lon="5.45751">
        <ele>306.6</ele>
        <time>2022-03-23T13:46:03Z</time>
      </trkpt>
      <trkpt lat="43.21699" lon="5.45745">
        <ele>306.9</ele>
        <time>2022-03-23T13:46:11Z</time>
      </trkpt>
      <trkpt lat="43.21699" lon="5.45738">
        <ele>308.2</ele>
        <time>2022-03-23T13:46:23Z</time>
      </trkpt>
      <trkpt lat="43.21695" lon="5.45733">
        <ele>306</ele>
        <time>2022-03-23T13:46:33Z</time>
      </trkpt>
      <trkpt lat="43.21692" lon="5.45729">
        <ele>304.8</ele>
        <time>2022-03-23T13:46:37Z</time>
      </trkpt>
      <trkpt lat="43.21688" lon="5.45723">
        <ele>304.5</ele>
        <time>2022-03-23T13:46:43Z</time>
      </trkpt>
      <trkpt lat="43.21685" lon="5.45718">
        <ele>304.3</ele>
        <time>2022-03-23T13:48:15Z</time>
      </trkpt>
      <trkpt lat="43.21683" lon="5.45724">
        <ele>302.1</ele>
        <time>2022-03-23T13:56:50Z</time>
      </trkpt>
      <trkpt lat="43.21682" lon="5.45718">
        <ele>303.3</ele>
        <time>2022-03-23T13:57:04Z</time>
      </trkpt>
      <trkpt lat="43.21679" lon="5.4571">
        <ele>303.4</ele>
        <time>2022-03-23T13:57:12Z</time>
      </trkpt>
      <trkpt lat="43.21674" lon="5.45706">
        <ele>302</ele>
        <time>2022-03-23T13:57:20Z</time>
      </trkpt>
      <trkpt lat="43.2167" lon="5.45702">
        <ele>300.9</ele>
        <time>2022-03-23T13:57:26Z</time>
      </trkpt>
      <trkpt lat="43.21665" lon="5.45698">
        <ele>299.7</ele>
        <time>2022-03-23T13:57:30Z</time>
      </trkpt>
      <trkpt lat="43.21662" lon="5.45693">
        <ele>299.2</ele>
        <time>2022-03-23T13:57:36Z</time>
      </trkpt>
      <trkpt lat="43.21659" lon="5.45687">
        <ele>298.6</ele>
        <time>2022-03-23T13:57:42Z</time>
      </trkpt>
      <trkpt lat="43.21656" lon="5.45679">
        <ele>298.4</ele>
        <time>2022-03-23T13:57:48Z</time>
      </trkpt>
      <trkpt lat="43.21653" lon="5.45674">
        <ele>297.6</ele>
        <time>2022-03-23T13:57:52Z</time>
      </trkpt>
      <trkpt lat="43.2165" lon="5.45669">
        <ele>296.6</ele>
        <time>2022-03-23T13:57:56Z</time>
      </trkpt>
      <trkpt lat="43.21647" lon="5.45664">
        <ele>295.4</ele>
        <time>2022-03-23T13:58:00Z</time>
      </trkpt>
      <trkpt lat="43.21644" lon="5.45659">
        <ele>293.9</ele>
        <time>2022-03-23T13:58:04Z</time>
      </trkpt>
      <trkpt lat="43.21641" lon="5.45653">
        <ele>292.8</ele>
        <time>2022-03-23T13:58:10Z</time>
      </trkpt>
      <trkpt lat="43.2164" lon="5.45647">
        <ele>292.1</ele>
        <time>2022-03-23T13:58:16Z</time>
      </trkpt>
      <trkpt lat="43.2164" lon="5.45639">
        <ele>292.4</ele>
        <time>2022-03-23T13:58:26Z</time>
      </trkpt>
      <trkpt lat="43.2164" lon="5.45632">
        <ele>292.4</ele>
        <time>2022-03-23T13:58:32Z</time>
      </trkpt>
      <trkpt lat="43.21639" lon="5.45626">
        <ele>292.3</ele>
        <time>2022-03-23T13:58:40Z</time>
      </trkpt>
      <trkpt lat="43.21639" lon="5.45619">
        <ele>292.2</ele>
        <time>2022-03-23T13:58:46Z</time>
      </trkpt>
      <trkpt lat="43.21639" lon="5.45611">
        <ele>292.1</ele>
        <time>2022-03-23T13:58:52Z</time>
      </trkpt>
      <trkpt lat="43.21639" lon="5.45604">
        <ele>292.2</ele>
        <time>2022-03-23T13:58:56Z</time>
      </trkpt>
      <trkpt lat="43.21639" lon="5.45596">
        <ele>292.1</ele>
        <time>2022-03-23T13:59:00Z</time>
      </trkpt>
      <trkpt lat="43.21638" lon="5.45588">
        <ele>291.8</ele>
        <time>2022-03-23T13:59:04Z</time>
      </trkpt>
      <trkpt lat="43.21638" lon="5.45581">
        <ele>291.5</ele>
        <time>2022-03-23T13:59:08Z</time>
      </trkpt>
      <trkpt lat="43.21636" lon="5.45574">
        <ele>290.9</ele>
        <time>2022-03-23T13:59:14Z</time>
      </trkpt>
      <trkpt lat="43.21634" lon="5.45567">
        <ele>289.9</ele>
        <time>2022-03-23T13:59:20Z</time>
      </trkpt>
      <trkpt lat="43.21631" lon="5.45562">
        <ele>288.5</ele>
        <time>2022-03-23T13:59:26Z</time>
      </trkpt>
      <trkpt lat="43.21629" lon="5.45557">
        <ele>287.5</ele>
        <time>2022-03-23T13:59:34Z</time>
      </trkpt>
      <trkpt lat="43.21626" lon="5.4555">
        <ele>286.3</ele>
        <time>2022-03-23T13:59:40Z</time>
      </trkpt>
      <trkpt lat="43.21624" lon="5.45543">
        <ele>285.5</ele>
        <time>2022-03-23T13:59:52Z</time>
      </trkpt>
      <trkpt lat="43.21622" lon="5.45537">
        <ele>284.7</ele>
        <time>2022-03-23T14:00:00Z</time>
      </trkpt>
      <trkpt lat="43.21621" lon="5.4553">
        <ele>284.2</ele>
        <time>2022-03-23T14:00:06Z</time>
      </trkpt>
      <trkpt lat="43.21619" lon="5.45522">
        <ele>283.3</ele>
        <time>2022-03-23T14:00:12Z</time>
      </trkpt>
      <trkpt lat="43.21617" lon="5.45515">
        <ele>282.7</ele>
        <time>2022-03-23T14:00:18Z</time>
      </trkpt>
      <trkpt lat="43.21617" lon="5.45509">
        <ele>282.4</ele>
        <time>2022-03-23T14:00:24Z</time>
      </trkpt>
      <trkpt lat="43.21616" lon="5.45501">
        <ele>282.2</ele>
        <time>2022-03-23T14:00:30Z</time>
      </trkpt>
      <trkpt lat="43.21613" lon="5.45495">
        <ele>280.8</ele>
        <time>2022-03-23T14:00:36Z</time>
      </trkpt>
      <trkpt lat="43.2161" lon="5.45489">
        <ele>279.3</ele>
        <time>2022-03-23T14:00:44Z</time>
      </trkpt>
      <trkpt lat="43.21607" lon="5.45483">
        <ele>278.4</ele>
        <time>2022-03-23T14:00:52Z</time>
      </trkpt>
      <trkpt lat="43.21603" lon="5.45478">
        <ele>277.4</ele>
        <time>2022-03-23T14:00:58Z</time>
      </trkpt>
      <trkpt lat="43.21599" lon="5.45473">
        <ele>276.4</ele>
        <time>2022-03-23T14:01:06Z</time>
      </trkpt>
      <trkpt lat="43.21595" lon="5.4547">
        <ele>275.5</ele>
        <time>2022-03-23T14:01:20Z</time>
      </trkpt>
      <trkpt lat="43.21592" lon="5.45465">
        <ele>275</ele>
        <time>2022-03-23T14:01:30Z</time>
      </trkpt>
      <trkpt lat="43.21588" lon="5.45459">
        <ele>274.4</ele>
        <time>2022-03-23T14:01:36Z</time>
      </trkpt>
      <trkpt lat="43.21584" lon="5.45454">
        <ele>273.7</ele>
        <time>2022-03-23T14:01:44Z</time>
      </trkpt>
      <trkpt lat="43.21579" lon="5.45452">
        <ele>272.8</ele>
        <time>2022-03-23T14:01:54Z</time>
      </trkpt>
      <trkpt lat="43.21575" lon="5.45447">
        <ele>272.1</ele>
        <time>2022-03-23T14:02:02Z</time>
      </trkpt>
      <trkpt lat="43.21573" lon="5.4544">
        <ele>271.5</ele>
        <time>2022-03-23T14:02:08Z</time>
      </trkpt>
      <trkpt lat="43.21574" lon="5.45432">
        <ele>270.9</ele>
        <time>2022-03-23T14:02:14Z</time>
      </trkpt>
      <trkpt lat="43.21574" lon="5.45425">
        <ele>270.3</ele>
        <time>2022-03-23T14:02:20Z</time>
      </trkpt>
      <trkpt lat="43.21575" lon="5.45419">
        <ele>270.1</ele>
        <time>2022-03-23T14:02:28Z</time>
      </trkpt>
      <trkpt lat="43.21576" lon="5.45412">
        <ele>269.8</ele>
        <time>2022-03-23T14:02:36Z</time>
      </trkpt>
      <trkpt lat="43.21577" lon="5.45404">
        <ele>269.4</ele>
        <time>2022-03-23T14:02:42Z</time>
      </trkpt>
      <trkpt lat="43.21578" lon="5.45396">
        <ele>268.6</ele>
        <time>2022-03-23T14:02:48Z</time>
      </trkpt>
      <trkpt lat="43.21578" lon="5.45388">
        <ele>267.9</ele>
        <time>2022-03-23T14:02:54Z</time>
      </trkpt>
      <trkpt lat="43.21579" lon="5.4538">
        <ele>267.7</ele>
        <time>2022-03-23T14:03:02Z</time>
      </trkpt>
      <trkpt lat="43.21579" lon="5.45373">
        <ele>266.9</ele>
        <time>2022-03-23T14:03:08Z</time>
      </trkpt>
      <trkpt lat="43.21578" lon="5.45365">
        <ele>265.6</ele>
        <time>2022-03-23T14:03:14Z</time>
      </trkpt>
      <trkpt lat="43.21578" lon="5.45358">
        <ele>264.5</ele>
        <time>2022-03-23T14:03:20Z</time>
      </trkpt>
      <trkpt lat="43.21579" lon="5.45352">
        <ele>263.3</ele>
        <time>2022-03-23T14:03:26Z</time>
      </trkpt>
      <trkpt lat="43.21581" lon="5.45346">
        <ele>263.4</ele>
        <time>2022-03-23T14:03:34Z</time>
      </trkpt>
      <trkpt lat="43.21583" lon="5.4534">
        <ele>263.1</ele>
        <time>2022-03-23T14:03:42Z</time>
      </trkpt>
      <trkpt lat="43.21585" lon="5.45334">
        <ele>262.7</ele>
        <time>2022-03-23T14:03:52Z</time>
      </trkpt>
      <trkpt lat="43.21588" lon="5.45328">
        <ele>261.1</ele>
        <time>2022-03-23T14:04:00Z</time>
      </trkpt>
      <trkpt lat="43.21591" lon="5.45322">
        <ele>259.8</ele>
        <time>2022-03-23T14:04:06Z</time>
      </trkpt>
      <trkpt lat="43.21595" lon="5.45319">
        <ele>259.7</ele>
        <time>2022-03-23T14:04:18Z</time>
      </trkpt>
      <trkpt lat="43.216" lon="5.45314">
        <ele>258.8</ele>
        <time>2022-03-23T14:04:26Z</time>
      </trkpt>
      <trkpt lat="43.21601" lon="5.45308">
        <ele>256.6</ele>
        <time>2022-03-23T14:04:36Z</time>
      </trkpt>
      <trkpt lat="43.21597" lon="5.45305">
        <ele>254.2</ele>
        <time>2022-03-23T14:04:48Z</time>
      </trkpt>
      <trkpt lat="43.21591" lon="5.45304">
        <ele>252.5</ele>
        <time>2022-03-23T14:04:54Z</time>
      </trkpt>
      <trkpt lat="43.21586" lon="5.45306">
        <ele>251.7</ele>
        <time>2022-03-23T14:05:00Z</time>
      </trkpt>
      <trkpt lat="43.2158" lon="5.45307">
        <ele>250.4</ele>
        <time>2022-03-23T14:05:08Z</time>
      </trkpt>
      <trkpt lat="43.21575" lon="5.45307">
        <ele>248.2</ele>
        <time>2022-03-23T14:05:16Z</time>
      </trkpt>
      <trkpt lat="43.2157" lon="5.45307">
        <ele>246.2</ele>
        <time>2022-03-23T14:05:24Z</time>
      </trkpt>
      <trkpt lat="43.21565" lon="5.4531">
        <ele>244.9</ele>
        <time>2022-03-23T14:05:32Z</time>
      </trkpt>
      <trkpt lat="43.2156" lon="5.45315">
        <ele>243.7</ele>
        <time>2022-03-23T14:05:40Z</time>
      </trkpt>
      <trkpt lat="43.21556" lon="5.45318">
        <ele>242.2</ele>
        <time>2022-03-23T14:05:46Z</time>
      </trkpt>
      <trkpt lat="43.21553" lon="5.45312">
        <ele>240</ele>
        <time>2022-03-23T14:06:00Z</time>
      </trkpt>
      <trkpt lat="43.2155" lon="5.45306">
        <ele>238.4</ele>
        <time>2022-03-23T14:06:08Z</time>
      </trkpt>
      <trkpt lat="43.21546" lon="5.45301">
        <ele>236.6</ele>
        <time>2022-03-23T14:06:16Z</time>
      </trkpt>
      <trkpt lat="43.21545" lon="5.45294">
        <ele>235.5</ele>
        <time>2022-03-23T14:06:26Z</time>
      </trkpt>
      <trkpt lat="43.21546" lon="5.45288">
        <ele>234.8</ele>
        <time>2022-03-23T14:06:32Z</time>
      </trkpt>
      <trkpt lat="43.21548" lon="5.45282">
        <ele>234.2</ele>
        <time>2022-03-23T14:06:38Z</time>
      </trkpt>
      <trkpt lat="43.21552" lon="5.45279">
        <ele>233.9</ele>
        <time>2022-03-23T14:06:46Z</time>
      </trkpt>
      <trkpt lat="43.21556" lon="5.45275">
        <ele>233</ele>
        <time>2022-03-23T14:07:00Z</time>
      </trkpt>
      <trkpt lat="43.2156" lon="5.4527">
        <ele>232.2</ele>
        <time>2022-03-23T14:07:08Z</time>
      </trkpt>
      <trkpt lat="43.21564" lon="5.45266">
        <ele>231.1</ele>
        <time>2022-03-23T14:07:16Z</time>
      </trkpt>
      <trkpt lat="43.21567" lon="5.45262">
        <ele>230.2</ele>
        <time>2022-03-23T14:07:24Z</time>
      </trkpt>
      <trkpt lat="43.21571" lon="5.45255">
        <ele>228.3</ele>
        <time>2022-03-23T14:07:34Z</time>
      </trkpt>
      <trkpt lat="43.21572" lon="5.45249">
        <ele>226.6</ele>
        <time>2022-03-23T14:07:40Z</time>
      </trkpt>
      <trkpt lat="43.21575" lon="5.45244">
        <ele>225.5</ele>
        <time>2022-03-23T14:07:48Z</time>
      </trkpt>
      <trkpt lat="43.21578" lon="5.45237">
        <ele>224.1</ele>
        <time>2022-03-23T14:07:58Z</time>
      </trkpt>
      <trkpt lat="43.21581" lon="5.45231">
        <ele>223</ele>
        <time>2022-03-23T14:08:06Z</time>
      </trkpt>
      <trkpt lat="43.21584" lon="5.45225">
        <ele>221.8</ele>
        <time>2022-03-23T14:08:16Z</time>
      </trkpt>
      <trkpt lat="43.21588" lon="5.45219">
        <ele>220.5</ele>
        <time>2022-03-23T14:08:24Z</time>
      </trkpt>
      <trkpt lat="43.2159" lon="5.45213">
        <ele>219.2</ele>
        <time>2022-03-23T14:08:30Z</time>
      </trkpt>
      <trkpt lat="43.21594" lon="5.45208">
        <ele>218</ele>
        <time>2022-03-23T14:08:36Z</time>
      </trkpt>
      <trkpt lat="43.21597" lon="5.45203">
        <ele>216.8</ele>
        <time>2022-03-23T14:08:44Z</time>
      </trkpt>
      <trkpt lat="43.216" lon="5.45198">
        <ele>215.2</ele>
        <time>2022-03-23T14:08:56Z</time>
      </trkpt>
      <trkpt lat="43.21601" lon="5.45204">
        <ele>216.7</ele>
        <time>2022-03-23T14:09:38Z</time>
      </trkpt>
      <trkpt lat="43.21606" lon="5.45202">
        <ele>215.8</ele>
        <time>2022-03-23T14:09:48Z</time>
      </trkpt>
      <trkpt lat="43.21606" lon="5.45209">
        <ele>217.8</ele>
        <time>2022-03-23T14:10:38Z</time>
      </trkpt>
      <trkpt lat="43.21605" lon="5.45215">
        <ele>219.7</ele>
        <time>2022-03-23T14:11:24Z</time>
      </trkpt>
      <trkpt lat="43.2161" lon="5.45212">
        <ele>218.8</ele>
        <time>2022-03-23T14:12:06Z</time>
      </trkpt>
      <trkpt lat="43.21614" lon="5.45216">
        <ele>219.1</ele>
        <time>2022-03-23T14:12:10Z</time>
      </trkpt>
      <trkpt lat="43.2162" lon="5.45219">
        <ele>218.5</ele>
        <time>2022-03-23T14:12:16Z</time>
      </trkpt>
      <trkpt lat="43.21626" lon="5.45219">
        <ele>216.6</ele>
        <time>2022-03-23T14:12:24Z</time>
      </trkpt>
      <trkpt lat="43.21632" lon="5.45222">
        <ele>215.9</ele>
        <time>2022-03-23T14:12:32Z</time>
      </trkpt>
      <trkpt lat="43.21637" lon="5.45225">
        <ele>215.7</ele>
        <time>2022-03-23T14:12:36Z</time>
      </trkpt>
      <trkpt lat="43.21642" lon="5.45229">
        <ele>215.3</ele>
        <time>2022-03-23T14:12:42Z</time>
      </trkpt>
      <trkpt lat="43.21647" lon="5.45233">
        <ele>214.9</ele>
        <time>2022-03-23T14:12:48Z</time>
      </trkpt>
      <trkpt lat="43.21653" lon="5.45237">
        <ele>214</ele>
        <time>2022-03-23T14:12:54Z</time>
      </trkpt>
      <trkpt lat="43.21658" lon="5.45243">
        <ele>213.8</ele>
        <time>2022-03-23T14:13:00Z</time>
      </trkpt>
      <trkpt lat="43.21662" lon="5.45247">
        <ele>214.2</ele>
        <time>2022-03-23T14:13:04Z</time>
      </trkpt>
      <trkpt lat="43.21665" lon="5.45252">
        <ele>214.7</ele>
        <time>2022-03-23T14:13:08Z</time>
      </trkpt>
      <trkpt lat="43.21669" lon="5.45255">
        <ele>215.1</ele>
        <time>2022-03-23T14:13:12Z</time>
      </trkpt>
      <trkpt lat="43.21672" lon="5.45259">
        <ele>215.5</ele>
        <time>2022-03-23T14:13:16Z</time>
      </trkpt>
      <trkpt lat="43.21676" lon="5.45263">
        <ele>216</ele>
        <time>2022-03-23T14:13:20Z</time>
      </trkpt>
      <trkpt lat="43.2168" lon="5.45267">
        <ele>216.2</ele>
        <time>2022-03-23T14:13:24Z</time>
      </trkpt>
      <trkpt lat="43.21684" lon="5.45271">
        <ele>216.1</ele>
        <time>2022-03-23T14:13:28Z</time>
      </trkpt>
      <trkpt lat="43.2169" lon="5.45273">
        <ele>214.6</ele>
        <time>2022-03-23T14:13:32Z</time>
      </trkpt>
      <trkpt lat="43.21694" lon="5.45276">
        <ele>213.6</ele>
        <time>2022-03-23T14:13:36Z</time>
      </trkpt>
      <trkpt lat="43.21699" lon="5.45279">
        <ele>213.7</ele>
        <time>2022-03-23T14:13:42Z</time>
      </trkpt>
      <trkpt lat="43.21703" lon="5.45282">
        <ele>214.1</ele>
        <time>2022-03-23T14:13:48Z</time>
      </trkpt>
      <trkpt lat="43.21708" lon="5.45284">
        <ele>213.8</ele>
        <time>2022-03-23T14:13:54Z</time>
      </trkpt>
      <trkpt lat="43.21714" lon="5.45285">
        <ele>213.3</ele>
        <time>2022-03-23T14:14:00Z</time>
      </trkpt>
      <trkpt lat="43.21719" lon="5.45286">
        <ele>212.6</ele>
        <time>2022-03-23T14:14:06Z</time>
      </trkpt>
      <trkpt lat="43.21724" lon="5.45286">
        <ele>212.8</ele>
        <time>2022-03-23T14:14:14Z</time>
      </trkpt>
      <trkpt lat="43.2173" lon="5.45283">
        <ele>213.6</ele>
        <time>2022-03-23T14:14:20Z</time>
      </trkpt>
      <trkpt lat="43.21733" lon="5.45277">
        <ele>213.6</ele>
        <time>2022-03-23T14:14:26Z</time>
      </trkpt>
      <trkpt lat="43.21735" lon="5.45271">
        <ele>214.1</ele>
        <time>2022-03-23T14:14:30Z</time>
      </trkpt>
      <trkpt lat="43.21734" lon="5.45264">
        <ele>213.9</ele>
        <time>2022-03-23T14:14:34Z</time>
      </trkpt>
      <trkpt lat="43.21732" lon="5.45255">
        <ele>212.3</ele>
        <time>2022-03-23T14:14:40Z</time>
      </trkpt>
      <trkpt lat="43.2173" lon="5.45249">
        <ele>210.9</ele>
        <time>2022-03-23T14:14:44Z</time>
      </trkpt>
      <trkpt lat="43.21728" lon="5.45243">
        <ele>210.2</ele>
        <time>2022-03-23T14:14:48Z</time>
      </trkpt>
      <trkpt lat="43.21725" lon="5.45236">
        <ele>209.1</ele>
        <time>2022-03-23T14:14:52Z</time>
      </trkpt>
      <trkpt lat="43.21722" lon="5.4523">
        <ele>208.1</ele>
        <time>2022-03-23T14:14:56Z</time>
      </trkpt>
      <trkpt lat="43.2172" lon="5.45221">
        <ele>208</ele>
        <time>2022-03-23T14:15:02Z</time>
      </trkpt>
      <trkpt lat="43.21719" lon="5.45214">
        <ele>207.2</ele>
        <time>2022-03-23T14:15:06Z</time>
      </trkpt>
      <trkpt lat="43.21718" lon="5.45208">
        <ele>206.8</ele>
        <time>2022-03-23T14:15:10Z</time>
      </trkpt>
      <trkpt lat="43.21716" lon="5.45202">
        <ele>206.1</ele>
        <time>2022-03-23T14:15:14Z</time>
      </trkpt>
      <trkpt lat="43.21716" lon="5.45195">
        <ele>205.7</ele>
        <time>2022-03-23T14:15:18Z</time>
      </trkpt>
      <trkpt lat="43.21715" lon="5.45189">
        <ele>205.6</ele>
        <time>2022-03-23T14:15:22Z</time>
      </trkpt>
      <trkpt lat="43.21714" lon="5.45182">
        <ele>205.4</ele>
        <time>2022-03-23T14:15:26Z</time>
      </trkpt>
      <trkpt lat="43.21714" lon="5.45175">
        <ele>205.7</ele>
        <time>2022-03-23T14:15:32Z</time>
      </trkpt>
      <trkpt lat="43.21715" lon="5.45166">
        <ele>206.6</ele>
        <time>2022-03-23T14:15:40Z</time>
      </trkpt>
      <trkpt lat="43.21716" lon="5.45159">
        <ele>207.1</ele>
        <time>2022-03-23T14:15:46Z</time>
      </trkpt>
      <trkpt lat="43.21716" lon="5.4515">
        <ele>207.4</ele>
        <time>2022-03-23T14:15:52Z</time>
      </trkpt>
      <trkpt lat="43.21716" lon="5.45144">
        <ele>207.5</ele>
        <time>2022-03-23T14:15:56Z</time>
      </trkpt>
      <trkpt lat="43.21716" lon="5.45137">
        <ele>207.6</ele>
        <time>2022-03-23T14:16:00Z</time>
      </trkpt>
      <trkpt lat="43.21716" lon="5.4513">
        <ele>207.8</ele>
        <time>2022-03-23T14:16:04Z</time>
      </trkpt>
      <trkpt lat="43.21717" lon="5.45121">
        <ele>207.9</ele>
        <time>2022-03-23T14:16:10Z</time>
      </trkpt>
      <trkpt lat="43.21717" lon="5.45112">
        <ele>208.2</ele>
        <time>2022-03-23T14:16:16Z</time>
      </trkpt>
      <trkpt lat="43.21716" lon="5.45104">
        <ele>208.7</ele>
        <time>2022-03-23T14:16:22Z</time>
      </trkpt>
      <trkpt lat="43.21714" lon="5.45097">
        <ele>208.5</ele>
        <time>2022-03-23T14:16:26Z</time>
      </trkpt>
      <trkpt lat="43.21712" lon="5.45091">
        <ele>208.1</ele>
        <time>2022-03-23T14:16:30Z</time>
      </trkpt>
      <trkpt lat="43.21709" lon="5.45086">
        <ele>207.2</ele>
        <time>2022-03-23T14:16:34Z</time>
      </trkpt>
      <trkpt lat="43.21705" lon="5.45081">
        <ele>206.4</ele>
        <time>2022-03-23T14:16:38Z</time>
      </trkpt>
      <trkpt lat="43.21702" lon="5.45076">
        <ele>205.8</ele>
        <time>2022-03-23T14:16:42Z</time>
      </trkpt>
      <trkpt lat="43.21699" lon="5.45071">
        <ele>205.4</ele>
        <time>2022-03-23T14:16:46Z</time>
      </trkpt>
      <trkpt lat="43.21695" lon="5.45065">
        <ele>204.5</ele>
        <time>2022-03-23T14:16:52Z</time>
      </trkpt>
      <trkpt lat="43.21692" lon="5.45057">
        <ele>204.6</ele>
        <time>2022-03-23T14:16:58Z</time>
      </trkpt>
      <trkpt lat="43.21689" lon="5.45052">
        <ele>205.2</ele>
        <time>2022-03-23T14:17:02Z</time>
      </trkpt>
      <trkpt lat="43.21686" lon="5.45047">
        <ele>205.4</ele>
        <time>2022-03-23T14:17:08Z</time>
      </trkpt>
      <trkpt lat="43.21681" lon="5.45043">
        <ele>204.9</ele>
        <time>2022-03-23T14:17:12Z</time>
      </trkpt>
      <trkpt lat="43.21676" lon="5.45038">
        <ele>204.8</ele>
        <time>2022-03-23T14:17:16Z</time>
      </trkpt>
      <trkpt lat="43.21672" lon="5.45032">
        <ele>205.1</ele>
        <time>2022-03-23T14:17:22Z</time>
      </trkpt>
      <trkpt lat="43.21669" lon="5.45026">
        <ele>205.7</ele>
        <time>2022-03-23T14:17:26Z</time>
      </trkpt>
      <trkpt lat="43.2167" lon="5.45019">
        <ele>205.4</ele>
        <time>2022-03-23T14:17:30Z</time>
      </trkpt>
      <trkpt lat="43.21671" lon="5.45013">
        <ele>205.5</ele>
        <time>2022-03-23T14:17:34Z</time>
      </trkpt>
      <trkpt lat="43.21673" lon="5.45007">
        <ele>205.7</ele>
        <time>2022-03-23T14:17:38Z</time>
      </trkpt>
      <trkpt lat="43.21674" lon="5.44998">
        <ele>205.6</ele>
        <time>2022-03-23T14:17:44Z</time>
      </trkpt>
      <trkpt lat="43.21675" lon="5.44991">
        <ele>205.4</ele>
        <time>2022-03-23T14:17:48Z</time>
      </trkpt>
      <trkpt lat="43.21676" lon="5.44985">
        <ele>205.6</ele>
        <time>2022-03-23T14:17:52Z</time>
      </trkpt>
      <trkpt lat="43.21678" lon="5.44978">
        <ele>205.6</ele>
        <time>2022-03-23T14:17:56Z</time>
      </trkpt>
      <trkpt lat="43.2168" lon="5.44971">
        <ele>205.8</ele>
        <time>2022-03-23T14:18:00Z</time>
      </trkpt>
      <trkpt lat="43.21684" lon="5.44965">
        <ele>206</ele>
        <time>2022-03-23T14:18:06Z</time>
      </trkpt>
      <trkpt lat="43.21688" lon="5.44958">
        <ele>206</ele>
        <time>2022-03-23T14:18:12Z</time>
      </trkpt>
      <trkpt lat="43.21692" lon="5.44953">
        <ele>206.1</ele>
        <time>2022-03-23T14:18:18Z</time>
      </trkpt>
      <trkpt lat="43.21698" lon="5.44949">
        <ele>206.8</ele>
        <time>2022-03-23T14:18:24Z</time>
      </trkpt>
      <trkpt lat="43.21704" lon="5.44946">
        <ele>207.6</ele>
        <time>2022-03-23T14:18:30Z</time>
      </trkpt>
      <trkpt lat="43.2171" lon="5.44942">
        <ele>207.8</ele>
        <time>2022-03-23T14:18:36Z</time>
      </trkpt>
      <trkpt lat="43.21715" lon="5.44938">
        <ele>207.7</ele>
        <time>2022-03-23T14:18:42Z</time>
      </trkpt>
      <trkpt lat="43.21719" lon="5.44935">
        <ele>207.7</ele>
        <time>2022-03-23T14:18:48Z</time>
      </trkpt>
      <trkpt lat="43.21725" lon="5.44933">
        <ele>208.3</ele>
        <time>2022-03-23T14:18:54Z</time>
      </trkpt>
      <trkpt lat="43.21729" lon="5.4493">
        <ele>208.4</ele>
        <time>2022-03-23T14:18:58Z</time>
      </trkpt>
      <trkpt lat="43.21735" lon="5.44926">
        <ele>208.2</ele>
        <time>2022-03-23T14:19:04Z</time>
      </trkpt>
      <trkpt lat="43.21738" lon="5.44921">
        <ele>207.9</ele>
        <time>2022-03-23T14:19:08Z</time>
      </trkpt>
      <trkpt lat="43.21742" lon="5.44917">
        <ele>207.6</ele>
        <time>2022-03-23T14:19:12Z</time>
      </trkpt>
      <trkpt lat="43.21747" lon="5.44912">
        <ele>207.3</ele>
        <time>2022-03-23T14:19:18Z</time>
      </trkpt>
      <trkpt lat="43.21752" lon="5.44911">
        <ele>207.6</ele>
        <time>2022-03-23T14:19:24Z</time>
      </trkpt>
      <trkpt lat="43.21758" lon="5.4491">
        <ele>207.6</ele>
        <time>2022-03-23T14:19:30Z</time>
      </trkpt>
      <trkpt lat="43.21763" lon="5.4491">
        <ele>207.6</ele>
        <time>2022-03-23T14:19:36Z</time>
      </trkpt>
      <trkpt lat="43.21769" lon="5.44909">
        <ele>207.5</ele>
        <time>2022-03-23T14:19:42Z</time>
      </trkpt>
      <trkpt lat="43.21775" lon="5.44909">
        <ele>207.6</ele>
        <time>2022-03-23T14:19:48Z</time>
      </trkpt>
      <trkpt lat="43.2178" lon="5.4491">
        <ele>208.2</ele>
        <time>2022-03-23T14:19:52Z</time>
      </trkpt>
      <trkpt lat="43.21787" lon="5.44911">
        <ele>208.9</ele>
        <time>2022-03-23T14:19:58Z</time>
      </trkpt>
      <trkpt lat="43.21792" lon="5.44912">
        <ele>209.5</ele>
        <time>2022-03-23T14:20:02Z</time>
      </trkpt>
      <trkpt lat="43.21797" lon="5.44911">
        <ele>209.6</ele>
        <time>2022-03-23T14:20:06Z</time>
      </trkpt>
      <trkpt lat="43.21801" lon="5.44904">
        <ele>209.1</ele>
        <time>2022-03-23T14:20:12Z</time>
      </trkpt>
      <trkpt lat="43.21802" lon="5.44897">
        <ele>208.3</ele>
        <time>2022-03-23T14:20:16Z</time>
      </trkpt>
      <trkpt lat="43.21803" lon="5.4489">
        <ele>207.6</ele>
        <time>2022-03-23T14:20:20Z</time>
      </trkpt>
      <trkpt lat="43.21804" lon="5.44882">
        <ele>207.4</ele>
        <time>2022-03-23T14:20:24Z</time>
      </trkpt>
      <trkpt lat="43.21804" lon="5.44874">
        <ele>207</ele>
        <time>2022-03-23T14:20:28Z</time>
      </trkpt>
      <trkpt lat="43.21805" lon="5.44865">
        <ele>207.1</ele>
        <time>2022-03-23T14:20:34Z</time>
      </trkpt>
      <trkpt lat="43.21808" lon="5.44857">
        <ele>206.5</ele>
        <time>2022-03-23T14:20:40Z</time>
      </trkpt>
      <trkpt lat="43.21811" lon="5.44852">
        <ele>205.9</ele>
        <time>2022-03-23T14:20:44Z</time>
      </trkpt>
      <trkpt lat="43.21817" lon="5.4485">
        <ele>206.1</ele>
        <time>2022-03-23T14:20:50Z</time>
      </trkpt>
      <trkpt lat="43.21822" lon="5.44848">
        <ele>206.3</ele>
        <time>2022-03-23T14:20:56Z</time>
      </trkpt>
      <trkpt lat="43.21828" lon="5.44848">
        <ele>207</ele>
        <time>2022-03-23T14:21:02Z</time>
      </trkpt>
      <trkpt lat="43.21834" lon="5.44849">
        <ele>208.1</ele>
        <time>2022-03-23T14:21:06Z</time>
      </trkpt>
      <trkpt lat="43.21839" lon="5.44851">
        <ele>209.2</ele>
        <time>2022-03-23T14:21:10Z</time>
      </trkpt>
      <trkpt lat="43.21843" lon="5.44852">
        <ele>210.2</ele>
        <time>2022-03-23T14:21:14Z</time>
      </trkpt>
      <trkpt lat="43.21849" lon="5.44852">
        <ele>210.8</ele>
        <time>2022-03-23T14:21:20Z</time>
      </trkpt>
      <trkpt lat="43.21855" lon="5.44852">
        <ele>211.5</ele>
        <time>2022-03-23T14:21:28Z</time>
      </trkpt>
      <trkpt lat="43.21861" lon="5.44851">
        <ele>211.9</ele>
        <time>2022-03-23T14:21:34Z</time>
      </trkpt>
      <trkpt lat="43.21866" lon="5.44846">
        <ele>211.8</ele>
        <time>2022-03-23T14:21:42Z</time>
      </trkpt>
      <trkpt lat="43.21871" lon="5.4484">
        <ele>211.8</ele>
        <time>2022-03-23T14:21:48Z</time>
      </trkpt>
      <trkpt lat="43.21873" lon="5.44834">
        <ele>211.5</ele>
        <time>2022-03-23T14:21:52Z</time>
      </trkpt>
      <trkpt lat="43.21875" lon="5.44827">
        <ele>212</ele>
        <time>2022-03-23T14:21:58Z</time>
      </trkpt>
      <trkpt lat="43.21876" lon="5.44821">
        <ele>212.6</ele>
        <time>2022-03-23T14:22:04Z</time>
      </trkpt>
      <trkpt lat="43.21878" lon="5.44814">
        <ele>213.1</ele>
        <time>2022-03-23T14:22:12Z</time>
      </trkpt>
      <trkpt lat="43.21875" lon="5.44806">
        <ele>212.6</ele>
        <time>2022-03-23T14:22:20Z</time>
      </trkpt>
      <trkpt lat="43.21873" lon="5.44797">
        <ele>212.4</ele>
        <time>2022-03-23T14:22:26Z</time>
      </trkpt>
      <trkpt lat="43.21872" lon="5.44791">
        <ele>212.2</ele>
        <time>2022-03-23T14:22:30Z</time>
      </trkpt>
      <trkpt lat="43.21871" lon="5.44785">
        <ele>212.1</ele>
        <time>2022-03-23T14:22:34Z</time>
      </trkpt>
      <trkpt lat="43.21871" lon="5.44777">
        <ele>212.5</ele>
        <time>2022-03-23T14:22:40Z</time>
      </trkpt>
      <trkpt lat="43.21873" lon="5.4477">
        <ele>213.9</ele>
        <time>2022-03-23T14:22:48Z</time>
      </trkpt>
      <trkpt lat="43.21877" lon="5.44765">
        <ele>214.9</ele>
        <time>2022-03-23T14:22:54Z</time>
      </trkpt>
      <trkpt lat="43.21879" lon="5.44759">
        <ele>215.3</ele>
        <time>2022-03-23T14:22:58Z</time>
      </trkpt>
      <trkpt lat="43.21882" lon="5.44751">
        <ele>215.5</ele>
        <time>2022-03-23T14:23:04Z</time>
      </trkpt>
      <trkpt lat="43.21884" lon="5.44744">
        <ele>215.5</ele>
        <time>2022-03-23T14:23:10Z</time>
      </trkpt>
      <trkpt lat="43.21884" lon="5.44738">
        <ele>215.6</ele>
        <time>2022-03-23T14:23:16Z</time>
      </trkpt>
      <trkpt lat="43.21885" lon="5.44731">
        <ele>215.8</ele>
        <time>2022-03-23T14:23:24Z</time>
      </trkpt>
      <trkpt lat="43.21882" lon="5.44724">
        <ele>216</ele>
        <time>2022-03-23T14:23:32Z</time>
      </trkpt>
      <trkpt lat="43.21879" lon="5.44718">
        <ele>215.8</ele>
        <time>2022-03-23T14:23:40Z</time>
      </trkpt>
      <trkpt lat="43.21877" lon="5.44712">
        <ele>215.5</ele>
        <time>2022-03-23T14:26:46Z</time>
      </trkpt>
      <trkpt lat="43.21876" lon="5.44703">
        <ele>215</ele>
        <time>2022-03-23T14:26:52Z</time>
      </trkpt>
      <trkpt lat="43.21874" lon="5.44697">
        <ele>214.6</ele>
        <time>2022-03-23T14:26:58Z</time>
      </trkpt>
      <trkpt lat="43.21876" lon="5.44689">
        <ele>214.2</ele>
        <time>2022-03-23T14:27:06Z</time>
      </trkpt>
      <trkpt lat="43.21876" lon="5.4468">
        <ele>213.8</ele>
        <time>2022-03-23T14:27:12Z</time>
      </trkpt>
      <trkpt lat="43.21877" lon="5.44674">
        <ele>213.4</ele>
        <time>2022-03-23T14:27:18Z</time>
      </trkpt>
      <trkpt lat="43.21878" lon="5.44667">
        <ele>213</ele>
        <time>2022-03-23T14:27:24Z</time>
      </trkpt>
      <trkpt lat="43.2188" lon="5.4466">
        <ele>212.6</ele>
        <time>2022-03-23T14:27:30Z</time>
      </trkpt>
      <trkpt lat="43.21881" lon="5.44652">
        <ele>212</ele>
        <time>2022-03-23T14:27:36Z</time>
      </trkpt>
      <trkpt lat="43.21881" lon="5.44644">
        <ele>211.5</ele>
        <time>2022-03-23T14:27:42Z</time>
      </trkpt>
      <trkpt lat="43.21883" lon="5.44637">
        <ele>210.9</ele>
        <time>2022-03-23T14:27:48Z</time>
      </trkpt>
      <trkpt lat="43.21884" lon="5.44628">
        <ele>210.6</ele>
        <time>2022-03-23T14:27:54Z</time>
      </trkpt>
      <trkpt lat="43.21885" lon="5.44621">
        <ele>210.5</ele>
        <time>2022-03-23T14:27:58Z</time>
      </trkpt>
      <trkpt lat="43.21886" lon="5.44615">
        <ele>210.3</ele>
        <time>2022-03-23T14:28:02Z</time>
      </trkpt>
      <trkpt lat="43.21891" lon="5.44611">
        <ele>210</ele>
        <time>2022-03-23T14:28:08Z</time>
      </trkpt>
      <trkpt lat="43.21895" lon="5.44606">
        <ele>209.6</ele>
        <time>2022-03-23T14:28:14Z</time>
      </trkpt>
      <trkpt lat="43.21899" lon="5.44603">
        <ele>209.3</ele>
        <time>2022-03-23T14:28:20Z</time>
      </trkpt>
      <trkpt lat="43.21904" lon="5.44599">
        <ele>208.9</ele>
        <time>2022-03-23T14:28:26Z</time>
      </trkpt>
      <trkpt lat="43.21908" lon="5.44592">
        <ele>208.2</ele>
        <time>2022-03-23T14:28:32Z</time>
      </trkpt>
      <trkpt lat="43.21911" lon="5.44584">
        <ele>207.3</ele>
        <time>2022-03-23T14:28:38Z</time>
      </trkpt>
      <trkpt lat="43.21914" lon="5.44577">
        <ele>206.8</ele>
        <time>2022-03-23T14:28:44Z</time>
      </trkpt>
      <trkpt lat="43.21916" lon="5.44571">
        <ele>206.6</ele>
        <time>2022-03-23T14:28:48Z</time>
      </trkpt>
      <trkpt lat="43.21919" lon="5.44563">
        <ele>206.4</ele>
        <time>2022-03-23T14:28:54Z</time>
      </trkpt>
      <trkpt lat="43.21922" lon="5.44557">
        <ele>206.3</ele>
        <time>2022-03-23T14:29:00Z</time>
      </trkpt>
      <trkpt lat="43.21925" lon="5.44549">
        <ele>205.8</ele>
        <time>2022-03-23T14:29:06Z</time>
      </trkpt>
      <trkpt lat="43.21925" lon="5.44542">
        <ele>205.3</ele>
        <time>2022-03-23T14:29:10Z</time>
      </trkpt>
      <trkpt lat="43.21925" lon="5.44534">
        <ele>204.7</ele>
        <time>2022-03-23T14:29:16Z</time>
      </trkpt>
      <trkpt lat="43.21924" lon="5.44526">
        <ele>204.2</ele>
        <time>2022-03-23T14:29:22Z</time>
      </trkpt>
      <trkpt lat="43.21922" lon="5.44521">
        <ele>203.7</ele>
        <time>2022-03-23T14:29:28Z</time>
      </trkpt>
      <trkpt lat="43.2192" lon="5.44514">
        <ele>203.1</ele>
        <time>2022-03-23T14:29:32Z</time>
      </trkpt>
      <trkpt lat="43.21918" lon="5.44509">
        <ele>202.7</ele>
        <time>2022-03-23T14:29:36Z</time>
      </trkpt>
      <trkpt lat="43.21917" lon="5.445">
        <ele>202</ele>
        <time>2022-03-23T14:29:42Z</time>
      </trkpt>
      <trkpt lat="43.21918" lon="5.44493">
        <ele>201.5</ele>
        <time>2022-03-23T14:29:46Z</time>
      </trkpt>
      <trkpt lat="43.21919" lon="5.44485">
        <ele>201</ele>
        <time>2022-03-23T14:29:50Z</time>
      </trkpt>
      <trkpt lat="43.21919" lon="5.44478">
        <ele>200.5</ele>
        <time>2022-03-23T14:29:56Z</time>
      </trkpt>
      <trkpt lat="43.2192" lon="5.44468">
        <ele>200</ele>
        <time>2022-03-23T14:30:02Z</time>
      </trkpt>
      <trkpt lat="43.21922" lon="5.44461">
        <ele>199.7</ele>
        <time>2022-03-23T14:30:08Z</time>
      </trkpt>
      <trkpt lat="43.21923" lon="5.44454">
        <ele>199.4</ele>
        <time>2022-03-23T14:30:14Z</time>
      </trkpt>
      <trkpt lat="43.21924" lon="5.44447">
        <ele>199.1</ele>
        <time>2022-03-23T14:30:20Z</time>
      </trkpt>
      <trkpt lat="43.21924" lon="5.44439">
        <ele>199</ele>
        <time>2022-03-23T14:30:24Z</time>
      </trkpt>
      <trkpt lat="43.21925" lon="5.44433">
        <ele>198.9</ele>
        <time>2022-03-23T14:30:28Z</time>
      </trkpt>
      <trkpt lat="43.21928" lon="5.44425">
        <ele>198.5</ele>
        <time>2022-03-23T14:30:34Z</time>
      </trkpt>
      <trkpt lat="43.21932" lon="5.4442">
        <ele>198</ele>
        <time>2022-03-23T14:30:38Z</time>
      </trkpt>
      <trkpt lat="43.21937" lon="5.44414">
        <ele>197.2</ele>
        <time>2022-03-23T14:30:44Z</time>
      </trkpt>
      <trkpt lat="43.21941" lon="5.4441">
        <ele>196.5</ele>
        <time>2022-03-23T14:30:50Z</time>
      </trkpt>
      <trkpt lat="43.21944" lon="5.44405">
        <ele>196.2</ele>
        <time>2022-03-23T14:30:54Z</time>
      </trkpt>
      <trkpt lat="43.21948" lon="5.44398">
        <ele>195.9</ele>
        <time>2022-03-23T14:31:00Z</time>
      </trkpt>
      <trkpt lat="43.21953" lon="5.44394">
        <ele>195.6</ele>
        <time>2022-03-23T14:31:06Z</time>
      </trkpt>
      <trkpt lat="43.21957" lon="5.4439">
        <ele>195.2</ele>
        <time>2022-03-23T14:31:10Z</time>
      </trkpt>
      <trkpt lat="43.21961" lon="5.44385">
        <ele>194.8</ele>
        <time>2022-03-23T14:31:14Z</time>
      </trkpt>
      <trkpt lat="43.21964" lon="5.4438">
        <ele>194.5</ele>
        <time>2022-03-23T14:31:18Z</time>
      </trkpt>
      <trkpt lat="43.21966" lon="5.44374">
        <ele>194.3</ele>
        <time>2022-03-23T14:31:22Z</time>
      </trkpt>
      <trkpt lat="43.21968" lon="5.44366">
        <ele>193.9</ele>
        <time>2022-03-23T14:31:26Z</time>
      </trkpt>
      <trkpt lat="43.21972" lon="5.4436">
        <ele>193.1</ele>
        <time>2022-03-23T14:31:32Z</time>
      </trkpt>
      <trkpt lat="43.21977" lon="5.44355">
        <ele>193.3</ele>
        <time>2022-03-23T14:31:38Z</time>
      </trkpt>
      <trkpt lat="43.2198" lon="5.44347">
        <ele>193.4</ele>
        <time>2022-03-23T14:31:44Z</time>
      </trkpt>
      <trkpt lat="43.21981" lon="5.44341">
        <ele>193.4</ele>
        <time>2022-03-23T14:31:48Z</time>
      </trkpt>
      <trkpt lat="43.21984" lon="5.44336">
        <ele>193.2</ele>
        <time>2022-03-23T14:31:52Z</time>
      </trkpt>
      <trkpt lat="43.21987" lon="5.4433">
        <ele>192.8</ele>
        <time>2022-03-23T14:31:58Z</time>
      </trkpt>
      <trkpt lat="43.21989" lon="5.4432">
        <ele>192.2</ele>
        <time>2022-03-23T14:32:04Z</time>
      </trkpt>
      <trkpt lat="43.21994" lon="5.44315">
        <ele>191.5</ele>
        <time>2022-03-23T14:32:10Z</time>
      </trkpt>
      <trkpt lat="43.21999" lon="5.44308">
        <ele>190.4</ele>
        <time>2022-03-23T14:32:16Z</time>
      </trkpt>
      <trkpt lat="43.22003" lon="5.44306">
        <ele>190.3</ele>
        <time>2022-03-23T14:32:22Z</time>
      </trkpt>
      <trkpt lat="43.22008" lon="5.44301">
        <ele>190.4</ele>
        <time>2022-03-23T14:32:28Z</time>
      </trkpt>
      <trkpt lat="43.22011" lon="5.44295">
        <ele>190.3</ele>
        <time>2022-03-23T14:32:32Z</time>
      </trkpt>
      <trkpt lat="43.22014" lon="5.4429">
        <ele>190.1</ele>
        <time>2022-03-23T14:32:36Z</time>
      </trkpt>
      <trkpt lat="43.22015" lon="5.44283">
        <ele>189.8</ele>
        <time>2022-03-23T14:32:40Z</time>
      </trkpt>
      <trkpt lat="43.22018" lon="5.44277">
        <ele>189.3</ele>
        <time>2022-03-23T14:32:46Z</time>
      </trkpt>
      <trkpt lat="43.22021" lon="5.44271">
        <ele>188.8</ele>
        <time>2022-03-23T14:32:52Z</time>
      </trkpt>
      <trkpt lat="43.22024" lon="5.44266">
        <ele>188.4</ele>
        <time>2022-03-23T14:32:58Z</time>
      </trkpt>
      <trkpt lat="43.22026" lon="5.44258">
        <ele>187.7</ele>
        <time>2022-03-23T14:33:04Z</time>
      </trkpt>
      <trkpt lat="43.2203" lon="5.44251">
        <ele>187.3</ele>
        <time>2022-03-23T14:33:10Z</time>
      </trkpt>
      <trkpt lat="43.2203" lon="5.44241">
        <ele>187.2</ele>
        <time>2022-03-23T14:33:14Z</time>
      </trkpt>
      <trkpt lat="43.2203" lon="5.44234">
        <ele>187.1</ele>
        <time>2022-03-23T14:33:18Z</time>
      </trkpt>
      <trkpt lat="43.2203" lon="5.44227">
        <ele>187</ele>
        <time>2022-03-23T14:33:22Z</time>
      </trkpt>
      <trkpt lat="43.22032" lon="5.44221">
        <ele>187</ele>
        <time>2022-03-23T14:33:26Z</time>
      </trkpt>
      <trkpt lat="43.22034" lon="5.44214">
        <ele>186.7</ele>
        <time>2022-03-23T14:33:32Z</time>
      </trkpt>
      <trkpt lat="43.22039" lon="5.4421">
        <ele>186.4</ele>
        <time>2022-03-23T14:33:38Z</time>
      </trkpt>
      <trkpt lat="43.22042" lon="5.44204">
        <ele>186</ele>
        <time>2022-03-23T14:33:44Z</time>
      </trkpt>
      <trkpt lat="43.22045" lon="5.44199">
        <ele>185.6</ele>
        <time>2022-03-23T14:33:50Z</time>
      </trkpt>
      <trkpt lat="43.22048" lon="5.44192">
        <ele>185.1</ele>
        <time>2022-03-23T14:33:58Z</time>
      </trkpt>
      <trkpt lat="43.22048" lon="5.44184">
        <ele>184.6</ele>
        <time>2022-03-23T14:34:02Z</time>
      </trkpt>
      <trkpt lat="43.2205" lon="5.44176">
        <ele>184</ele>
        <time>2022-03-23T14:34:06Z</time>
      </trkpt>
      <trkpt lat="43.22051" lon="5.44168">
        <ele>183.4</ele>
        <time>2022-03-23T14:34:10Z</time>
      </trkpt>
      <trkpt lat="43.22052" lon="5.44162">
        <ele>183</ele>
        <time>2022-03-23T14:34:14Z</time>
      </trkpt>
      <trkpt lat="43.22054" lon="5.44152">
        <ele>182.6</ele>
        <time>2022-03-23T14:34:20Z</time>
      </trkpt>
      <trkpt lat="43.22055" lon="5.44142">
        <ele>182.2</ele>
        <time>2022-03-23T14:34:26Z</time>
      </trkpt>
      <trkpt lat="43.22058" lon="5.44135">
        <ele>182.1</ele>
        <time>2022-03-23T14:34:32Z</time>
      </trkpt>
      <trkpt lat="43.22062" lon="5.44127">
        <ele>182.2</ele>
        <time>2022-03-23T14:34:38Z</time>
      </trkpt>
      <trkpt lat="43.22064" lon="5.44122">
        <ele>182</ele>
        <time>2022-03-23T14:34:42Z</time>
      </trkpt>
      <trkpt lat="43.22066" lon="5.44116">
        <ele>181.8</ele>
        <time>2022-03-23T14:34:46Z</time>
      </trkpt>
      <trkpt lat="43.22068" lon="5.4411">
        <ele>181.5</ele>
        <time>2022-03-23T14:34:50Z</time>
      </trkpt>
      <trkpt lat="43.22073" lon="5.44104">
        <ele>181.1</ele>
        <time>2022-03-23T14:34:56Z</time>
      </trkpt>
      <trkpt lat="43.22078" lon="5.44099">
        <ele>180.5</ele>
        <time>2022-03-23T14:35:02Z</time>
      </trkpt>
      <trkpt lat="43.22081" lon="5.44094">
        <ele>179.9</ele>
        <time>2022-03-23T14:35:08Z</time>
      </trkpt>
      <trkpt lat="43.22085" lon="5.4409">
        <ele>179.5</ele>
        <time>2022-03-23T14:35:14Z</time>
      </trkpt>
      <trkpt lat="43.2209" lon="5.44087">
        <ele>179.3</ele>
        <time>2022-03-23T14:35:20Z</time>
      </trkpt>
      <trkpt lat="43.22095" lon="5.44085">
        <ele>179.1</ele>
        <time>2022-03-23T14:35:26Z</time>
      </trkpt>
      <trkpt lat="43.22101" lon="5.44081">
        <ele>178.9</ele>
        <time>2022-03-23T14:35:32Z</time>
      </trkpt>
      <trkpt lat="43.22107" lon="5.44078">
        <ele>178.7</ele>
        <time>2022-03-23T14:35:38Z</time>
      </trkpt>
      <trkpt lat="43.22113" lon="5.44074">
        <ele>178.3</ele>
        <time>2022-03-23T14:35:44Z</time>
      </trkpt>
      <trkpt lat="43.22116" lon="5.4407">
        <ele>178.1</ele>
        <time>2022-03-23T14:35:48Z</time>
      </trkpt>
      <trkpt lat="43.22121" lon="5.44065">
        <ele>177.8</ele>
        <time>2022-03-23T14:35:54Z</time>
      </trkpt>
      <trkpt lat="43.22127" lon="5.44061">
        <ele>177.5</ele>
        <time>2022-03-23T14:36:00Z</time>
      </trkpt>
      <trkpt lat="43.22131" lon="5.44059">
        <ele>177.4</ele>
        <time>2022-03-23T14:36:04Z</time>
      </trkpt>
      <trkpt lat="43.22136" lon="5.44054">
        <ele>177</ele>
        <time>2022-03-23T14:36:10Z</time>
      </trkpt>
      <trkpt lat="43.2214" lon="5.44047">
        <ele>176.7</ele>
        <time>2022-03-23T14:36:16Z</time>
      </trkpt>
      <trkpt lat="43.22142" lon="5.44041">
        <ele>176.5</ele>
        <time>2022-03-23T14:36:20Z</time>
      </trkpt>
      <trkpt lat="43.22145" lon="5.44036">
        <ele>176.2</ele>
        <time>2022-03-23T14:36:24Z</time>
      </trkpt>
      <trkpt lat="43.22149" lon="5.44032">
        <ele>175.9</ele>
        <time>2022-03-23T14:36:28Z</time>
      </trkpt>
      <trkpt lat="43.22152" lon="5.44028">
        <ele>175.6</ele>
        <time>2022-03-23T14:36:32Z</time>
      </trkpt>
      <trkpt lat="43.22158" lon="5.44023">
        <ele>175.4</ele>
        <time>2022-03-23T14:36:38Z</time>
      </trkpt>
      <trkpt lat="43.22162" lon="5.44019">
        <ele>175.2</ele>
        <time>2022-03-23T14:36:42Z</time>
      </trkpt>
      <trkpt lat="43.22168" lon="5.44017">
        <ele>175</ele>
        <time>2022-03-23T14:36:48Z</time>
      </trkpt>
      <trkpt lat="43.22172" lon="5.44015">
        <ele>174.8</ele>
        <time>2022-03-23T14:36:52Z</time>
      </trkpt>
      <trkpt lat="43.22178" lon="5.44011">
        <ele>174.5</ele>
        <time>2022-03-23T14:36:58Z</time>
      </trkpt>
      <trkpt lat="43.22183" lon="5.44011">
        <ele>174.3</ele>
        <time>2022-03-23T14:37:02Z</time>
      </trkpt>
      <trkpt lat="43.2219" lon="5.44011">
        <ele>174</ele>
        <time>2022-03-23T14:37:08Z</time>
      </trkpt>
      <trkpt lat="43.22194" lon="5.44009">
        <ele>173.7</ele>
        <time>2022-03-23T14:37:12Z</time>
      </trkpt>
      <trkpt lat="43.22199" lon="5.44008">
        <ele>173.5</ele>
        <time>2022-03-23T14:37:16Z</time>
      </trkpt>
      <trkpt lat="43.22203" lon="5.44008">
        <ele>173.4</ele>
        <time>2022-03-23T14:37:20Z</time>
      </trkpt>
      <trkpt lat="43.22209" lon="5.44008">
        <ele>173.2</ele>
        <time>2022-03-23T14:37:26Z</time>
      </trkpt>
      <trkpt lat="43.22214" lon="5.44005">
        <ele>172.8</ele>
        <time>2022-03-23T14:37:32Z</time>
      </trkpt>
      <trkpt lat="43.22219" lon="5.44002">
        <ele>172.3</ele>
        <time>2022-03-23T14:37:40Z</time>
      </trkpt>
      <trkpt lat="43.22224" lon="5.43998">
        <ele>172.1</ele>
        <time>2022-03-23T14:37:46Z</time>
      </trkpt>
      <trkpt lat="43.22229" lon="5.43996">
        <ele>172</ele>
        <time>2022-03-23T14:37:50Z</time>
      </trkpt>
      <trkpt lat="43.22234" lon="5.43993">
        <ele>171.9</ele>
        <time>2022-03-23T14:37:54Z</time>
      </trkpt>
      <trkpt lat="43.2224" lon="5.4399">
        <ele>171.9</ele>
        <time>2022-03-23T14:37:58Z</time>
      </trkpt>
      <trkpt lat="43.22245" lon="5.43989">
        <ele>171.6</ele>
        <time>2022-03-23T14:38:02Z</time>
      </trkpt>
      <trkpt lat="43.2225" lon="5.43986">
        <ele>171.5</ele>
        <time>2022-03-23T14:38:08Z</time>
      </trkpt>
      <trkpt lat="43.22256" lon="5.43984">
        <ele>171.4</ele>
        <time>2022-03-23T14:38:14Z</time>
      </trkpt>
      <trkpt lat="43.2226" lon="5.43983">
        <ele>171.3</ele>
        <time>2022-03-23T14:38:18Z</time>
      </trkpt>
      <trkpt lat="43.22266" lon="5.43981">
        <ele>171.1</ele>
        <time>2022-03-23T14:38:24Z</time>
      </trkpt>
      <trkpt lat="43.22271" lon="5.43979">
        <ele>170.8</ele>
        <time>2022-03-23T14:38:32Z</time>
      </trkpt>
      <trkpt lat="43.22276" lon="5.43971">
        <ele>170.2</ele>
        <time>2022-03-23T14:38:38Z</time>
      </trkpt>
      <trkpt lat="43.22277" lon="5.43962">
        <ele>170.5</ele>
        <time>2022-03-23T14:38:42Z</time>
      </trkpt>
      <trkpt lat="43.22278" lon="5.43952">
        <ele>170.7</ele>
        <time>2022-03-23T14:38:46Z</time>
      </trkpt>
      <trkpt lat="43.2228" lon="5.43947">
        <ele>170.7</ele>
        <time>2022-03-23T14:38:50Z</time>
      </trkpt>
      <trkpt lat="43.22286" lon="5.43945">
        <ele>170.1</ele>
        <time>2022-03-23T14:38:56Z</time>
      </trkpt>
      <trkpt lat="43.22292" lon="5.43946">
        <ele>169.5</ele>
        <time>2022-03-23T14:39:00Z</time>
      </trkpt>
      <trkpt lat="43.22297" lon="5.43946">
        <ele>169</ele>
        <time>2022-03-23T14:39:04Z</time>
      </trkpt>
      <trkpt lat="43.22303" lon="5.43944">
        <ele>168.3</ele>
        <time>2022-03-23T14:39:10Z</time>
      </trkpt>
      <trkpt lat="43.2231" lon="5.43943">
        <ele>168.4</ele>
        <time>2022-03-23T14:39:16Z</time>
      </trkpt>
      <trkpt lat="43.22315" lon="5.4394">
        <ele>168.7</ele>
        <time>2022-03-23T14:39:22Z</time>
      </trkpt>
      <trkpt lat="43.2232" lon="5.43934">
        <ele>168.6</ele>
        <time>2022-03-23T14:39:28Z</time>
      </trkpt>
      <trkpt lat="43.22322" lon="5.43925">
        <ele>168.1</ele>
        <time>2022-03-23T14:39:32Z</time>
      </trkpt>
      <trkpt lat="43.22326" lon="5.43921">
        <ele>167.4</ele>
        <time>2022-03-23T14:39:36Z</time>
      </trkpt>
      <trkpt lat="43.22329" lon="5.43916">
        <ele>166.6</ele>
        <time>2022-03-23T14:39:40Z</time>
      </trkpt>
      <trkpt lat="43.22333" lon="5.43911">
        <ele>166.3</ele>
        <time>2022-03-23T14:39:44Z</time>
      </trkpt>
      <trkpt lat="43.22336" lon="5.43907">
        <ele>166.5</ele>
        <time>2022-03-23T14:39:48Z</time>
      </trkpt>
      <trkpt lat="43.22339" lon="5.439">
        <ele>166.7</ele>
        <time>2022-03-23T14:39:52Z</time>
      </trkpt>
      <trkpt lat="43.22343" lon="5.43895">
        <ele>166.7</ele>
        <time>2022-03-23T14:39:56Z</time>
      </trkpt>
      <trkpt lat="43.22348" lon="5.4389">
        <ele>166.5</ele>
        <time>2022-03-23T14:40:02Z</time>
      </trkpt>
      <trkpt lat="43.22354" lon="5.43887">
        <ele>166.3</ele>
        <time>2022-03-23T14:40:08Z</time>
      </trkpt>
      <trkpt lat="43.22357" lon="5.43881">
        <ele>166.2</ele>
        <time>2022-03-23T14:40:14Z</time>
      </trkpt>
      <trkpt lat="43.22361" lon="5.43876">
        <ele>166</ele>
        <time>2022-03-23T14:40:24Z</time>
      </trkpt>
      <trkpt lat="43.22366" lon="5.43874">
        <ele>166</ele>
        <time>2022-03-23T14:40:32Z</time>
      </trkpt>
      <trkpt lat="43.22371" lon="5.43871">
        <ele>165.8</ele>
        <time>2022-03-23T14:40:38Z</time>
      </trkpt>
      <trkpt lat="43.22378" lon="5.43868">
        <ele>165.4</ele>
        <time>2022-03-23T14:40:44Z</time>
      </trkpt>
      <trkpt lat="43.22383" lon="5.43866">
        <ele>165</ele>
        <time>2022-03-23T14:40:48Z</time>
      </trkpt>
      <trkpt lat="43.22389" lon="5.43862">
        <ele>164.1</ele>
        <time>2022-03-23T14:40:54Z</time>
      </trkpt>
      <trkpt lat="43.22393" lon="5.43859">
        <ele>164.1</ele>
        <time>2022-03-23T14:40:58Z</time>
      </trkpt>
      <trkpt lat="43.22398" lon="5.43855">
        <ele>164.3</ele>
        <time>2022-03-23T14:41:04Z</time>
      </trkpt>
      <trkpt lat="43.22404" lon="5.43853">
        <ele>164.3</ele>
        <time>2022-03-23T14:41:10Z</time>
      </trkpt>
      <trkpt lat="43.22409" lon="5.43852">
        <ele>164.2</ele>
        <time>2022-03-23T14:41:14Z</time>
      </trkpt>
      <trkpt lat="43.22414" lon="5.43849">
        <ele>164.1</ele>
        <time>2022-03-23T14:41:18Z</time>
      </trkpt>
      <trkpt lat="43.2242" lon="5.43847">
        <ele>163.9</ele>
        <time>2022-03-23T14:41:24Z</time>
      </trkpt>
      <trkpt lat="43.22425" lon="5.43844">
        <ele>163.8</ele>
        <time>2022-03-23T14:41:30Z</time>
      </trkpt>
      <trkpt lat="43.2243" lon="5.4384">
        <ele>163.6</ele>
        <time>2022-03-23T14:41:38Z</time>
      </trkpt>
      <trkpt lat="43.22434" lon="5.43834">
        <ele>163.4</ele>
        <time>2022-03-23T14:41:44Z</time>
      </trkpt>
      <trkpt lat="43.22438" lon="5.43828">
        <ele>163.7</ele>
        <time>2022-03-23T14:41:50Z</time>
      </trkpt>
      <trkpt lat="43.22443" lon="5.43824">
        <ele>163.8</ele>
        <time>2022-03-23T14:41:58Z</time>
      </trkpt>
      <trkpt lat="43.22448" lon="5.43821">
        <ele>163.8</ele>
        <time>2022-03-23T14:42:04Z</time>
      </trkpt>
      <trkpt lat="43.22453" lon="5.43817">
        <ele>163.9</ele>
        <time>2022-03-23T14:42:08Z</time>
      </trkpt>
      <trkpt lat="43.22458" lon="5.43815">
        <ele>163.9</ele>
        <time>2022-03-23T14:42:12Z</time>
      </trkpt>
      <trkpt lat="43.22464" lon="5.43814">
        <ele>164</ele>
        <time>2022-03-23T14:42:18Z</time>
      </trkpt>
      <trkpt lat="43.22469" lon="5.43813">
        <ele>164</ele>
        <time>2022-03-23T14:42:22Z</time>
      </trkpt>
      <trkpt lat="43.22473" lon="5.4381">
        <ele>164.4</ele>
        <time>2022-03-23T14:42:26Z</time>
      </trkpt>
      <trkpt lat="43.22478" lon="5.4381">
        <ele>164.4</ele>
        <time>2022-03-23T14:42:32Z</time>
      </trkpt>
      <trkpt lat="43.22485" lon="5.43812">
        <ele>164</ele>
        <time>2022-03-23T14:42:38Z</time>
      </trkpt>
      <trkpt lat="43.22491" lon="5.43812">
        <ele>163.9</ele>
        <time>2022-03-23T14:42:44Z</time>
      </trkpt>
      <trkpt lat="43.22496" lon="5.43812">
        <ele>163.8</ele>
        <time>2022-03-23T14:42:48Z</time>
      </trkpt>
      <trkpt lat="43.225" lon="5.43813">
        <ele>163.6</ele>
        <time>2022-03-23T14:42:52Z</time>
      </trkpt>
      <trkpt lat="43.22505" lon="5.43814">
        <ele>163.6</ele>
        <time>2022-03-23T14:42:56Z</time>
      </trkpt>
      <trkpt lat="43.22509" lon="5.43815">
        <ele>163.4</ele>
        <time>2022-03-23T14:43:00Z</time>
      </trkpt>
      <trkpt lat="43.22514" lon="5.43816">
        <ele>163.3</ele>
        <time>2022-03-23T14:43:04Z</time>
      </trkpt>
      <trkpt lat="43.2252" lon="5.43816">
        <ele>163.4</ele>
        <time>2022-03-23T14:43:10Z</time>
      </trkpt>
      <trkpt lat="43.22527" lon="5.43812">
        <ele>164</ele>
        <time>2022-03-23T14:43:16Z</time>
      </trkpt>
      <trkpt lat="43.22532" lon="5.43811">
        <ele>164.3</ele>
        <time>2022-03-23T14:43:20Z</time>
      </trkpt>
      <trkpt lat="43.22536" lon="5.43812">
        <ele>163.9</ele>
        <time>2022-03-23T14:43:24Z</time>
      </trkpt>
      <trkpt lat="43.22541" lon="5.43813">
        <ele>163.8</ele>
        <time>2022-03-23T14:43:28Z</time>
      </trkpt>
      <trkpt lat="43.22547" lon="5.43813">
        <ele>163.8</ele>
        <time>2022-03-23T14:43:36Z</time>
      </trkpt>
      <trkpt lat="43.22552" lon="5.43814">
        <ele>163.6</ele>
        <time>2022-03-23T14:43:40Z</time>
      </trkpt>
      <trkpt lat="43.22556" lon="5.43814">
        <ele>163.4</ele>
        <time>2022-03-23T14:43:44Z</time>
      </trkpt>
      <trkpt lat="43.22563" lon="5.43814">
        <ele>163.6</ele>
        <time>2022-03-23T14:43:50Z</time>
      </trkpt>
      <trkpt lat="43.22568" lon="5.43812">
        <ele>163.9</ele>
        <time>2022-03-23T14:43:56Z</time>
      </trkpt>
      <trkpt lat="43.22574" lon="5.4381">
        <ele>164.2</ele>
        <time>2022-03-23T14:44:00Z</time>
      </trkpt>
      <trkpt lat="43.22578" lon="5.4381">
        <ele>164.3</ele>
        <time>2022-03-23T14:44:04Z</time>
      </trkpt>
      <trkpt lat="43.22585" lon="5.4381">
        <ele>164.4</ele>
        <time>2022-03-23T14:44:10Z</time>
      </trkpt>
      <trkpt lat="43.22592" lon="5.4381">
        <ele>164.4</ele>
        <time>2022-03-23T14:44:16Z</time>
      </trkpt>
      <trkpt lat="43.22596" lon="5.43808">
        <ele>164.6</ele>
        <time>2022-03-23T14:44:20Z</time>
      </trkpt>
      <trkpt lat="43.22601" lon="5.43807">
        <ele>164.9</ele>
        <time>2022-03-23T14:44:24Z</time>
      </trkpt>
      <trkpt lat="43.22608" lon="5.43804">
        <ele>165.1</ele>
        <time>2022-03-23T14:44:30Z</time>
      </trkpt>
      <trkpt lat="43.22613" lon="5.43803">
        <ele>165.2</ele>
        <time>2022-03-23T14:44:34Z</time>
      </trkpt>
      <trkpt lat="43.22617" lon="5.438">
        <ele>165.2</ele>
        <time>2022-03-23T14:44:40Z</time>
      </trkpt>
      <trkpt lat="43.22624" lon="5.43797">
        <ele>165.1</ele>
        <time>2022-03-23T14:44:46Z</time>
      </trkpt>
      <trkpt lat="43.22629" lon="5.43795">
        <ele>165.1</ele>
        <time>2022-03-23T14:44:50Z</time>
      </trkpt>
      <trkpt lat="43.22634" lon="5.43792">
        <ele>165.2</ele>
        <time>2022-03-23T14:44:54Z</time>
      </trkpt>
      <trkpt lat="43.2264" lon="5.43789">
        <ele>165.2</ele>
        <time>2022-03-23T14:45:00Z</time>
      </trkpt>
      <trkpt lat="43.22645" lon="5.43786">
        <ele>165</ele>
        <time>2022-03-23T14:45:04Z</time>
      </trkpt>
      <trkpt lat="43.22649" lon="5.43783">
        <ele>165</ele>
        <time>2022-03-23T14:45:08Z</time>
      </trkpt>
      <trkpt lat="43.22654" lon="5.43777">
        <ele>164.9</ele>
        <time>2022-03-23T14:45:14Z</time>
      </trkpt>
      <trkpt lat="43.22659" lon="5.43773">
        <ele>164.6</ele>
        <time>2022-03-23T14:45:20Z</time>
      </trkpt>
      <trkpt lat="43.22665" lon="5.43767">
        <ele>164.2</ele>
        <time>2022-03-23T14:45:26Z</time>
      </trkpt>
      <trkpt lat="43.22669" lon="5.43764">
        <ele>163.8</ele>
        <time>2022-03-23T14:45:30Z</time>
      </trkpt>
      <trkpt lat="43.22673" lon="5.43761">
        <ele>163.5</ele>
        <time>2022-03-23T14:45:34Z</time>
      </trkpt>
      <trkpt lat="43.22677" lon="5.43758">
        <ele>163.1</ele>
        <time>2022-03-23T14:45:38Z</time>
      </trkpt>
      <trkpt lat="43.22682" lon="5.43755">
        <ele>162.8</ele>
        <time>2022-03-23T14:45:42Z</time>
      </trkpt>
      <trkpt lat="43.22686" lon="5.43753">
        <ele>162.5</ele>
        <time>2022-03-23T14:45:48Z</time>
      </trkpt>
      <trkpt lat="43.22692" lon="5.43749">
        <ele>162</ele>
        <time>2022-03-23T14:45:56Z</time>
      </trkpt>
      <trkpt lat="43.22698" lon="5.43744">
        <ele>161</ele>
        <time>2022-03-23T14:46:02Z</time>
      </trkpt>
      <trkpt lat="43.22703" lon="5.43743">
        <ele>160.5</ele>
        <time>2022-03-23T14:46:06Z</time>
      </trkpt>
      <trkpt lat="43.22708" lon="5.43739">
        <ele>159.9</ele>
        <time>2022-03-23T14:46:12Z</time>
      </trkpt>
      <trkpt lat="43.22713" lon="5.43736">
        <ele>159.7</ele>
        <time>2022-03-23T14:46:18Z</time>
      </trkpt>
      <trkpt lat="43.22719" lon="5.43733">
        <ele>159.6</ele>
        <time>2022-03-23T14:46:24Z</time>
      </trkpt>
      <trkpt lat="43.22725" lon="5.43731">
        <ele>159.5</ele>
        <time>2022-03-23T14:46:30Z</time>
      </trkpt>
      <trkpt lat="43.2273" lon="5.43729">
        <ele>159.1</ele>
        <time>2022-03-23T14:46:36Z</time>
      </trkpt>
      <trkpt lat="43.22735" lon="5.43728">
        <ele>159</ele>
        <time>2022-03-23T14:46:40Z</time>
      </trkpt>
      <trkpt lat="43.2274" lon="5.43726">
        <ele>158.9</ele>
        <time>2022-03-23T14:46:44Z</time>
      </trkpt>
      <trkpt lat="43.22744" lon="5.43724">
        <ele>158.9</ele>
        <time>2022-03-23T14:46:50Z</time>
      </trkpt>
      <trkpt lat="43.2275" lon="5.43723">
        <ele>158.9</ele>
        <time>2022-03-23T14:46:56Z</time>
      </trkpt>
      <trkpt lat="43.22756" lon="5.43721">
        <ele>158.7</ele>
        <time>2022-03-23T14:47:02Z</time>
      </trkpt>
      <trkpt lat="43.22762" lon="5.4372">
        <ele>158.5</ele>
        <time>2022-03-23T14:47:06Z</time>
      </trkpt>
      <trkpt lat="43.22768" lon="5.4372">
        <ele>158.1</ele>
        <time>2022-03-23T14:47:10Z</time>
      </trkpt>
      <trkpt lat="43.22773" lon="5.4372">
        <ele>157.8</ele>
        <time>2022-03-23T14:47:16Z</time>
      </trkpt>
      <trkpt lat="43.22778" lon="5.4372">
        <ele>157.4</ele>
        <time>2022-03-23T14:47:20Z</time>
      </trkpt>
      <trkpt lat="43.22783" lon="5.43722">
        <ele>156.7</ele>
        <time>2022-03-23T14:47:24Z</time>
      </trkpt>
      <trkpt lat="43.22788" lon="5.43724">
        <ele>155.8</ele>
        <time>2022-03-23T14:47:28Z</time>
      </trkpt>
      <trkpt lat="43.22795" lon="5.43726">
        <ele>155.1</ele>
        <time>2022-03-23T14:47:32Z</time>
      </trkpt>
      <trkpt lat="43.22801" lon="5.43727">
        <ele>154.4</ele>
        <time>2022-03-23T14:47:38Z</time>
      </trkpt>
      <trkpt lat="43.22806" lon="5.43726">
        <ele>154.2</ele>
        <time>2022-03-23T14:47:42Z</time>
      </trkpt>
      <trkpt lat="43.22812" lon="5.43725">
        <ele>154.1</ele>
        <time>2022-03-23T14:47:46Z</time>
      </trkpt>
      <trkpt lat="43.22817" lon="5.43725">
        <ele>153.9</ele>
        <time>2022-03-23T14:47:52Z</time>
      </trkpt>
      <trkpt lat="43.22822" lon="5.43725">
        <ele>153.8</ele>
        <time>2022-03-23T14:47:56Z</time>
      </trkpt>
      <trkpt lat="43.22828" lon="5.43723">
        <ele>154</ele>
        <time>2022-03-23T14:48:00Z</time>
      </trkpt>
      <trkpt lat="43.22834" lon="5.43721">
        <ele>154.1</ele>
        <time>2022-03-23T14:48:04Z</time>
      </trkpt>
      <trkpt lat="43.22839" lon="5.43721">
        <ele>153.8</ele>
        <time>2022-03-23T14:48:08Z</time>
      </trkpt>
      <trkpt lat="43.22844" lon="5.4372">
        <ele>153.6</ele>
        <time>2022-03-23T14:48:12Z</time>
      </trkpt>
      <trkpt lat="43.2285" lon="5.4372">
        <ele>153.1</ele>
        <time>2022-03-23T14:48:18Z</time>
      </trkpt>
      <trkpt lat="43.22855" lon="5.43718">
        <ele>153</ele>
        <time>2022-03-23T14:48:24Z</time>
      </trkpt>
      <trkpt lat="43.2286" lon="5.43718">
        <ele>152.7</ele>
        <time>2022-03-23T14:48:30Z</time>
      </trkpt>
      <trkpt lat="43.22866" lon="5.43718">
        <ele>152.2</ele>
        <time>2022-03-23T14:48:44Z</time>
      </trkpt>
      <trkpt lat="43.22874" lon="5.43718">
        <ele>151.7</ele>
        <time>2022-03-23T14:48:48Z</time>
      </trkpt>
      <trkpt lat="43.2288" lon="5.43718">
        <ele>151.3</ele>
        <time>2022-03-23T14:48:52Z</time>
      </trkpt>
      <trkpt lat="43.22886" lon="5.43717">
        <ele>151</ele>
        <time>2022-03-23T14:48:58Z</time>
      </trkpt>
      <trkpt lat="43.22892" lon="5.43716">
        <ele>150.6</ele>
        <time>2022-03-23T14:49:02Z</time>
      </trkpt>
      <trkpt lat="43.22896" lon="5.43716">
        <ele>150.4</ele>
        <time>2022-03-23T14:49:06Z</time>
      </trkpt>
      <trkpt lat="43.22902" lon="5.43716">
        <ele>149.9</ele>
        <time>2022-03-23T14:49:12Z</time>
      </trkpt>
      <trkpt lat="43.22907" lon="5.43715">
        <ele>149.6</ele>
        <time>2022-03-23T14:49:16Z</time>
      </trkpt>
      <trkpt lat="43.22913" lon="5.43715">
        <ele>149.3</ele>
        <time>2022-03-23T14:49:20Z</time>
      </trkpt>
      <trkpt lat="43.22918" lon="5.43714">
        <ele>149.1</ele>
        <time>2022-03-23T14:49:26Z</time>
      </trkpt>
      <trkpt lat="43.22923" lon="5.43715">
        <ele>148.8</ele>
        <time>2022-03-23T14:49:32Z</time>
      </trkpt>
      <trkpt lat="43.22928" lon="5.43713">
        <ele>148.8</ele>
        <time>2022-03-23T14:49:36Z</time>
      </trkpt>
      <trkpt lat="43.22934" lon="5.4371">
        <ele>148.8</ele>
        <time>2022-03-23T14:49:42Z</time>
      </trkpt>
      <trkpt lat="43.22938" lon="5.4371">
        <ele>148.6</ele>
        <time>2022-03-23T14:49:46Z</time>
      </trkpt>
      <trkpt lat="43.22943" lon="5.43709">
        <ele>148.5</ele>
        <time>2022-03-23T14:49:50Z</time>
      </trkpt>
      <trkpt lat="43.22948" lon="5.43709">
        <ele>148</ele>
        <time>2022-03-23T14:49:54Z</time>
      </trkpt>
      <trkpt lat="43.22953" lon="5.4371">
        <ele>147.3</ele>
        <time>2022-03-23T14:50:02Z</time>
      </trkpt>
      <trkpt lat="43.22958" lon="5.43711">
        <ele>146.7</ele>
        <time>2022-03-23T14:50:12Z</time>
      </trkpt>
      <trkpt lat="43.22964" lon="5.4371">
        <ele>146</ele>
        <time>2022-03-23T14:50:18Z</time>
      </trkpt>
      <trkpt lat="43.22967" lon="5.43704">
        <ele>145.8</ele>
        <time>2022-03-23T14:50:24Z</time>
      </trkpt>
      <trkpt lat="43.22971" lon="5.43703">
        <ele>145.1</ele>
        <time>2022-03-23T14:50:36Z</time>
      </trkpt>
      <trkpt lat="43.22976" lon="5.43701">
        <ele>144.7</ele>
        <time>2022-03-23T14:51:16Z</time>
      </trkpt>
      <trkpt lat="43.2298" lon="5.43698">
        <ele>144.4</ele>
        <time>2022-03-23T14:51:28Z</time>
      </trkpt>
      <trkpt lat="43.22985" lon="5.43695">
        <ele>144.1</ele>
        <time>2022-03-23T14:51:42Z</time>
      </trkpt>
      <trkpt lat="43.2299" lon="5.43694">
        <ele>143.8</ele>
        <time>2022-03-23T14:51:52Z</time>
      </trkpt>
      <trkpt lat="43.22995" lon="5.43693">
        <ele>143.5</ele>
        <time>2022-03-23T14:52:04Z</time>
      </trkpt>
    </trkseg>
  </trk>
</gpx>